[[{"header":{"parameterUnit":"m.s-1","parameterCategory":1,"la1":30.6,"la2":29.2853,"lo1":-89.7004,"lo2":-87.6739,"dy":0.0162,"dx":0.0183,"nx":112,"ny":82,"refTime":"2023-04-14T00:00:00:Z","depth":0,"parameterNumber":2,"parameterNumberName":"U-component_of_WINDS"},"data":[0.0,0.0,0.0,0.0,0.0,0.0,0.0,0.0,0.0,0.0,0.0,0.0,0.0,0.0,0.0,0.0,0.0,0.0,0.0,0.0,0.0,0.0,0.0,0.0,0.0,0.0,0.0,0.0,0.0,0.0,0.0,0.0,0.0,0.0,0.0,0.0,0.0,0.0,0.0,0.0,0.0,0.0,0.0,0.0,0.0,0.0,0.0,0.0,0.0,0.0,0.0,0.0,0.0,0.0,0.0,0.0,0.0,0.0,0.0,0.0,0.0,0.0,0.0,0.0,0.0,0.0,0.0,0.0,0.0,0.0,0.0,0.0,0.0,0.0,0.0,0.0,0.0,0.0,0.0,0.0,0.0,0.0,0.0,0.0,0.0,0.0,0.0,0.0,0.0,0.0,2.3873,2.3873,2.3873,2.4141,2.4819,2.4266,2.3873,2.3873,0.0,0.0,0.0,0.0,0.0,0.0,0.0,0.0,0.0,0.0,0.0,0.0,0.0,0.0,0.0,0.0,0.0,0.0,0.0,0.0,0.0,0.0,0.0,0.0,0.0,0.0,0.0,0.0,0.0,0.0,0.0,0.0,0.0,0.0,0.0,0.0,0.0,0.0,0.0,0.0,0.0,0.0,0.0,0.0,0.0,0.0,0.0,0.0,0.0,0.0,0.0,0.0,0.0,0.0,0.0,0.0,0.0,0.0,0.0,0.0,0.0,0.0,0.0,0.0,0.0,0.0,0.0,0.0,0.0,0.0,0.0,0.0,0.0,0.0,0.0,0.0,0.0,0.0,0.0,0.0,0.0,0.0,0.0,0.0,0.0,0.0,0.0,0.0,0.0,0.0,0.0,0.0,0.0,0.0,0.0,0.0,0.0,0.0,0.0,0.0,0.0,0.0,0.0,0.0,2.5461,2.5461,2.5461,2.5515,2.5622,2.5533,2.5461,2.5461,0.0,0.0,0.0,0.0,0.0,0.0,0.0,0.0,0.0,0.0,0.0,0.0,0.0,0.0,0.0,0.0,0.0,0.0,0.0,0.0,0.0,0.0,0.0,0.0,0.0,0.0,0.0,0.0,0.0,0.0,0.0,0.0,0.0,0.0,0.0,0.0,0.0,0.0,0.0,0.0,0.0,0.0,0.0,0.0,0.0,0.0,0.0,0.0,0.0,0.0,0.0,0.0,0.0,0.0,0.0,0.0,0.0,0.0,0.0,0.0,0.0,0.0,0.0,0.0,0.0,0.0,0.0,0.0,0.0,0.0,0.0,0.0,0.0,0.0,0.0,0.0,0.0,0.0,0.0,0.0,0.0,0.0,0.0,0.0,0.0,0.0,0.0,0.0,0.0,0.0,0.0,0.0,0.0,0.0,0.0,0.0,0.0,0.0,0.0,0.0,0.0,0.0,0.0,2.5604,2.5979,2.6407,2.6068,2.5979,2.6407,2.605,2.58,2.58,2.514,0.0,0.0,0.0,0.0,0.0,0.0,0.0,0.0,0.0,0.0,0.0,0.0,0.0,0.0,0.0,0.0,0.0,0.0,0.0,0.0,0.0,0.0,0.0,0.0,0.0,0.0,0.0,0.0,0.0,0.0,0.0,0.0,0.0,0.0,0.0,0.0,0.0,0.0,0.0,0.0,0.0,0.0,0.0,0.0,0.0,0.0,0.0,0.0,0.0,0.0,0.0,0.0,0.0,0.0,0.0,0.0,0.0,0.0,0.0,0.0,0.0,0.0,0.0,0.0,0.0,0.0,0.0,0.0,0.0,0.0,0.0,0.0,0.0,0.0,0.0,0.0,0.0,0.0,0.0,0.0,0.0,0.0,0.0,0.0,0.0,0.0,0.0,0.0,0.0,0.0,0.0,0.0,0.0,0.0,0.0,0.0,0.0,0.0,0.0,0.0,0.0,0.0,2.6371,2.6603,2.721,2.6728,2.6621,2.7228,2.6728,2.6371,2.6371,2.6193,0.0,0.0,0.0,0.0,0.0,0.0,0.0,0.0,0.0,0.0,0.0,0.0,0.0,0.0,0.0,0.0,0.0,0.0,0.0,0.0,0.0,0.0,0.0,0.0,0.0,0.0,0.0,0.0,0.0,0.0,0.0,0.0,0.0,0.0,0.0,0.0,0.0,0.0,0.0,0.0,0.0,0.0,0.0,0.0,0.0,0.0,0.0,0.0,0.0,0.0,0.0,0.0,0.0,0.0,0.0,0.0,0.0,0.0,0.0,0.0,0.0,0.0,0.0,0.0,0.0,0.0,0.0,0.0,0.0,0.0,0.0,0.0,0.0,0.0,0.0,0.0,0.0,0.0,0.0,0.0,0.0,0.0,0.0,0.0,0.0,0.0,0.0,0.0,0.0,0.0,0.0,0.0,0.0,0.0,0.0,0.0,0.0,0.0,0.0,0.0,0.0,0.0,2.8021,2.8039,2.8093,2.8057,2.8039,2.8093,2.8057,2.8021,2.8021,2.7335,0.0,0.0,0.0,0.0,0.0,0.0,0.0,0.0,0.0,0.0,0.0,0.0,0.0,0.0,0.0,0.0,0.0,0.0,0.0,0.0,0.0,0.0,0.0,0.0,0.0,0.0,0.0,0.0,0.0,0.0,0.0,0.0,0.0,0.0,0.0,0.0,0.0,0.0,0.0,0.0,0.0,0.0,0.0,0.0,0.0,0.0,0.0,0.0,0.0,0.0,0.0,0.0,0.0,0.0,0.0,0.0,0.0,0.0,0.0,0.0,0.0,0.0,0.0,0.0,0.0,0.0,0.0,0.0,0.0,0.0,0.0,0.0,0.0,0.0,0.0,0.0,0.0,0.0,0.0,0.0,0.0,0.0,0.0,0.0,0.0,0.0,0.0,0.0,0.0,0.0,0.0,0.0,0.0,0.0,0.0,0.0,0.0,0.0,0.0,0.0,0.0,0.0,2.8182,2.8378,0.0,2.8513,2.8405,2.8923,2.8495,2.8182,2.8182,0.0,0.0,0.0,0.0,0.0,0.0,0.0,0.0,0.0,0.0,0.0,0.0,0.0,0.0,0.0,0.0,0.0,0.0,0.0,0.0,0.0,0.0,0.0,0.0,0.0,0.0,0.0,0.0,0.0,0.0,0.0,0.0,0.0,0.0,0.0,0.0,0.0,0.0,0.0,0.0,0.0,0.0,0.0,0.0,0.0,0.0,0.0,0.0,0.0,0.0,0.0,0.0,0.0,0.0,0.0,0.0,0.0,0.0,0.0,0.0,0.0,0.0,0.0,0.0,0.0,0.0,0.0,0.0,0.0,0.0,0.0,0.0,0.0,0.0,0.0,0.0,0.0,0.0,0.0,0.0,0.0,0.0,0.0,0.0,0.0,0.0,0.0,0.0,0.0,0.0,0.0,0.0,0.0,0.0,0.0,0.0,0.0,0.0,0.0,0.0,0.0,0.0,2.8182,2.8441,2.8798,0.0,2.9137,2.9155,2.9708,2.9058,2.8612,2.8584,0.0,0.0,0.0,0.0,0.0,0.0,0.0,0.0,0.0,0.0,0.0,0.0,0.0,0.0,0.0,0.0,0.0,0.0,0.0,0.0,0.0,0.0,0.0,0.0,0.0,0.0,0.0,0.0,0.0,0.0,0.0,0.0,0.0,0.0,0.0,0.0,0.0,0.0,0.0,0.0,0.0,0.0,0.0,0.0,0.0,0.0,0.0,0.0,0.0,0.0,0.0,0.0,0.0,0.0,0.0,0.0,0.0,0.0,0.0,0.0,0.0,0.0,0.0,0.0,0.0,0.0,0.0,0.0,0.0,0.0,0.0,0.0,0.0,0.0,0.0,0.0,0.0,0.0,0.0,0.0,0.0,0.0,0.0,0.0,0.0,0.0,0.0,0.0,0.0,0.0,0.0,0.0,0.0,0.0,0.0,0.0,0.0,0.0,0.0,0.0,0.0,0.0,2.82,2.8923,2.9423,2.9423,3.0083,3.0511,3.0529,2.9919,2.949,0.0,0.0,0.0,0.0,0.0,0.0,0.0,0.0,0.0,0.0,0.0,0.0,0.0,0.0,0.0,0.0,0.0,0.0,0.0,0.0,0.0,0.0,0.0,0.0,0.0,0.0,0.0,0.0,0.0,0.0,0.0,0.0,0.0,0.0,0.0,0.0,0.0,0.0,0.0,0.0,0.0,0.0,0.0,0.0,0.0,0.0,0.0,0.0,0.0,0.0,0.0,0.0,0.0,0.0,0.0,0.0,0.0,0.0,0.0,0.0,0.0,0.0,0.0,0.0,0.0,0.0,0.0,0.0,0.0,0.0,0.0,0.0,0.0,0.0,0.0,0.0,0.0,0.0,0.0,0.0,0.0,0.0,0.0,0.0,0.0,0.0,0.0,0.0,0.0,0.0,0.0,0.0,0.0,0.0,0.0,0.0,0.0,0.0,0.0,0.0,0.0,0.0,0.0,2.9048,2.9726,3.0386,3.0957,3.0707,3.0825,3.1635,3.088,3.0438,3.0595,0.0,0.0,0.0,0.0,0.0,0.0,0.0,0.0,0.0,0.0,0.0,0.0,0.0,0.0,0.0,0.0,0.0,0.0,0.0,0.0,0.0,0.0,0.0,0.0,0.0,0.0,0.0,0.0,0.0,0.0,0.0,0.0,0.0,0.0,0.0,0.0,0.0,0.0,0.0,0.0,0.0,0.0,0.0,0.0,0.0,0.0,0.0,0.0,0.0,0.0,0.0,0.0,0.0,0.0,0.0,0.0,0.0,0.0,0.0,0.0,0.0,0.0,0.0,0.0,0.0,0.0,0.0,0.0,0.0,0.0,0.0,0.0,0.0,0.0,0.0,0.0,0.0,0.0,0.0,0.0,0.0,0.0,0.0,0.0,0.0,0.0,0.0,0.0,0.0,0.0,0.0,0.0,0.0,0.0,0.0,0.0,0.0,0.0,0.0,0.0,0.0,0.0,2.9797,3.0511,3.1171,3.1653,3.1546,3.1769,3.2524,3.1794,3.14,3.1689,0.0,0.0,0.0,0.0,0.0,0.0,0.0,0.0,0.0,0.0,0.0,0.0,0.0,0.0,0.0,0.0,0.0,0.0,0.0,0.0,0.0,0.0,0.0,0.0,0.0,0.0,0.0,0.0,0.0,0.0,0.0,0.0,0.0,0.0,0.0,0.0,0.0,0.0,0.0,0.0,0.0,0.0,0.0,0.0,0.0,0.0,0.0,0.0,0.0,0.0,0.0,0.0,0.0,0.0,0.0,0.0,0.0,0.0,0.0,0.0,0.0,0.0,0.0,0.0,0.0,0.0,0.0,0.0,0.0,0.0,0.0,0.0,0.0,0.0,0.0,0.0,0.0,0.0,0.0,0.0,0.0,0.0,0.0,0.0,0.0,0.0,0.0,0.0,0.0,0.0,0.0,0.0,0.0,0.0,0.0,0.0,0.0,0.0,0.0,0.0,0.0,0.0,3.0529,3.1314,3.1813,3.1813,3.2456,3.2993,3.322,3.2676,3.2456,3.2713,0.0,0.0,0.0,0.0,0.0,0.0,0.0,0.0,0.0,0.0,0.0,0.0,0.0,0.0,0.0,0.0,0.0,0.0,0.0,0.0,0.0,0.0,0.0,0.0,0.0,0.0,0.0,0.0,0.0,0.0,0.0,0.0,0.0,0.0,0.0,0.0,0.0,0.0,0.0,0.0,0.0,0.0,0.0,0.0,0.0,0.0,0.0,0.0,0.0,0.0,0.0,0.0,0.0,0.0,0.0,0.0,0.0,0.0,0.0,0.0,2.5339,0.0,0.0,0.0,0.0,0.0,0.0,0.0,0.0,0.0,0.0,0.0,0.0,0.0,0.0,0.0,0.0,0.0,0.0,0.0,0.0,0.0,0.0,0.0,0.0,0.0,0.0,0.0,0.0,0.0,0.0,0.0,0.0,0.0,0.0,0.0,0.0,0.0,0.0,0.0,0.0,0.0,3.1421,3.2135,3.2616,3.2616,3.2809,3.3006,3.3332,3.3255,3.3342,3.3615,3.2921,0.0,0.0,0.0,0.0,0.0,0.0,0.0,0.0,0.0,0.0,0.0,0.0,0.0,0.0,0.0,0.0,0.0,0.0,0.0,0.0,0.0,0.0,0.0,0.0,0.0,0.0,0.0,0.0,0.0,0.0,0.0,0.0,0.0,0.0,0.0,0.0,0.0,0.0,0.0,0.0,0.0,0.0,0.0,0.0,0.0,0.0,0.0,0.0,0.0,0.0,0.0,0.0,0.0,0.0,0.0,0.0,0.0,0.0,0.0,0.0,2.6581,0.0,0.0,0.0,0.0,0.0,0.0,0.0,0.0,0.0,0.0,0.0,0.0,0.0,0.0,0.0,0.0,0.0,0.0,0.0,0.0,0.0,0.0,0.0,0.0,0.0,0.0,0.0,0.0,0.0,0.0,0.0,0.0,0.0,0.0,0.0,0.0,0.0,0.0,0.0,0.0,3.2787,3.3283,3.3709,3.4117,3.4106,3.4235,3.4558,3.4728,3.4752,3.4723,3.4346,0.0,0.0,0.0,0.0,0.0,0.0,0.0,0.0,0.0,0.0,0.0,0.0,0.0,0.0,0.0,0.0,0.0,0.0,0.0,0.0,0.0,0.0,0.0,0.0,0.0,0.0,0.0,0.0,0.0,0.0,0.0,0.0,0.0,0.0,0.0,0.0,0.0,0.0,0.0,0.0,0.0,0.0,0.0,0.0,0.0,0.0,0.0,0.0,0.0,0.0,0.0,0.0,0.0,2.8633,2.9086,2.9792,2.9947,3.045,3.1093,2.9594,2.872,2.8314,2.8153,0.0,0.0,0.0,0.0,0.0,0.0,0.0,0.0,0.0,0.0,0.0,0.0,0.0,0.0,0.0,0.0,0.0,0.0,0.0,0.0,0.0,0.0,0.0,0.0,3.2027,3.1994,3.14,0.0,0.0,0.0,0.0,0.0,0.0,0.0,0.0,0.0,0.0,0.0,3.4289,3.4564,3.488,3.553,3.5522,3.5606,3.5908,3.6106,3.6122,3.5783,3.5781,3.5493,0.0,0.0,0.0,0.0,0.0,0.0,0.0,0.0,0.0,0.0,0.0,0.0,0.0,0.0,0.0,0.0,0.0,0.0,0.0,0.0,0.0,0.0,0.0,0.0,0.0,0.0,0.0,0.0,0.0,0.0,0.0,0.0,2.0773,2.1533,0.0,0.0,0.0,0.0,0.0,0.0,0.0,0.0,0.0,0.0,0.0,0.0,0.0,2.81,2.8864,2.9049,2.9576,3.0433,3.1198,3.1626,3.1763,3.2503,3.2936,3.3039,3.28,0.0,2.9221,2.92,0.0,0.0,0.0,0.0,0.0,0.0,0.0,0.0,0.0,0.0,0.0,0.0,0.0,0.0,0.0,0.0,0.0,0.0,0.0,0.0,0.0,0.0,3.222,3.2297,3.2334,3.273,0.0,3.2891,3.1641,3.164,3.1635,0.0,0.0,0.0,0.0,0.0,0.0,0.0,3.5494,3.5793,3.5959,3.5939,3.5927,3.5945,3.5957,3.6288,3.6424,3.6366,3.6742,3.6802,3.641,3.5856,0.0,0.0,0.0,0.0,0.0,0.0,0.0,0.0,0.0,0.0,0.0,0.0,0.0,0.0,0.0,0.0,0.0,0.0,0.0,0.0,0.0,0.0,0.0,0.0,0.0,0.0,0.0,0.0,0.0,2.124,2.1552,2.2426,2.2523,2.2874,0.0,0.0,0.0,0.0,0.0,0.0,0.0,0.0,0.0,2.8281,2.9141,3.0033,3.0909,3.095,3.1622,3.2947,3.3317,3.4018,3.4973,3.5363,3.5791,3.6279,3.6279,3.5313,3.3673,3.2156,3.1263,3.0819,0.0,0.0,0.0,0.0,3.0428,3.0414,3.0448,3.0662,0.0,3.094,0.0,0.0,0.0,0.0,0.0,0.0,0.0,0.0,0.0,0.0,3.4643,3.5097,3.5211,3.5401,3.614,3.5584,3.4889,0.0,3.4652,3.4574,3.4486,0.0,0.0,0.0,0.0,3.5984,3.6754,3.7054,3.7248,3.7537,3.7533,3.7521,3.7516,3.7774,3.7719,3.7264,3.7671,3.7646,3.7024,3.6671,3.6524,0.0,0.0,0.0,0.0,0.0,0.0,0.0,0.0,0.0,0.0,0.0,0.0,0.0,0.0,0.0,0.0,0.0,0.0,0.0,0.0,0.0,0.0,0.0,0.0,0.0,0.0,0.0,0.0,2.2133,2.2465,2.3322,2.3634,2.4101,0.0,0.0,0.0,0.0,0.0,0.0,2.8812,2.9638,3.0105,3.0161,3.1213,3.2187,3.3064,3.3278,3.4135,3.5597,3.5597,3.6279,3.7525,3.7525,3.7896,3.85,3.85,3.8129,3.7364,3.5139,3.4081,3.3837,3.3441,3.3388,3.35,3.3229,3.3197,3.3325,3.3417,3.3523,3.3655,3.3635,3.3726,3.3834,3.3767,0.0,0.0,0.0,0.0,3.4775,3.5382,3.6007,3.6651,3.7258,3.739,3.7447,3.7675,3.7732,3.7614,0.0,3.7077,3.6873,3.6416,0.0,0.0,0.0,0.0,3.7221,3.8005,3.8242,3.8529,3.8943,3.8915,3.8894,3.8892,3.9045,3.8877,3.8271,3.8582,3.8524,3.7882,3.7529,3.7438,3.7646,0.0,0.0,0.0,0.0,0.0,0.0,0.0,0.0,0.0,0.0,0.0,0.0,0.0,0.0,0.0,0.0,0.0,0.0,0.0,0.0,0.0,0.0,0.0,0.0,0.0,0.0,0.0,0.0,0.0,2.4238,2.5075,0.0,0.0,0.0,0.0,2.9299,2.9357,2.9742,3.0624,3.1486,3.1973,3.1977,3.3551,3.4837,3.5694,3.6532,3.7409,3.8305,3.8305,3.8344,3.8422,3.8422,3.8461,3.85,3.85,3.848,3.8363,3.7409,3.6476,3.5582,3.4758,3.4768,3.5181,3.4472,3.465,3.5277,3.5403,3.5917,3.6483,3.6421,3.6791,3.7242,3.7164,3.7144,0.0,0.0,3.7182,3.722,3.7258,3.7296,3.7353,3.739,3.739,3.7618,3.8472,3.8643,3.8376,0.0,3.737,3.7289,3.699,0.0,3.7106,3.7697,3.7991,3.8371,3.9111,3.9451,3.9566,3.9483,3.9458,3.9458,3.9477,3.9477,3.9458,3.9402,3.9566,3.9618,3.958,3.8956,3.8622,3.8622,3.7683,0.0,0.0,0.0,0.0,0.0,0.0,0.0,0.0,0.0,0.0,0.0,0.0,0.0,0.0,0.0,0.0,0.0,0.0,0.0,0.0,0.0,0.0,0.0,0.0,0.0,0.0,0.0,0.0,2.5913,2.7277,0.0,2.8544,2.9357,3.0239,3.1115,3.1174,3.1778,3.3161,3.4077,3.4798,3.5363,3.6512,3.7253,3.7564,3.7876,3.848,3.9337,3.9337,3.963,4.0175,4.0175,4.0175,4.0175,4.0175,4.0175,4.0156,3.9844,3.8858,3.7495,3.7094,3.7074,3.7219,3.6859,3.6922,3.7139,3.7185,3.7327,3.745,3.7348,3.7445,3.7623,3.7547,3.7528,3.7509,3.7411,3.7848,3.8284,3.8245,3.8622,3.902,3.902,3.902,3.9096,3.9418,3.9475,3.938,3.9077,3.902,3.8937,3.8649,3.8719,3.8855,3.8915,3.9142,3.9396,3.9651,3.9781,3.9781,3.9647,3.9647,3.958,3.9526,3.9502,3.9502,3.9502,3.9623,3.9693,3.9693,3.9542,3.9475,3.9475,3.8639,3.8201,0.0,0.0,0.0,0.0,0.0,0.0,0.0,0.0,0.0,0.0,0.0,0.0,0.0,0.0,0.0,0.0,0.0,0.0,0.0,0.0,0.0,0.0,0.0,0.0,0.0,0.0,2.6848,2.7686,2.9323,3.0375,3.0375,3.1408,3.244,3.3317,3.3648,3.4428,3.583,3.6454,3.7038,3.7623,3.848,3.8948,3.8948,3.924,3.9669,4.0234,4.0234,4.0545,4.111,4.111,4.111,4.111,4.111,4.111,4.111,4.111,4.0429,3.9331,3.896,3.896,3.9149,3.8801,3.883,3.9051,3.9051,3.8972,3.8816,3.8651,3.859,3.8537,3.8461,3.8422,3.8384,3.8305,3.8702,3.9157,3.9136,3.9513,3.9889,3.9889,3.9889,3.9889,3.9889,3.9889,3.9889,3.9889,3.9889,3.9826,3.967,3.9781,3.9804,3.9551,3.9735,3.9867,3.9781,3.9826,3.9867,3.9781,3.9781,3.9717,3.9647,3.9599,3.9599,3.9623,3.967,3.9717,3.9781,3.9848,3.9889,3.9889,3.938,3.9096,3.9096,0.0,0.0,0.0,0.0,0.0,0.0,0.0,0.0,0.0,0.0,0.0,0.0,0.0,0.0,0.0,0.0,0.0,0.0,0.0,0.0,0.0,0.0,0.0,2.6946,2.7706,2.8602,2.9474,3.1135,3.2231,3.2231,3.3746,3.5071,3.5928,3.6766,3.7623,3.85,3.8539,3.8558,3.8578,3.9396,3.9844,3.9844,4.0682,4.111,4.111,4.111,4.111,4.111,4.111,4.111,4.111,4.111,4.111,4.111,4.111,4.111,4.1013,4.0175,4.0283,4.0829,4.0091,4.0283,4.0907,4.0907,4.0818,4.0668,4.0469,4.0306,4.0196,4.0137,4.0057,3.9996,3.9996,3.9954,3.9911,3.9911,3.9911,3.9889,3.9889,3.9889,3.9908,3.9927,3.9927,3.9946,3.9965,3.9965,3.9946,3.9908,3.9889,3.9804,3.9551,3.9735,0.0,3.9551,3.9735,3.9889,3.9889,3.9889,3.9889,3.9889,3.9781,3.9762,3.9889,3.9781,3.9762,3.9889,3.9889,3.9889,3.9889,3.9889,3.9889,3.9889,0.0,0.0,0.0,0.0,0.0,0.0,0.0,0.0,0.0,0.0,0.0,0.0,0.0,0.0,0.0,0.0,0.0,0.0,0.0,0.0,0.0,0.0,2.8563,2.794,2.9143,3.0414,3.1271,3.3434,3.4856,3.4856,3.6415,3.7525,3.7779,3.8013,3.8519,3.9396,3.9435,3.9727,4.037,4.0623,4.074,4.074,4.0974,4.111,4.111,4.111,4.111,4.111,4.111,4.111,4.111,4.111,4.111,4.111,4.111,4.111,4.1091,4.0838,4.0864,4.1025,4.0831,4.0864,4.103,4.0935,4.0818,4.0668,4.0515,4.0377,4.0253,4.0196,4.0196,4.0215,4.0098,4.0057,4.0036,3.9994,3.9933,3.9889,3.9889,3.9889,4.006,4.0726,4.084,4.1029,4.1616,4.1711,4.1332,4.0097,3.9889,3.9867,3.9804,3.9848,0.0,3.9804,3.9848,3.9889,3.9889,3.9889,3.9889,3.9889,3.9867,3.9867,3.9889,3.9867,3.9867,3.9889,3.9889,3.9889,3.9889,3.9889,3.9848,0.0,0.0,0.0,0.0,0.0,0.0,0.0,0.0,0.0,0.0,0.0,0.0,0.0,0.0,0.0,0.0,0.0,0.0,0.0,0.0,0.0,0.0,2.9143,3.0234,3.0804,3.1758,3.2713,3.359,3.5636,3.6999,3.6999,3.8246,3.9045,3.9045,3.9376,3.9805,4.0312,4.0351,4.0584,4.1091,4.111,4.111,4.111,4.111,4.111,4.111,4.111,4.111,4.111,4.111,4.111,4.111,4.111,4.111,4.111,4.111,4.111,0.0,0.0,0.0,0.0,0.0,4.111,4.1085,4.1003,4.0907,4.0754,4.0629,4.0489,4.0381,4.0253,4.0482,4.073,4.0671,4.0898,4.1123,4.1062,4.1019,4.0975,4.0953,4.0953,4.1105,4.1598,4.1711,4.1844,4.2318,4.2412,0.0,4.1124,4.0953,4.0908,4.0797,4.0886,4.0908,4.0797,4.0886,4.0953,4.0953,4.0953,4.0953,4.0953,4.0908,0.0,0.0,0.0,4.0223,3.9908,3.9889,0.0,0.0,0.0,3.9867,3.9781,0.0,0.0,0.0,3.8534,3.8199,0.0,0.0,0.0,0.0,0.0,0.0,0.0,0.0,0.0,0.0,0.0,0.0,0.0,0.0,0.0,0.0,3.0546,3.2051,3.4408,3.4915,3.5324,3.6103,3.7642,3.8656,3.8656,3.9435,3.9941,3.9941,4.0662,4.111,4.111,0.0,0.0,0.0,0.0,4.111,4.111,4.111,4.111,4.111,4.111,4.111,4.111,4.1188,4.1247,4.1247,4.1344,4.1383,4.1383,4.1383,4.1383,4.1364,4.1266,4.1305,4.1383,4.1383,4.1383,4.1383,4.1383,0.0,0.0,4.1033,4.0891,4.0745,4.0614,4.1036,4.155,4.155,4.2082,4.2591,4.2547,4.2525,4.2481,4.2435,4.2412,4.2431,4.2545,4.2564,4.2583,4.2659,4.2678,4.2678,4.2678,4.2545,4.2323,4.2065,4.2252,4.2323,4.2083,4.2233,4.2412,4.2412,0.0,0.0,4.2412,4.23,4.2276,4.2389,4.1614,4.0858,4.0211,4.0173,4.0173,4.0173,4.0173,4.0173,4.0173,4.0173,4.0173,4.0154,3.9876,3.9781,0.0,0.0,0.0,0.0,0.0,0.0,0.0,0.0,0.0,0.0,0.0,0.0,0.0,0.0,0.0,3.0511,3.2421,3.4272,3.548,3.6863,3.7818,3.7974,3.8928,3.9552,3.9552,4.0351,4.0857,4.0857,4.0994,4.111,4.111,4.111,4.111,4.111,4.111,4.111,4.111,4.111,4.111,4.111,0.0,0.0,4.113,4.1773,4.2065,4.2104,4.2806,4.3117,4.3117,4.3117,4.3117,4.3059,4.2338,4.2494,4.3117,4.3117,4.3117,4.3117,4.3117,4.3027,4.2898,4.2763,4.2628,4.2492,4.2355,4.2431,0.0,4.2526,4.2601,4.2694,4.2654,4.2591,4.2503,4.2481,4.2435,4.2602,4.3303,4.3455,4.3644,4.4289,4.4421,4.4421,4.4421,4.3303,4.237,4.2323,4.2389,4.237,4.2323,4.237,4.2412,4.2412,4.2412,4.2412,4.2412,4.2389,4.237,4.2412,4.2238,4.2086,4.192,4.192,4.192,4.192,4.192,4.192,4.192,4.192,4.192,4.1882,4.0514,3.9889,0.0,0.0,0.0,0.0,0.0,0.0,0.0,0.0,0.0,0.0,0.0,2.791,0.0,0.0,3.1227,3.2484,3.4135,3.5713,3.7019,3.8324,3.9143,3.9143,3.9922,4.0448,4.0448,4.0838,4.111,4.111,4.111,4.111,4.111,4.111,4.111,4.111,4.111,4.1286,4.1695,4.1695,4.1929,4.2357,4.2357,4.2357,4.2357,4.2767,4.2961,4.2974,4.3403,4.3598,4.3598,4.3598,4.3858,4.4208,4.378,4.3604,4.3598,4.3598,4.3598,4.3598,4.3598,4.3557,4.3469,4.3352,4.3202,4.3085,4.294,4.312,4.3405,4.3405,4.369,4.3994,4.3973,4.389,4.3824,4.3779,4.3734,4.3824,4.4213,4.4308,4.4421,4.4819,4.4895,4.4895,4.4895,4.4213,4.3663,4.3663,4.3663,4.3663,4.3663,4.3663,4.3663,4.3663,4.3663,4.3663,4.3663,4.3663,4.3493,4.3076,4.3057,4.2848,4.2431,4.2412,4.2412,4.2412,4.2412,4.2412,4.2412,4.2412,4.2412,4.2393,4.1541,4.1162,0.0,0.0,0.0,0.0,0.0,0.0,0.0,0.0,2.7042,2.7229,2.8071,2.9194,3.0542,3.122,3.2282,3.4496,3.5577,3.6766,3.8519,3.9357,3.9864,4.0039,4.0662,4.111,4.111,4.111,4.111,4.111,4.111,4.111,4.111,4.111,4.1169,4.1325,4.1325,4.1734,4.2552,4.2552,4.2922,4.3598,4.3604,4.3604,4.3604,4.378,4.3838,4.3858,4.4033,4.4111,4.4111,4.4111,4.452,4.5144,4.5144,4.4715,4.4111,4.4111,4.4111,4.4111,4.4111,4.4111,4.4078,4.3957,4.3804,4.3664,4.3535,4.3847,4.4265,4.4265,4.4762,4.5297,4.5235,4.5213,4.5227,4.5289,4.528,4.5295,4.5374,4.5412,4.5412,4.5388,4.5388,4.5388,4.5388,4.5388,4.5274,4.4952,4.4895,4.4895,4.4895,4.4895,4.4895,4.4895,4.4895,4.4895,4.4895,4.4895,4.463,4.3966,4.3929,4.3625,4.2924,4.2905,4.2905,4.2905,4.2905,4.2905,4.2905,4.2905,4.2905,4.2905,4.2905,4.2716,2.4115,2.4785,0.0,2.5587,2.5605,2.5796,0.0,0.0,2.7229,2.7991,2.9427,3.0586,3.0776,3.2697,3.4589,3.5588,3.6493,3.7662,3.9415,3.9747,4.0097,4.0857,4.1033,4.111,4.111,4.111,4.111,4.111,4.111,4.111,4.111,4.111,4.1442,4.2143,4.2182,4.2591,4.3442,4.3442,4.35,4.3604,4.3604,4.359,4.3629,4.4409,4.476,4.4799,4.556,4.5903,4.5903,4.5903,4.5962,4.604,4.604,4.5981,4.5903,4.5903,4.5903,4.5903,4.5903,4.5903,4.5889,4.5745,4.5588,4.5404,4.5269,4.5189,4.5144,4.5144,4.522,4.5297,4.5297,4.5235,4.5382,4.6142,4.6287,4.643,4.7061,4.7213,4.7188,4.7138,4.7112,4.7112,4.7112,4.7112,4.662,4.5122,4.4895,4.4895,4.4895,4.4895,4.4895,4.4895,4.4895,4.4895,4.4895,4.4895,4.4857,4.4762,4.4762,4.4724,4.463,4.463,4.463,4.463,4.463,4.463,4.463,4.463,4.463,4.463,4.463,4.3815,2.5039,2.5329,0.0,0.0,2.6357,2.6578,2.7468,2.8431,2.9262,2.9665,3.1114,3.2467,3.2988,3.396,3.5135,0.0,3.7386,3.8394,3.9628,4.0232,4.0694,4.1067,4.1109,4.111,4.111,4.111,4.111,4.111,4.111,4.111,4.111,4.1584,4.1994,4.2299,4.2799,4.3481,4.4345,4.4358,4.4611,4.5098,4.5117,4.5109,4.5128,4.5499,4.5669,4.5676,4.6027,4.6196,4.6196,4.6196,4.6196,4.6196,4.6196,4.6507,4.6897,4.6391,4.6196,4.6196,4.6196,4.6196,4.6196,4.6138,4.5998,4.5956,4.6371,4.6399,4.6405,4.6906,4.6991,4.6935,4.6935,4.6814,4.68,4.7118,4.7171,4.722,4.7447,4.7498,4.7473,4.7422,4.7397,4.7397,4.7397,4.7397,4.715,4.6449,4.6354,4.6354,4.6354,4.6354,4.6354,4.6354,4.6354,4.6354,4.6354,4.6354,4.6354,4.6354,4.5918,4.5653,4.5653,4.516,4.4895,4.4895,4.4895,4.4895,4.4895,4.4895,4.4895,4.4914,4.5426,4.5274,2.5589,0.0,0.0,2.6747,2.7076,2.7546,2.8651,2.9859,3.0882,3.1418,3.27,3.3952,3.4587,3.4902,3.5619,3.7282,3.8081,3.8896,3.9992,4.0706,4.11,4.109,4.11,4.111,4.111,4.111,4.1097,4.1109,4.1097,4.1208,4.1422,4.2039,4.2565,4.3,4.3637,4.4384,4.5254,4.5261,4.5585,4.6189,4.6226,4.6231,4.6231,4.6211,4.6195,4.6196,4.6203,4.6196,4.6215,4.6449,4.6566,4.6585,4.6819,4.7306,4.7774,4.715,4.6917,4.6917,4.6917,4.6917,4.6917,4.6917,4.6803,4.6804,4.7386,4.7449,4.7478,4.813,4.8202,4.8105,4.8105,4.795,4.7853,4.8037,4.8094,4.8128,4.8194,4.8226,4.8182,4.8105,4.8079,4.8079,4.8079,4.8079,4.8079,4.8079,4.8079,4.7908,4.7453,4.7397,4.7397,4.7397,4.7397,4.7397,4.7397,4.7397,4.7397,4.7397,4.6847,4.6525,4.6525,4.5918,4.5596,4.5596,4.5596,4.5596,4.5596,4.5596,4.5596,4.5596,4.6241,4.6525,0.0,0.0,2.6864,2.6883,2.7531,2.8617,3.0341,3.0763,3.1285,3.2963,3.405,3.4674,3.4704,3.5389,3.6504,3.8199,3.8489,3.9094,4.0814,4.1072,4.1094,4.1094,4.11,4.111,0.0,4.111,4.1109,4.1109,4.1095,4.1442,4.2221,4.2299,4.3078,4.4773,4.4851,4.5274,4.6144,4.6164,4.6176,4.6206,4.6279,4.6303,4.6284,4.6231,4.6189,4.6196,4.6196,4.6196,4.6274,4.7111,4.7462,4.754,4.8397,4.8748,4.8768,4.8729,4.8729,4.8729,4.8729,4.8729,4.8729,4.8729,4.8593,4.8436,4.8455,4.8373,4.8266,4.8285,4.8202,4.8105,4.8105,4.795,4.8009,4.885,4.906,4.9247,4.9885,5.0032,4.9981,4.9849,4.9803,4.9803,4.9803,4.9803,4.9803,4.9803,4.9803,4.9235,4.7605,4.7397,4.7397,4.7397,4.7397,4.7397,4.7397,4.7397,4.7397,4.7397,4.7378,4.7359,4.7359,4.734,4.7321,4.7321,4.7321,4.7321,4.7321,4.7321,4.7321,4.7321,4.734,4.7359,2.63,0.0,2.7174,2.8282,2.9214,3.0166,3.1337,3.246,3.3445,3.4113,3.4924,3.5509,3.555,3.5795,3.6542,3.8223,3.8494,3.9118,4.0859,4.1108,4.1103,4.1092,4.1108,0.0,0.0,0.0,0.0,4.1095,4.1097,4.1461,4.226,4.2857,4.3695,4.4851,4.5462,4.5897,4.6203,4.6245,4.6275,4.6279,4.6292,4.6292,4.6303,4.6231,4.6527,4.7054,4.706,4.7384,4.7949,4.8241,4.8358,4.8397,4.869,4.9138,4.9605,4.9605,4.9956,5.0307,4.9196,4.8806,4.8806,4.8806,4.8752,4.8805,4.9331,4.9469,4.9557,5.0121,5.0188,5.0056,4.993,4.9777,4.9697,4.987,4.9901,4.9954,5.0149,5.0182,5.0133,4.9986,4.9978,4.9933,4.9925,4.9898,4.9898,4.9898,4.9898,4.969,4.9121,4.9045,4.9045,4.9045,4.9045,4.9045,4.9045,4.9045,4.9045,4.9045,4.8553,4.8249,4.8249,4.77,4.7397,4.7397,4.7397,4.7397,4.7397,4.7397,4.7397,4.7397,4.7984,4.8249,2.6747,2.733,2.8126,2.9525,3.0529,3.1475,3.2662,3.3757,3.4646,3.5056,3.5539,3.5924,3.5988,3.6003,3.6557,3.8256,3.8534,3.914,4.0853,4.1093,4.1094,4.1092,4.1103,4.1101,0.0,0.0,0.0,4.1095,4.137,4.189,4.2728,4.3598,4.4455,4.5338,4.5916,4.6195,4.6195,4.6275,4.6308,4.6292,4.6296,4.6292,4.6279,4.6543,4.6981,4.7528,4.7827,4.8275,4.8814,4.9145,4.9243,4.9255,4.9566,5.0014,5.0463,5.0463,5.0813,5.1145,5.0073,4.9683,4.9683,4.9683,4.9683,4.9781,5.0307,5.0463,5.0579,5.1145,5.1191,5.1062,5.0945,5.0797,5.0625,5.0442,5.0418,5.0374,5.0236,5.0188,5.0163,5.0031,5.0005,4.9978,4.9906,4.9898,4.9898,4.9898,4.9898,4.9898,4.9898,4.9898,4.9898,4.9898,4.9898,4.9898,4.9898,4.9898,4.9898,4.9898,4.9405,4.9121,4.9121,4.859,4.8287,4.8287,4.8287,4.8287,4.8287,4.8287,4.8287,4.8306,4.8856,4.9121,2.7,2.8223,2.968,3.0554,3.1456,3.2551,3.4166,3.4568,3.4821,3.5602,3.5773,3.5807,0.0,0.0,3.6501,3.8258,3.8573,3.9178,4.0795,4.1064,4.1091,0.0,0.0,0.0,0.0,0.0,0.0,4.1168,0.0,4.2689,4.3539,4.4423,4.5299,4.6176,4.6196,4.6195,4.6206,4.6279,4.6292,4.63,4.63,4.6288,4.6284,4.7123,4.7546,4.7684,4.8503,4.8893,4.899,4.9829,5.0127,5.0151,5.0989,5.13,5.13,5.13,5.13,5.13,5.13,5.13,5.13,5.13,5.13,5.13,5.13,5.13,5.13,5.13,5.1211,5.1105,5.1105,5.0945,5.0778,5.0625,5.0587,5.0546,5.0259,5.0207,5.0182,5.0031,5.0005,4.9959,4.9925,4.9898,4.9898,4.9898,4.9898,4.9898,4.9898,4.9898,4.9898,4.9898,4.9898,4.9898,4.9898,4.9898,4.9898,4.9898,4.9898,4.9898,4.9898,4.9898,4.9898,4.9898,4.9898,4.9898,4.9898,4.9898,4.9898,4.9898,4.9898,4.9898,2.8411,2.9544,3.0574,3.1448,3.2776,3.3813,3.3677,3.4105,3.4418,3.4038,3.3965,3.4174,0.0,0.0,0.0,3.734,3.818,0.0,3.9995,4.0684,0.0,4.1091,0.0,4.1097,4.1097,4.11,0.0,0.0,4.2188,4.2689,4.3539,4.4423,4.5299,4.6176,4.6209,4.6206,4.6206,4.6269,4.6296,4.63,4.63,4.6605,4.7177,4.7401,4.8215,4.9457,4.9627,5.0049,5.0686,5.0906,5.0969,5.0989,5.1203,5.13,5.13,5.13,5.13,5.13,5.13,5.13,5.13,5.13,5.13,5.13,5.13,5.13,5.13,5.13,5.1284,5.123,5.1128,5.1062,5.0951,5.0681,5.0587,5.0546,5.0306,5.0278,5.0231,5.0108,4.9986,4.9925,4.9879,4.9898,4.9898,4.9898,4.9898,4.9898,4.9898,4.9898,4.9898,4.9898,4.9898,4.9898,4.9898,4.9898,4.9898,4.9898,4.9898,4.9898,4.9898,4.9898,4.9898,4.9898,4.9898,4.9898,4.9898,4.9898,4.9898,4.9898,4.9898,4.9898,2.9499,3.0613,3.1564,3.2788,3.3546,3.3961,3.3898,3.3918,3.3842,3.3439,3.3332,0.0,0.0,0.0,0.0,0.0,0.0,0.0,3.9683,4.0542,4.1097,0.0,4.1094,0.0,4.1094,4.1097,4.1456,0.0,4.2671,4.3251,4.4122,4.5002,4.5685,4.6176,4.624,4.6249,4.6245,4.6277,4.63,4.63,4.669,4.7092,4.7523,4.8298,4.9171,5.0126,0.0,5.0855,5.1343,5.1303,5.1308,5.13,5.13,5.13,5.13,5.13,5.13,5.13,5.13,5.13,5.13,5.13,5.13,5.13,5.13,5.13,5.13,5.13,5.13,5.1284,5.1211,5.1201,5.1139,5.0879,5.0816,5.075,5.0485,5.0418,5.031,5.0108,4.9978,4.9898,4.9898,4.9898,4.9898,4.9898,4.9898,4.9898,4.9898,4.9898,4.9898,4.9898,4.9898,4.9898,4.9898,4.9898,4.9898,4.9898,4.9898,4.9898,4.9898,4.9898,4.9898,4.9898,4.9898,4.9898,4.9898,4.9898,4.9898,4.9898,4.9898,4.9898,3.0379,3.1506,3.2555,3.4109,3.3973,3.3631,3.4289,3.3751,3.3108,3.3067,0.0,3.3317,3.4195,3.4452,3.5057,3.6696,0.0,3.8843,3.9546,4.0483,4.1097,4.1091,4.1092,4.1094,4.1108,4.1205,4.1634,4.2513,4.3322,4.4114,4.4868,4.5729,4.6198,4.6202,4.6254,4.6295,4.6287,4.6287,4.6287,4.63,4.7178,4.7635,4.7727,4.9366,5.0165,5.0308,5.1005,5.1336,5.1394,5.1336,5.1296,5.13,5.13,5.13,5.13,5.13,5.13,5.13,5.13,5.13,5.13,5.13,5.13,5.13,5.13,5.13,5.13,5.13,5.13,5.13,5.13,5.13,5.1276,5.1128,5.1105,5.1011,5.0698,5.0567,5.0402,5.0063,4.9933,4.9898,4.9898,4.9898,4.9898,4.9898,4.9898,4.9898,4.9898,4.9898,4.9898,4.9898,4.9898,4.9898,4.9898,4.9898,4.9898,4.9898,4.9898,4.9898,4.9898,4.9898,4.9898,4.9898,4.9898,4.9898,4.9898,4.9898,4.9898,4.9898,4.9898,4.9898,3.1084,3.2419,3.3293,3.4264,3.44,3.4156,3.3647,3.2856,0.0,0.0,0.0,3.1526,3.238,3.3144,3.3964,3.4979,0.0,0.0,0.0,0.0,4.1097,0.0,0.0,0.0,0.0,0.0,0.0,0.0,4.4277,4.4804,4.4894,4.5735,4.6207,4.6191,4.6211,4.6211,4.6229,4.6229,4.6245,4.63,4.7178,4.7932,4.8621,4.9625,5.0489,5.1177,5.1252,0.0,5.1394,5.1323,5.13,5.13,5.13,5.13,5.13,5.13,5.13,5.13,5.13,5.13,5.13,5.13,5.13,5.13,5.13,5.13,5.13,5.13,5.13,5.13,5.13,5.13,5.1276,5.1128,5.1105,5.1037,5.0809,5.0586,5.0339,5.0114,4.9959,4.9898,4.9898,4.9898,4.9898,4.9898,4.9898,4.9898,4.9898,4.9898,4.9898,4.9898,4.9898,4.9898,4.9898,4.9898,4.9898,4.9898,4.9898,4.9898,4.9898,4.9898,4.9898,4.9898,4.9898,4.9898,4.9898,4.9898,4.9898,4.9898,4.9898,4.9898,3.1285,3.2322,3.2827,3.3662,3.3526,3.3114,3.2752,0.0,0.0,0.0,0.0,3.1067,3.1934,0.0,0.0,0.0,0.0,0.0,0.0,0.0,0.0,0.0,0.0,0.0,0.0,0.0,0.0,4.3631,4.4505,4.519,4.5605,4.5996,4.6208,4.62,4.6163,4.6165,4.6204,4.6204,4.6229,4.6262,4.7588,4.8434,4.8835,5.0146,5.0965,5.1405,5.133,5.133,5.1343,5.1303,5.1289,5.13,5.13,5.13,5.13,5.13,5.13,5.13,5.13,5.13,5.13,5.13,5.13,5.13,5.13,5.13,5.13,5.13,5.13,5.13,5.13,5.13,5.1292,5.122,5.115,5.1062,5.0926,5.0692,5.0448,5.0225,5.012,5.0012,4.9925,4.9898,4.9898,4.9898,4.9898,4.9898,4.9898,4.9898,4.9898,4.9898,4.9898,4.9898,4.9898,4.9898,4.9898,4.9898,4.9898,4.9898,4.9898,4.9898,4.9898,4.9898,4.9898,4.9898,4.9898,4.9898,4.9898,4.9898,4.9898,4.9898,3.1059,3.1856,3.2205,3.3087,3.2633,3.2032,3.2079,3.1427,0.0,0.0,3.0801,3.1016,3.1699,0.0,0.0,0.0,0.0,0.0,0.0,0.0,0.0,0.0,0.0,0.0,0.0,0.0,0.0,4.3645,4.468,4.5587,4.6264,4.6234,4.6202,4.621,4.6136,4.6136,4.6191,4.6191,4.6189,4.6229,4.7949,4.8783,4.8849,5.0528,5.1336,5.1388,5.131,5.131,5.1291,5.131,5.1296,5.13,5.13,5.13,5.13,5.13,5.13,5.13,5.13,5.13,5.13,5.13,5.13,5.13,5.13,5.13,5.13,5.13,5.13,5.13,5.13,5.13,5.13,5.13,5.122,5.1128,5.1017,5.0825,5.0605,5.0385,5.0291,5.0169,4.9986,4.9959,4.9933,4.9925,4.9898,4.9898,4.9898,4.9898,4.9898,4.9898,4.9898,4.9898,4.9898,4.9898,4.9898,4.9898,4.9898,4.9898,4.9898,4.9898,4.9898,4.9898,4.9898,4.9898,4.9898,4.9898,4.9898,4.9898,4.9898,4.9898,3.0321,3.1409,3.2213,3.3076,3.2635,3.202,3.2084,0.0,0.0,3.0794,3.0801,3.0821,3.0899,0.0,0.0,0.0,0.0,3.7692,0.0,0.0,0.0,0.0,0.0,0.0,0.0,0.0,0.0,4.3684,4.5246,4.6222,4.6303,4.6245,4.6201,4.6209,4.6135,4.6096,4.6112,4.6112,4.6142,4.6228,4.7907,4.8708,4.8777,5.0515,5.1297,5.1317,5.1296,5.1296,0.0,5.1289,5.13,5.13,5.13,5.13,5.13,5.13,5.13,5.13,5.13,5.13,5.13,5.13,5.13,5.13,5.13,5.13,5.13,5.13,5.13,5.13,5.13,5.13,5.13,5.13,5.1292,5.123,5.1043,5.0923,5.0797,5.0528,5.0425,5.0336,5.0212,5.0163,5.0114,4.9925,4.9898,4.9898,4.9898,4.9898,4.9898,4.9898,4.9898,4.9898,4.9898,4.9898,4.9898,4.9898,4.9898,4.9898,4.9898,4.9898,4.9898,4.9898,4.9898,4.9898,4.9898,4.9898,4.9898,4.9898,4.9898,4.9898,2.9454,3.0199,3.0685,3.1534,3.1501,3.129,3.1317,0.0,3.0794,3.0796,3.0801,3.0801,3.0801,3.2226,0.0,0.0,0.0,0.0,0.0,0.0,0.0,0.0,0.0,0.0,0.0,0.0,4.4133,4.5187,4.5909,4.63,4.63,4.624,4.6195,4.6196,4.6138,4.6074,4.6046,4.6046,4.6068,4.6162,4.7844,4.8658,4.8765,5.0508,5.1301,5.1297,5.1333,5.1349,0.0,5.1296,5.1296,5.13,5.13,5.13,5.13,5.13,5.13,5.13,5.13,5.13,5.13,5.13,5.13,5.13,5.13,5.13,5.13,5.13,5.13,5.13,5.13,5.13,5.13,5.13,5.13,5.1284,5.1211,5.1105,5.0965,5.0764,5.0643,5.0546,5.0358,5.0313,5.0287,5.0114,5.0063,5.0038,4.9925,4.9898,4.9898,4.9898,4.9898,4.9898,4.9898,4.9898,4.9898,4.9898,4.9898,4.9898,4.9898,4.9898,4.9898,4.9898,4.9898,4.9898,4.9898,4.9898,4.9898,4.9898,4.9898,4.9898,2.8332,2.9077,2.9633,3.0194,3.058,3.0808,0.0,0.0,3.0804,3.0799,3.0801,3.0801,3.0801,3.2226,3.3398,3.3398,0.0,3.7301,3.8436,0.0,0.0,0.0,0.0,4.1108,0.0,4.2669,4.4426,4.6163,4.63,4.63,4.63,4.6269,4.622,4.6203,4.6138,4.6075,4.5997,4.5997,4.6018,4.6088,4.7798,4.862,4.8728,5.0496,5.1308,5.1304,5.1343,5.1333,0.0,5.1303,5.1296,5.13,5.13,5.13,5.13,5.13,5.13,5.13,5.13,5.13,5.13,5.13,5.13,5.13,5.13,5.13,5.13,5.13,5.13,5.13,5.13,5.13,5.13,5.13,5.13,5.1292,5.1248,5.1161,5.1049,5.0928,5.0819,5.07,5.0527,5.0486,5.0445,5.0287,5.0264,5.0193,5.0012,4.9986,4.9978,4.9925,4.9898,4.9898,4.9898,4.9898,4.9898,4.9898,4.9898,4.9898,4.9898,4.9898,4.9898,4.9898,4.9898,5.0031,5.0277,5.0277,5.041,5.0637,5.0637,5.0637,2.6918,2.8194,2.9508,2.9515,3.0154,3.0793,0.0,0.0,3.0804,3.0799,3.0801,3.0801,3.0801,3.2226,3.3398,3.3398,3.4878,0.0,3.8355,0.0,0.0,0.0,0.0,4.1108,4.1108,4.2669,4.4426,4.6163,4.63,0.0,4.63,4.63,4.626,4.6203,4.6138,4.6075,4.5997,4.5997,4.5997,4.6026,4.7764,4.8594,4.8665,5.0469,5.131,5.1308,5.1304,5.1299,0.0,5.1303,5.13,5.13,5.13,5.13,5.13,5.13,5.13,5.13,5.13,5.13,5.13,5.13,5.13,5.13,5.13,5.13,5.13,5.13,5.13,5.13,5.13,5.13,5.13,5.13,5.13,5.1256,5.1128,5.1105,5.1069,5.0937,5.0906,5.0858,5.072,5.0701,5.0625,5.0425,5.0404,5.0358,5.0212,5.0188,5.0114,4.9906,4.9898,4.9898,4.9898,4.9898,4.9898,4.9898,4.9898,4.9898,4.9898,4.9898,4.9898,4.9898,4.9898,5.0315,5.1206,5.1206,5.1604,5.2381,5.2381,5.2381,2.7472,2.8201,2.8891,3.0092,3.0606,3.0807,3.0799,0.0,3.0796,3.0799,3.0801,3.0801,3.0801,3.2226,3.3398,3.3398,3.4859,0.0,0.0,0.0,0.0,0.0,4.1108,4.1576,0.0,0.0,4.4426,4.6163,4.63,4.63,4.63,4.63,4.6269,4.6195,4.6183,4.6138,4.6075,4.6017,4.5997,4.6016,4.7764,4.8602,4.8652,5.0463,5.1302,5.1307,5.1347,5.1335,5.1299,5.1302,5.1297,5.13,5.13,5.13,5.13,5.13,5.13,5.13,5.13,5.13,5.13,5.13,5.13,5.13,5.13,5.13,5.13,5.13,5.13,5.13,5.13,5.13,5.13,5.13,5.13,5.1292,5.1248,5.1161,5.1093,5.1043,5.0961,5.089,5.0841,5.0841,5.0771,5.0625,5.0606,5.0527,5.0358,5.0336,5.0268,5.0114,5.0114,5.0038,4.9906,4.9898,4.9898,4.9898,4.9898,4.9898,4.9898,5.0467,5.0789,5.0789,5.1338,5.1736,5.2021,5.2021,5.2153,5.24,5.24,5.2722,0.0,2.7713,2.8463,2.9578,3.0325,0.0,0.0,0.0,3.0801,3.0801,3.0801,3.0801,3.0801,3.2226,3.3398,3.3398,3.5135,3.6989,0.0,0.0,0.0,0.0,0.0,0.0,0.0,4.3704,4.4426,4.6163,4.63,4.63,4.63,4.63,4.6277,4.624,4.6215,4.6176,4.6093,4.6066,4.6017,4.6016,4.7764,4.8599,4.8658,5.046,5.1303,5.1297,5.1374,5.1386,0.0,5.1312,5.1302,5.1291,5.1308,5.13,5.13,5.13,5.13,5.13,5.13,5.13,5.13,5.13,5.13,5.13,5.13,5.13,5.13,5.13,5.13,5.13,5.13,5.13,5.13,5.13,5.13,5.1292,5.1276,5.1171,5.1093,5.1069,5.0976,5.0906,5.0906,5.0906,5.0874,5.0791,5.0773,5.07,5.0527,5.0507,5.0445,5.0287,5.0287,5.0193,5.0012,4.9933,4.9898,4.9898,4.9898,5.005,5.0372,5.0921,5.1357,5.1661,5.2153,5.257,5.2892,5.3215,5.3347,5.3347,5.3347,5.3631,0.0,0.0,0.0,0.0,0.0,0.0,0.0,0.0,0.0,0.0,3.0801,3.0821,3.088,3.2265,3.3417,3.3476,3.5623,3.7594,0.0,3.9351,0.0,0.0,4.1108,0.0,4.343,4.3665,4.4406,4.6085,4.6261,4.63,4.63,4.63,4.63,4.63,4.624,4.6164,4.6111,4.6102,4.6075,4.6026,4.7764,4.8599,4.8658,5.046,5.13,0.0,5.1366,5.1404,0.0,5.133,5.1303,5.1299,5.131,5.13,5.13,5.13,5.13,5.13,5.13,5.13,5.13,5.13,5.13,5.13,5.13,5.13,5.13,5.13,5.13,5.13,5.13,5.13,5.13,5.13,5.13,5.1292,5.122,5.115,5.1093,5.1017,5.0947,5.0906,5.0906,5.0906,5.0906,5.0906,5.0906,5.0858,5.0738,5.072,5.0644,5.0446,5.0425,5.038,5.0236,5.0038,4.9925,4.9898,4.9955,5.0353,5.1187,5.1319,5.1736,5.2494,5.2551,5.2987,5.3783,5.4541,5.4901,5.4901,5.4901,5.4901,2.5707,0.0,2.8437,2.9123,3.004,0.0,0.0,0.0,0.0,0.0,0.0,3.0997,3.166,3.2675,3.3612,3.4295,3.6033,3.7594,3.8475,0.0,0.0,4.1088,4.1108,4.1518,4.2591,4.3313,4.4153,4.5226,4.5929,4.63,4.63,4.63,4.63,4.63,4.6277,4.624,4.6189,4.6127,4.6093,4.6095,4.7786,4.8599,4.8658,5.046,5.13,5.1308,5.1362,5.1396,5.1405,5.1387,5.1357,5.1299,5.1308,5.1304,5.13,5.13,5.13,5.13,5.13,5.13,5.13,5.13,5.13,5.13,5.13,5.13,5.13,5.13,5.13,5.13,5.13,5.13,5.13,5.13,5.13,5.13,5.1284,5.123,5.115,5.1093,5.1017,5.0947,5.0906,5.0906,5.0906,5.0906,5.0906,5.089,5.0858,5.0858,5.0808,5.0644,5.0625,5.0547,5.038,5.0217,5.0063,4.9925,5.0523,5.0997,5.1206,5.2438,5.3196,5.3385,5.401,5.4408,5.4617,5.4806,5.4901,5.4901,5.4901,5.4901,2.5697,2.6962,2.8401,2.8889,2.9904,3.0801,0.0,0.0,0.0,0.0,0.0,0.0,3.1934,3.2812,3.3827,3.5096,3.6755,0.0,0.0,0.0,0.0,4.1108,4.1108,4.1596,0.0,4.3411,4.4231,4.55,4.6027,4.63,4.63,4.63,4.63,4.63,4.63,4.6264,4.6209,4.6164,4.6107,4.6085,4.7826,4.8621,4.8658,5.0442,5.1265,5.13,5.138,5.1394,5.1396,5.1403,5.1386,5.1335,5.1312,5.1308,5.1297,5.1289,5.13,5.13,5.13,5.13,5.13,5.13,5.13,5.13,5.13,5.13,5.13,5.13,5.13,5.13,5.13,5.13,5.13,5.13,5.13,5.13,5.13,5.1248,5.1181,5.115,5.1069,5.099,5.0947,5.0921,5.0906,5.0906,5.0906,5.0906,5.0906,5.0906,5.0874,5.0808,5.0791,5.0718,5.0547,5.038,5.0217,5.0038,5.0768,5.1376,5.1755,5.3006,5.3878,5.4238,5.4674,5.4901,5.4901,5.4901,5.4901,5.4901,5.4901,5.4901,2.5703,2.6889,2.8127,2.8266,2.9476,3.0645,0.0,0.0,0.0,0.0,0.0,0.0,0.0,0.0,0.0,0.0,0.0,0.0,4.0873,4.1108,4.1108,4.1108,4.1108,0.0,4.3157,4.3548,4.4309,4.5792,4.6144,4.63,4.63,4.63,4.63,4.63,4.63,4.626,4.6209,4.6189,4.6144,4.6056,4.7826,4.8672,4.8669,5.0413,5.1239,5.13,0.0,0.0,5.1398,5.1398,5.1403,5.1386,5.1349,5.1303,5.1294,5.1303,5.13,5.13,5.13,5.13,5.13,5.13,5.13,5.13,5.13,5.13,5.13,5.13,5.13,5.13,5.13,5.13,5.13,5.13,5.13,5.13,5.13,5.1248,5.122,5.1191,5.1105,5.1017,5.1004,5.0947,5.0921,5.0906,5.0906,5.0921,5.0906,5.0906,5.0906,5.0906,5.0906,5.0858,5.0738,5.0663,5.0572,5.045,5.1038,5.1812,5.2741,5.3499,5.42,5.4901,5.4901,5.4901,5.4901,5.4901,5.4901,5.4901,5.4901,5.4901,2.5702,2.6424,2.7389,2.8121,2.9054,2.9962,0.0,0.0,0.0,0.0,0.0,0.0,0.0,0.0,0.0,0.0,0.0,3.9956,0.0,0.0,4.1108,4.1108,0.0,4.1205,4.1459,4.2825,4.3801,4.4075,4.546,4.63,4.63,4.63,4.63,4.63,4.63,4.6269,4.6201,4.6196,4.6196,4.6183,4.7835,4.8632,4.874,5.0422,5.1239,5.13,0.0,5.1391,5.1394,5.1398,5.1394,5.1405,5.1382,5.1343,5.1294,5.1303,5.13,5.13,5.13,5.13,5.13,5.13,5.13,5.13,5.13,5.13,5.13,5.13,5.13,5.13,5.13,5.13,5.13,5.13,5.13,5.13,5.13,5.1292,5.1276,5.122,5.1139,5.1069,5.1004,5.099,5.0981,5.0906,5.0952,5.0961,5.0906,5.0906,5.0906,5.0906,5.0906,5.089,5.0874,5.1411,5.1682,5.1472,5.1954,5.2911,5.4446,5.4636,5.4769,5.4901,5.4901,5.4901,5.4901,5.4901,5.4901,5.4901,5.4901,5.4901,2.5694,2.5996,2.661,2.7969,2.8961,2.9806,0.0,0.0,0.0,0.0,0.0,0.0,0.0,0.0,0.0,0.0,0.0,4.0639,4.103,4.1108,4.1108,0.0,0.0,4.1283,4.1752,4.2533,4.3196,4.3665,4.4875,4.5597,4.5597,4.6046,4.63,4.63,4.63,4.6296,4.6249,4.622,4.6203,4.6203,4.7435,4.826,4.8739,4.9946,5.0791,5.13,0.0,5.1375,5.1394,5.1394,5.1402,5.1394,5.1406,5.1381,5.1359,5.1317,5.13,5.13,5.13,5.13,5.13,5.13,5.13,5.13,5.13,5.13,5.13,5.13,5.13,5.13,5.13,5.13,5.13,5.13,5.13,5.13,5.13,5.13,5.1292,5.1256,5.1211,5.1128,5.1069,5.103,5.0976,5.0906,5.0937,5.0917,5.0906,5.0906,5.0906,5.0906,5.0906,5.0906,5.0906,5.1564,5.2259,5.2853,5.3003,5.365,5.4844,5.4901,5.4901,5.4901,5.4901,5.4901,5.4901,5.4901,5.4901,5.4901,5.4901,5.4901,2.5673,2.5681,2.607,2.7616,0.0,0.0,0.0,0.0,0.0,0.0,0.0,0.0,0.0,0.0,0.0,3.8512,4.0132,4.1108,4.1108,4.1108,4.1108,4.1108,4.1108,4.1361,4.2025,4.2279,4.2689,4.3352,4.4192,4.4777,4.4992,4.5636,4.6085,4.628,4.63,4.63,4.63,4.6245,4.6226,4.6222,4.7086,4.7905,4.8747,4.9556,5.0438,5.1316,5.1316,5.1349,5.1394,5.1394,5.1394,5.1398,5.14,5.1386,5.1369,5.1317,5.13,5.13,5.13,5.13,5.13,5.13,5.13,5.13,5.13,5.13,5.13,5.13,5.13,5.13,5.13,5.13,5.13,5.13,5.13,5.13,5.13,5.13,5.13,5.13,5.1248,5.1171,5.1117,5.1069,5.1017,5.0921,5.0937,5.0937,5.0906,5.0906,5.0906,5.0906,5.0906,5.108,5.1467,5.2144,5.3023,5.4199,5.4106,5.4257,5.4863,5.4901,5.4901,5.4901,5.4901,5.4901,5.4901,5.4901,5.4901,5.4901,5.4901,5.4901,2.5604,2.5654,2.5916,2.6852,0.0,0.0,0.0,0.0,0.0,0.0,0.0,0.0,0.0,0.0,3.8629,3.9566,4.0483,4.1108,4.1108,0.0,4.1108,4.1108,4.1108,4.1127,4.1186,4.1927,4.2435,4.2494,4.3294,4.4153,4.4953,4.507,4.546,4.6261,4.63,4.63,4.63,4.63,4.6296,4.6296,4.7047,4.7885,4.8827,4.9639,5.0497,5.1388,5.1388,5.1411,5.1394,5.1394,5.1394,5.1398,5.14,5.1363,5.1318,5.1303,5.13,5.13,5.13,5.13,5.13,5.13,5.13,5.13,5.13,5.13,5.13,5.13,5.13,5.13,5.13,5.13,5.13,5.13,5.13,5.13,5.13,5.13,5.13,5.13,5.1248,5.1171,5.1117,5.115,5.1117,5.0937,5.1004,5.1043,5.0921,5.0906,5.0906,5.0906,5.0906,5.1563,5.3169,5.3762,5.443,5.5327,5.5045,5.4844,5.4901,5.4901,5.4901,5.4901,5.4901,5.4901,5.4901,5.4901,5.4901,5.4901,5.4901,5.4901,2.56,2.5659,2.5918,0.0,0.0,0.0,0.0,0.0,0.0,0.0,0.0,0.0,0.0,0.0,3.9449,3.9741,4.0522,4.1108,4.1108,4.1108,4.1108,4.1108,4.1108,4.1108,4.1108,4.14,4.1596,4.1596,4.2396,4.304,4.3372,4.4406,4.5148,4.548,4.6027,4.63,4.63,4.63,4.63,4.63,4.6577,4.7167,4.8014,4.886,4.9744,5.0614,5.116,5.1391,5.1394,5.1394,5.1394,5.1398,5.1406,5.1381,5.1363,5.1317,5.13,5.13,5.13,5.13,5.13,5.13,5.13,5.13,5.13,5.13,5.13,5.13,5.13,5.13,5.13,5.13,5.13,5.13,5.13,5.13,5.13,5.13,5.13,5.13,5.1284,5.1239,5.1171,5.115,5.1105,5.0976,5.1004,5.1004,5.0921,5.0952,5.0952,5.0906,5.1389,5.2182,5.3401,5.4053,5.4696,5.5446,5.5121,5.4901,5.4901,5.4901,5.4901,5.4901,5.4901,5.4901,5.4901,5.4901,5.4901,5.4901,5.4901,5.4901,2.5609,2.5644,2.584,0.0,0.0,0.0,0.0,0.0,0.0,0.0,0.0,0.0,0.0,0.0,0.0,0.0,4.0717,4.1108,4.1108,4.1108,4.1108,4.1108,4.1108,4.1108,4.1108,4.1108,4.1108,4.1108,4.1654,4.2103,4.2396,4.3528,4.4426,4.4972,4.5578,4.6027,4.63,4.63,4.63,4.63,4.63,4.6722,4.7562,4.8401,4.9279,5.0143,5.1015,5.1401,5.1394,5.1394,5.1394,5.1402,5.1406,5.1398,5.1394,5.1323,5.13,5.13,5.13,5.13,5.13,5.13,5.13,5.13,5.13,5.13,5.13,5.13,5.13,5.13,5.13,5.13,5.13,5.13,5.13,5.13,5.13,5.13,5.13,5.13,5.13,5.1284,5.122,5.1171,5.1128,5.1017,5.1017,5.1004,5.0952,5.0947,5.1063,5.1293,5.2086,5.2956,5.3846,5.4534,5.5089,5.5466,5.5176,5.499,5.4901,5.4901,5.4901,5.4901,5.4901,5.4901,5.4901,5.4901,5.4901,5.4901,5.4901,5.4901,2.5609,2.5644,0.0,0.0,0.0,0.0,0.0,0.0,0.0,0.0,0.0,0.0,0.0,0.0,0.0,4.0952,4.1108,4.1108,4.1108,4.1108,4.1108,4.1108,4.1108,4.1108,4.1108,4.1108,4.1108,4.1108,4.1108,4.1479,4.2337,4.2396,4.3196,4.4914,4.4992,4.5402,4.628,4.63,4.63,4.63,4.63,4.6749,4.7608,4.8427,4.9267,5.0145,5.1004,5.1394,5.1394,5.1394,5.1394,5.1402,5.1406,5.1398,5.1394,5.1323,5.13,5.13,5.13,5.13,5.13,5.13,5.13,5.13,5.13,5.13,5.13,5.13,5.13,5.13,5.13,5.13,5.13,5.13,5.13,5.13,5.13,5.13,5.13,5.13,5.13,5.1284,5.122,5.1248,5.123,5.103,5.1056,5.1081,5.1004,5.0932,5.1235,5.2105,5.2975,5.3846,5.4735,5.5422,5.5724,5.5504,5.5314,5.5121,5.4901,5.4901,5.4901,5.4901,5.4901,5.4901,5.4901,5.4901,5.4901,5.4901,5.4901,5.4901,2.5601,2.5644,0.0,0.0,0.0,0.0,0.0,0.0,0.0,0.0,0.0,0.0,0.0,0.0,0.0,4.1049,4.1108,4.1108,4.1108,4.1108,4.1108,4.1108,4.1108,4.1108,4.1108,4.1108,4.1108,4.1108,4.1108,4.1205,4.1479,4.2064,4.265,4.3157,4.4367,4.5129,4.5382,4.5987,4.63,4.63,4.63,4.6436,4.671,4.7569,4.8408,4.9228,5.0106,5.0828,5.1394,5.1394,5.1394,5.1398,5.1404,5.1405,5.1396,5.1318,5.1297,5.13,5.13,5.13,5.13,5.13,5.13,5.13,5.13,5.13,5.13,5.13,5.13,5.13,5.13,5.13,5.13,5.13,5.13,5.13,5.13,5.13,5.13,5.13,5.13,5.1292,5.1265,5.1248,5.122,5.115,5.1117,5.1093,5.1081,5.0961,5.125,5.2162,5.3007,5.3846,5.4735,5.5513,5.5827,5.5527,5.5437,5.5255,5.4901,5.4901,5.4901,5.4901,5.4901,5.4901,5.4901,5.4901,5.4901,5.4901,5.4901,5.4901,2.5632,0.0,0.0,0.0,0.0,0.0,0.0,0.0,0.0,0.0,0.0,0.0,0.0,0.0,0.0,4.1108,4.1108,4.1108,4.1108,4.1108,4.1108,4.1108,4.1108,4.1108,4.1108,4.1108,4.1108,4.1108,4.1108,4.1108,4.1108,4.1596,4.2045,4.2396,4.343,4.4309,4.4992,4.5519,4.5968,4.63,4.63,4.63,4.6339,4.7198,4.7861,4.8388,4.9579,5.0594,5.1394,5.1394,5.1394,5.1398,5.14,5.1406,5.1384,5.1316,5.1302,5.1291,5.1308,5.13,5.13,5.13,5.13,5.13,5.13,5.13,5.13,5.13,5.13,5.13,5.13,5.13,5.13,5.13,5.13,5.13,5.13,5.13,5.13,5.13,5.13,5.13,5.13,5.1276,5.123,5.1191,5.1139,5.1105,5.1105,5.1004,5.1412,5.269,5.3217,5.3981,5.518,5.5722,5.5866,5.5527,5.5504,5.5333,5.4931,5.4901,5.4901,5.4901,5.4901,5.4901,5.4901,5.4901,5.4901,5.4901,5.4901,5.4901,2.5677,0.0,0.0,0.0,0.0,0.0,0.0,0.0,0.0,0.0,0.0,0.0,0.0,4.0015,4.1108,4.1108,4.1108,4.1108,4.1108,4.1108,4.1108,4.1108,4.1108,4.1108,4.1108,4.1108,4.1108,4.1108,4.1108,4.1108,4.1108,4.1108,4.1459,4.2259,4.2357,4.3196,4.4875,4.4953,4.5441,4.63,4.63,4.63,4.6339,4.712,4.7569,4.7803,4.9403,5.0594,5.1394,5.1394,5.1394,5.1398,5.1398,5.1404,5.1386,5.1327,5.1303,5.1294,5.1303,5.13,5.13,5.13,5.13,5.13,5.13,5.13,5.13,5.13,5.13,5.13,5.13,5.13,5.13,5.13,5.13,5.13,5.13,5.13,5.13,5.13,5.13,5.13,5.13,5.13,5.1284,5.122,5.115,5.1105,5.1105,5.1043,5.1682,5.3422,5.3542,5.4191,5.5874,5.5993,5.5847,5.5551,5.5504,5.5333,5.4941,5.4901,5.4901,5.4901,5.4901,5.4901,5.4901,5.4901,5.4901,5.4901,5.4901,5.4901,0.0,0.0,0.0,0.0,0.0,0.0,0.0,0.0,0.0,0.0,0.0,0.0,3.9429,4.0405,4.1108,4.1108,4.1108,4.1108,4.1108,4.1108,4.1108,4.1108,4.1108,4.1108,4.1108,4.1108,4.1108,4.1108,4.1108,4.1108,4.1108,4.1108,4.1186,4.1361,4.2045,4.2903,4.3977,4.466,4.5441,4.63,4.63,4.63,4.63,4.6495,4.7295,4.8603,4.9657,5.0594,5.1394,5.1394,5.1394,5.1394,5.1402,5.1396,5.1406,5.1381,5.1343,5.1294,5.1303,5.13,5.13,5.13,5.13,5.13,5.13,5.13,5.13,5.13,5.13,5.13,5.13,5.13,5.13,5.13,5.13,5.13,5.13,5.13,5.13,5.13,5.13,5.13,5.13,5.13,5.1284,5.122,5.1201,5.1161,5.1105,5.1093,5.1741,5.3501,5.3629,5.425,5.5936,5.6026,5.5922,5.5745,5.5596,5.5408,5.5149,5.4971,5.4901,5.4901,5.4901,5.4901,5.4901,5.4901,5.4901,5.4901,5.4901,5.4901,0.0,0.0,0.0,0.0,0.0,0.0,0.0,0.0,0.0,0.0,0.0,3.8238,3.9078,3.9917,4.06,4.103,4.1108,4.1108,4.1108,4.1108,4.1108,4.1108,4.1108,4.1108,4.1108,4.1108,4.1108,4.1108,4.1108,4.1108,4.1108,4.1108,4.1108,4.1108,4.1537,4.2201,4.3079,4.3938,4.4816,4.5675,4.6105,4.63,4.63,4.63,4.7002,4.8271,4.9111,4.9969,5.0809,5.1238,5.1394,5.1394,5.1394,5.1405,5.1396,5.1406,5.1381,5.134,5.1302,5.1303,5.13,5.13,5.13,5.13,5.13,5.13,5.13,5.13,5.13,5.13,5.13,5.13,5.13,5.13,5.13,5.13,5.13,5.13,5.13,5.13,5.13,5.13,5.13,5.13,5.1292,5.1248,5.122,5.1211,5.1211,5.1117,5.1729,5.3514,5.3615,5.422,5.5904,5.601,5.5922,5.5807,5.5703,5.5527,5.521,5.5094,5.5,5.4901,5.4901,5.4901,5.4901,5.4901,5.4901,5.4901,5.4901,5.4901,0.0,0.0,0.0,0.0,0.0,0.0,0.0,0.0,0.0,0.0,3.6599,3.7516,3.8238,3.9156,4.0034,4.0756,4.0991,4.1108,4.1108,4.1108,4.1108,4.1108,4.1108,4.1108,4.1108,4.1108,4.1108,4.1108,4.1108,4.1108,4.1108,4.1108,4.1108,4.1108,4.1108,4.1518,4.2396,4.3118,4.3997,4.5012,4.587,4.63,4.63,4.63,4.6788,4.7647,4.8291,4.9169,5.0165,5.0887,5.1258,5.1394,5.1394,5.1394,5.1398,5.14,5.1406,5.1396,5.1312,5.131,5.13,5.13,5.13,5.13,5.13,5.13,5.13,5.13,5.13,5.13,5.13,5.13,5.13,5.13,5.13,5.13,5.13,5.13,5.13,5.13,5.13,5.13,5.13,5.13,5.13,5.13,5.1248,5.123,5.1284,5.1275,5.1891,5.3521,5.3722,5.4346,5.5894,5.6012,5.594,5.5847,5.5807,5.564,5.5314,5.5262,5.5149,5.496,5.4931,5.4901,5.4901,5.4901,5.4901,5.4901,5.4901,5.4901,0.0,0.0,0.0,0.0,0.0,0.0,0.0,0.0,0.0,0.0,3.6169,3.734,3.7458,3.8746,3.9839,3.9956,4.06,4.1108,4.1108,4.1108,4.1108,4.1108,4.1108,4.1108,4.1108,4.1108,4.1108,4.1108,4.1108,4.1108,4.1108,4.1108,4.1108,4.1108,4.1108,4.1518,4.2396,4.2513,4.3391,4.5012,4.587,4.63,4.63,4.63,4.6788,4.7608,4.7705,4.8642,5.0106,5.0223,5.0711,5.1394,5.1394,5.1394,5.1398,5.14,5.1406,5.1396,5.1312,5.131,5.13,5.13,5.13,5.13,5.13,5.13,5.13,5.13,5.13,5.13,5.13,5.13,5.13,5.13,5.13,5.13,5.13,5.13,5.13,5.13,5.13,5.13,5.13,5.13,5.13,5.13,5.1292,5.1276,5.122,5.1862,5.2666,5.3604,5.4308,5.5098,5.6009,5.6026,5.5975,5.5958,5.5866,5.5766,5.5724,5.5551,5.5383,5.5157,5.5,5.4901,5.4901,5.4901,5.4901,5.4901,5.4901,5.4901,0.0,0.0,0.0,0.0,0.0,0.0,0.0,0.0,0.0,3.4413,3.531,3.613,3.7126,3.7906,3.8707,3.9644,4.0112,4.0542,4.103,4.1108,4.1108,4.1108,4.1108,4.1108,4.1108,4.1108,4.1108,4.1108,4.1108,4.1108,4.1108,4.1108,4.1108,4.1108,4.1108,4.1283,4.1674,4.2162,4.3274,4.5012,4.587,4.63,4.63,4.63,4.6515,4.6905,4.7393,4.8017,4.8779,4.9716,5.034,5.0711,5.1219,5.1394,5.1394,5.1408,5.1405,5.1396,5.1369,5.1333,5.13,5.13,5.13,5.13,5.13,5.13,5.13,5.13,5.13,5.13,5.13,5.13,5.13,5.13,5.13,5.13,5.13,5.13,5.13,5.13,5.13,5.13,5.13,5.13,5.13,5.13,5.13,5.1468,5.1938,5.23,5.2999,5.4303,5.471,5.5215,5.5982,5.601,5.6012,5.6012,5.594,5.5885,5.5787,5.5724,5.5573,5.5364,5.5176,5.5028,5.4901,5.4901,5.4901,5.4901,5.4901,5.4901,0.0,0.0,0.0,0.0,0.0,0.0,0.0,0.0,3.2461,0.0,3.4393,3.5096,3.6404,3.7009,3.7711,3.8961,3.9351,3.978,4.0659,4.0776,4.0854,4.1069,4.1108,4.1108,4.1108,4.1108,4.1108,4.1108,4.1108,4.1108,4.1108,4.1108,4.1108,4.1108,4.1108,4.1108,4.1108,4.1967,4.3157,4.468,4.5558,4.6085,4.63,4.63,4.63,4.6339,4.6983,4.7393,4.7705,4.8954,4.9716,5.0165,5.0828,5.1199,5.1394,5.1394,5.1402,5.1398,5.1398,5.1362,5.13,5.13,5.13,5.13,5.13,5.13,5.13,5.13,5.13,5.13,5.13,5.13,5.13,5.13,5.13,5.13,5.13,5.13,5.13,5.13,5.13,5.13,5.13,5.13,5.13,5.13,5.1495,5.1865,5.2528,5.2932,5.3641,5.4873,5.5118,5.5413,5.5954,5.6012,5.6012,5.6012,5.6012,5.5959,5.5847,5.5847,5.5747,5.5573,5.5413,5.5229,5.4971,5.4931,5.4901,5.4901,5.4901,5.4901,0.0,0.0,0.0,0.0,0.0,0.0,0.0,0.0,0.0,3.2226,3.3554,3.4725,3.4822,3.6189,3.7321,3.7419,3.8121,3.8941,3.9741,3.9878,4.0171,4.0991,4.1108,4.1108,4.1108,4.1108,4.1108,4.1108,4.1108,4.1108,4.1108,4.1108,4.1108,4.1108,4.1108,4.1108,4.1108,4.1967,4.2864,4.3782,4.4641,4.55,4.63,4.63,4.63,4.63,4.6358,4.6846,4.7608,4.7686,4.8681,5.0106,5.0145,5.0672,5.1394,5.1394,5.1402,5.1398,5.1398,5.1362,5.13,5.13,5.13,5.13,5.13,5.13,5.13,5.13,5.13,5.13,5.13,5.13,5.13,5.13,5.13,5.13,5.13,5.13,5.13,5.13,5.13,5.13,5.13,5.13,5.13,5.13,5.2002,5.2547,5.2586,5.3984,5.4964,5.499,5.5622,5.6033,5.5993,5.6012,5.6012,5.6012,5.6012,5.6012,5.5995,5.5995,5.5922,5.5787,5.5766,5.5573,5.5183,5.5,5.4901,5.4901,5.4901,5.4901,0.0,0.0,0.0,0.0,0.0,0.0,0.0,3.006,3.1426,3.1973,3.2597,3.3378,3.4491,3.5662,3.6657,3.7204,3.7555,3.8063,3.8902,3.9039,3.9331,4.0171,4.0268,4.0483,4.1049,4.1108,4.1108,4.1108,4.1108,4.1108,4.1108,4.1108,4.1108,4.1108,4.1108,4.1108,4.1108,4.1967,4.2552,4.2884,4.4328,4.5168,4.548,4.6046,4.63,4.63,4.63,4.6475,4.6807,4.7373,4.8252,4.9325,4.9872,5.0633,5.1394,5.1394,5.1396,5.1406,5.1402,5.1359,5.1291,5.1296,5.13,5.13,5.13,5.13,5.13,5.13,5.13,5.13,5.13,5.13,5.13,5.13,5.13,5.13,5.13,5.13,5.13,5.13,5.13,5.13,5.13,5.13,5.13,5.13,5.2041,5.2801,5.3366,5.444,5.5317,5.5741,5.6013,5.6132,5.601,5.6012,5.6012,5.6012,5.6012,5.6012,5.6012,5.6012,5.5977,5.5941,5.5847,5.5596,5.5183,5.5121,5.5028,5.4901,5.4901,5.4901,2.5701,0.0,0.0,0.0,0.0,0.0,2.8225,0.0,3.0645,3.1485,3.1895,3.2441,3.3612,3.4783,3.5857,3.6716,3.6852,3.7165,3.8043,3.816,3.8473,3.9292,3.939,3.9722,4.0581,4.0659,4.0776,4.1088,4.1108,0.0,4.1108,4.1108,4.1108,4.1108,4.1108,4.1108,4.1108,4.1674,4.2103,4.2415,4.3879,4.4719,4.5031,4.5909,4.63,4.63,4.63,4.63,4.6339,4.6924,4.7647,4.8486,4.9325,5.0204,5.1004,5.1297,5.1391,5.1406,5.1403,5.1372,5.1327,5.1303,5.1296,5.131,5.1308,5.13,5.13,5.13,5.13,5.13,5.13,5.13,5.13,5.13,5.13,5.13,5.13,5.13,5.13,5.13,5.13,5.13,5.13,5.1534,5.1749,5.1749,5.2723,5.3677,5.4262,5.51,5.5794,5.6185,5.6207,5.6141,5.6043,5.601,5.6012,5.6012,5.6012,5.6012,5.6012,5.6012,5.6012,5.6012,5.5923,5.5726,5.5389,5.5262,5.5121,5.5,5.4931,5.4901,0.0,0.0,0.0,0.0,0.0,0.0,2.8108,0.0,2.9826,3.0626,3.1465,3.207,3.209,3.3476,3.4901,3.5779,3.5971,3.6306,3.7145,3.7262,3.7594,3.8456,3.8553,3.8882,3.9683,3.98,4.0151,4.0991,4.1088,4.1108,4.1108,4.1108,4.1108,4.1108,4.1108,4.1108,4.1108,4.1108,4.1518,4.2376,4.3255,4.4114,4.4992,4.5851,4.628,4.63,4.63,4.63,4.63,4.63,4.6807,4.7686,4.8486,4.9325,5.0204,5.1082,5.1391,5.1405,5.1403,5.1398,5.1394,5.1323,5.1304,5.1294,5.1303,5.13,5.13,5.13,5.13,5.13,5.13,5.13,5.13,5.13,5.13,5.13,5.13,5.13,5.13,5.13,5.13,5.13,5.13,5.2021,5.2606,5.2606,5.4087,5.5197,5.5189,5.5957,5.6446,5.6319,5.6232,5.6168,5.6102,5.6043,5.6012,5.6012,5.6012,5.6012,5.6012,5.6012,5.6012,5.6012,5.6012,5.5941,5.5826,5.5413,5.521,5.5183,5.5,5.4901,2.5703,0.0,0.0,0.0,0.0,0.0,0.0,0.0,2.9826,3.0626,3.0997,3.1348,3.1973,3.248,3.3105,3.3983,3.5171,3.6069,3.6325,3.6364,3.6677,3.7555,3.7653,3.7985,3.8843,3.9468,3.9897,0.0,4.0737,4.1108,4.1108,4.1108,4.1108,4.1108,4.1108,4.1108,4.1108,4.1108,4.1225,4.1479,4.2337,4.3216,4.4094,4.4953,4.5695,4.63,4.63,4.63,4.63,4.63,4.6807,4.7686,4.8486,4.9325,5.0204,5.1082,5.1398,5.1391,5.1405,5.1406,5.1406,5.1372,5.1366,5.1366,5.1313,5.1302,5.1297,5.1296,5.13,5.13,5.13,5.13,5.13,5.13,5.13,5.13,5.13,5.13,5.13,5.13,5.13,5.13,5.13,5.2021,5.2606,5.2606,5.4087,5.518,5.5132,5.5939,5.6437,5.6251,5.6207,5.6168,5.6102,5.6043,5.6012,5.6012,5.6012,5.6012,5.6012,5.6012,5.6012,5.6012,5.6012,5.5975,5.594,5.5747,5.5573,5.5413,5.5229,5.5057,0.0,0.0,0.0,0.0,0.0,0.0,2.803,2.8693,2.9396,3.0567,3.0801,3.0958,3.1465,3.1856,3.2265,3.2773,3.4022,3.5037,3.5408,3.5779,3.6189,3.6696,3.6755,3.7106,3.7965,3.8473,3.8902,3.9273,4.0073,4.0717,4.1088,4.1108,4.1108,4.1108,4.1108,4.1108,4.1108,4.1108,4.1108,4.1108,4.1986,4.2669,4.3196,4.4445,4.5285,4.5773,4.6144,4.63,4.63,4.63,4.6593,4.7139,4.7978,4.8818,4.9657,5.0535,5.1082,5.1398,5.1402,5.1402,5.14,5.1404,5.1402,5.1384,5.1316,5.1299,5.1294,5.1296,5.13,5.13,5.13,5.13,5.13,5.13,5.13,5.13,5.13,5.13,5.13,5.13,5.13,5.1417,5.1787,5.2567,5.3268,5.3638,5.4866,5.5734,5.5687,5.6115,5.6378,5.6244,5.6181,5.6126,5.6102,5.6043,5.6012,5.6012,5.6012,5.6012,5.6012,5.6012,5.6012,5.6012,5.6012,5.6012,5.6012,5.5866,5.5703,5.5504,5.5288,5.5149,0.0,0.0,0.0,0.0,0.0,0.0,2.7913,2.8362,2.8889,3.047,3.0801,3.0801,3.0801,3.1426,3.1953,3.1953,3.2695,3.3554,3.4432,3.531,3.5857,3.5857,3.5932,3.6306,3.7087,3.7243,3.7614,3.8394,3.9292,4.0132,4.0912,4.1049,4.1108,4.1108,4.1108,4.1108,4.1108,4.1108,4.1108,4.1108,4.1888,4.2318,4.2454,4.4094,4.4914,4.5051,4.5929,4.63,4.63,4.63,4.63,4.6397,4.7256,4.8096,4.8915,4.9774,5.0653,5.1398,5.1398,5.1394,5.1402,5.1406,5.1406,5.1386,5.1327,5.1308,5.1318,5.1296,5.13,5.13,5.13,5.13,5.13,5.13,5.13,5.13,5.13,5.13,5.13,5.13,5.13,5.1573,5.245,5.3327,5.4203,5.508,5.5937,5.6483,5.6483,5.6359,5.6308,5.6278,5.6187,5.6102,5.6102,5.6043,5.6012,5.6012,5.6012,5.6012,5.6012,5.6012,5.6012,5.6012,5.6012,5.6012,5.6012,5.5885,5.5705,5.5527,5.5339,5.5236,0.0,0.0,0.0,0.0,0.0,0.0,2.8069,2.883,2.9611,3.0606,3.0801,3.0801,3.0801,3.0938,3.1055,3.1055,3.1777,3.2656,3.3534,3.4393,3.4959,3.4959,3.5564,3.6069,3.6247,3.6891,3.7379,3.7536,3.8941,3.9878,4.0034,4.0717,4.1108,4.1108,4.1108,4.1108,4.1108,4.1108,4.1108,4.1108,4.1264,4.1713,4.2435,4.3489,4.4348,4.5051,4.5929,4.63,4.63,4.63,4.63,4.6397,4.7256,4.8096,4.8915,4.9774,5.0653,5.1394,5.1402,5.1398,5.1394,5.1408,5.1408,5.1408,5.1386,5.1384,5.1366,5.131,5.13,5.13,5.13,5.13,5.13,5.13,5.13,5.13,5.13,5.13,5.13,5.13,5.13,5.1573,5.245,5.3327,5.4203,5.508,5.5937,5.6455,5.6349,5.6319,5.6278,5.6219,5.616,5.6102,5.6102,5.6043,5.6012,5.6012,5.6012,5.6012,5.6012,5.6012,5.6012,5.6012,5.6012,5.6012,5.6012,5.5958,5.5904,5.5745,5.5684,5.5596,0.0,0.0,0.0,2.6234,0.0,0.0,0.0,2.9298,2.9826,3.0626,3.0801,3.0801,3.0801,3.0801,3.0801,3.0801,3.1172,3.1602,3.2031,3.3222,3.4042,3.4042,3.4822,3.5349,3.5349,3.615,3.6833,3.7262,3.8082,3.8921,3.9761,4.021,4.0659,4.1088,4.1108,4.1094,4.1099,4.1105,4.1103,4.1108,4.1108,4.1322,4.1771,4.265,4.3528,4.4406,4.5265,4.5909,4.63,4.6309,4.6309,4.6339,4.6788,4.7705,4.8857,4.9286,5.0282,5.1394,5.1394,5.1394,5.1394,5.1394,5.1394,5.1402,5.1402,5.1384,5.1336,5.1316,5.1303,5.13,5.13,5.13,5.13,5.13,5.13,5.13,5.13,5.13,5.13,5.13,5.13,5.171,5.3015,5.3619,5.434,5.5645,5.621,5.6446,5.6319,5.6267,5.6219,5.6174,5.6087,5.6059,5.6059,5.601,5.6012,5.6012,5.6012,5.6012,5.6012,5.6012,5.6012,5.6012,5.6012,5.6012,5.6012,5.6012,5.5977,5.5904,5.5827,5.5745,0.0,0.0,0.0,0.0,0.0,2.7876,0.0,0.0,0.0,3.0665,3.0801,3.0801,3.0801,3.0801,3.0743,3.0587,0.0,0.0,0.0,3.1914,0.0,3.3124,3.3925,3.4452,3.4452,3.5232,3.6111,3.6989,3.7204,3.7887,3.9253,3.9644,4.0132,4.0834,4.1013,4.1099,4.1107,4.1093,4.1092,4.1097,4.1094,4.1091,4.1127,4.2009,4.2871,4.3752,4.4628,4.5483,4.6303,4.6297,4.6295,4.63,4.63,4.7334,4.8818,4.8818,4.9911,5.1394,5.1394,5.1394,5.1394,5.1394,5.1394,5.1402,5.1402,5.1364,5.1316,5.1303,5.1291,5.1296,5.13,5.13,5.13,5.13,5.13,5.13,5.13,5.13,5.13,5.13,5.13,5.1807,5.3385,5.3786,5.4429,5.6015,5.6357,5.6359,5.6105,5.6154,5.611,5.5904,5.5946,5.6012,5.6012,5.6012,5.6012,5.6012,5.6012,5.6012,5.6012,5.6012,5.6012,5.6012,5.6012,5.6012,5.6012,5.6012,5.6012,5.6012,5.5885,5.5847,0.0,0.0,0.0,0.0,2.8168,0.0,0.0,0.0,3.0684,3.0782,0.0,3.0801,3.0801,0.0,0.0,0.0,0.0,0.0,2.9845,3.0528,3.1387,3.2168,3.3027,3.3554,3.3554,3.4334,3.5213,3.6072,3.6852,3.7379,3.7575,3.9058,3.9917,3.9956,4.0691,4.1107,4.1107,4.1093,4.1094,4.1093,4.111,4.1101,4.113,4.2,4.2887,4.3749,4.4624,4.5492,4.6303,4.6297,4.6295,4.63,4.63,4.7354,4.8896,4.8896,4.995,5.1394,5.1394,5.1394,5.1394,5.1394,5.1394,5.1402,5.1402,5.1386,5.1386,5.1316,5.1299,5.1302,5.1296,5.13,5.13,5.13,5.13,5.13,5.13,5.13,5.13,5.13,5.13,5.1612,5.2586,5.3351,5.4169,5.5189,5.5901,5.6066,5.5335,5.5804,5.5896,5.5128,5.5617,5.6012,5.6012,5.6012,5.6012,5.6012,5.6012,5.6012,5.6012,5.6012,5.6012,5.6012,5.6012,5.6012,5.6012,5.6012,5.6012,5.6012,5.5975,5.5977,0.0,0.0,0.0,0.0,0.0,0.0,3.0196,0.0,3.0801,0.0,0.0,0.0,0.0,0.0,0.0,0.0,3.0587,0.0,0.0,0.0,3.0938,0.0,0.0,0.0,3.3358,3.4198,3.4842,3.5213,3.6052,3.6774,3.7262,3.8473,3.9351,3.9839,4.0665,4.1105,4.1093,4.1133,4.1152,4.1152,4.1113,4.1112,4.1167,4.1494,4.2122,4.2988,4.3867,4.4743,4.5581,4.6087,4.6303,4.6303,4.6309,4.7361,4.8892,4.8892,4.9966,5.1408,5.1398,5.1394,5.1394,5.1394,5.1394,5.1402,5.1402,5.1406,5.1384,5.1312,5.1302,5.1291,5.1308,5.13,5.13,5.13,5.13,5.13,5.13,5.13,5.13,5.13,5.13,5.1409,5.1734,5.2485,5.334,5.4196,5.4583,5.4657,5.4291,5.4504,5.4735,5.482,5.512,5.549,5.5973,5.6012,5.6012,5.6012,5.6012,5.6012,5.6012,5.6012,5.6012,5.6012,5.6012,5.6012,5.6012,5.6012,5.6012,5.6012,5.6012,5.6012,2.6995,0.0,0.0,0.0,0.0,0.0,0.0,0.0,0.0,0.0,0.0,0.0,0.0,0.0,3.0723,0.0,0.0,3.0723,0.0,3.0665,0.0,0.0,0.0,0.0,0.0,3.3612,3.4198,3.4666,3.5288,3.6016,3.6901,3.7762,3.8539,3.9175,4.021,4.0769,4.0761,4.1035,4.1172,4.1191,4.1152,4.1152,4.1191,4.1146,4.1597,4.2441,4.332,4.4199,4.5078,4.5936,4.6307,4.6308,4.6301,4.7213,4.8565,4.8804,4.9957,5.14,5.1408,5.1398,5.1394,5.1394,5.1394,5.1398,5.1396,5.1406,5.14,5.1343,5.1333,5.1317,5.1308,5.13,5.13,5.13,5.13,5.13,5.13,5.13,5.13,5.13,5.13,5.1265,5.1201,5.191,5.2666,5.3254,5.3521,5.3573,5.3286,5.346,5.3805,5.4384,5.4658,5.5122,5.5935,5.6012,5.6012,5.6012,5.6012,5.6012,5.6012,5.6012,5.6012,5.6012,5.6012,5.6012,5.6012,5.6012,5.6012,5.6012,5.6012,5.6012,0.0,0.0,0.0,2.9567,0.0,0.0,0.0,0.0,3.0801,0.0,0.0,0.0,3.0801,3.0801,0.0,0.0,0.0,0.0,0.0,0.0,0.0,0.0,0.0,0.0,0.0,3.2168,3.2871,3.4566,3.4722,3.5125,3.5996,3.6875,3.7341,3.7379,3.9058,3.9945,3.9935,4.0702,4.1133,4.1191,4.1191,4.1191,4.1191,4.1191,4.1641,4.2441,4.332,4.4199,4.5078,4.5937,4.6308,4.6308,4.6308,4.685,4.7732,4.8592,4.9961,5.1406,5.1402,5.1408,5.1394,5.1394,5.1394,5.1394,5.1394,5.1398,5.1406,5.14,5.1396,5.1389,5.133,5.13,5.13,5.13,5.13,5.13,5.13,5.13,5.13,5.13,5.13,5.1256,5.1128,5.1824,5.2407,5.2445,5.3094,5.3305,5.2438,5.3078,5.3606,5.3553,5.4291,5.5122,5.5935,5.6012,5.6012,5.6012,5.6012,5.6012,5.6012,5.6012,5.6012,5.6012,5.6012,5.6012,5.6012,5.6012,5.6012,5.6012,5.6012,5.6012,0.0,0.0,3.0271,3.0364,0.0,0.0,0.0,0.0,0.0,0.0,0.0,0.0,0.0,0.0,0.0,0.0,0.0,0.0,0.0,0.0,0.0,0.0,0.0,0.0,0.0,0.0,3.2588,3.3749,3.4361,3.5089,3.5953,3.6836,3.7302,3.7301,3.9,3.99,3.9906,4.0701,4.1113,4.1133,4.1172,4.1191,4.1191,4.1191,4.1348,4.168,4.3086,4.3867,4.4258,4.5703,4.6308,4.6308,4.6308,4.6835,4.7712,4.8574,4.9629,5.0683,5.121,5.1404,5.1402,5.1394,5.1391,5.1391,5.1391,5.1402,5.1406,5.1391,5.1367,5.133,5.1308,5.13,5.13,5.13,5.13,5.13,5.13,5.13,5.13,5.13,5.13,5.1265,5.1171,5.1361,5.1515,5.1421,5.1644,5.1707,5.1416,5.1629,5.202,5.2569,5.342,5.4271,5.5122,5.5702,5.6012,5.6012,5.6012,5.6012,5.6012,5.6012,5.6012,5.6012,5.6012,5.6012,5.6012,5.6012,5.6012,5.6012,5.6012,5.6012,2.9349,2.9977,0.0,3.0735,3.0765,0.0,3.0799,0.0,3.0801,0.0,0.0,0.0,0.0,0.0,0.0,0.0,0.0,0.0,0.0,3.0796,0.0,0.0,0.0,0.0,0.0,3.1306,3.199,3.2869,3.3748,3.4609,0.0,3.6324,3.6795,3.6796,3.8183,3.9097,3.9429,4.0266,4.0838,4.1133,4.1172,4.1191,4.1191,4.1191,4.1191,4.1289,4.2637,4.3418,4.3808,4.5254,4.6016,4.6308,4.6308,4.6641,4.7285,4.8457,4.9629,5.0703,5.1211,5.1406,5.1406,5.1404,5.1403,5.1403,5.1403,5.1406,5.1459,5.1773,5.1581,5.1369,5.1678,5.1534,5.13,5.13,5.13,5.13,5.13,5.13,5.13,5.13,5.13,5.1284,5.122,5.1161,5.1093,5.0966,5.0921,5.0906,5.0906,5.0906,5.1235,5.2105,5.2975,5.3962,5.5122,5.5702,5.6012,5.6012,5.6012,5.6012,5.6012,5.6012,5.6012,5.6012,5.6012,5.6012,5.6012,5.6012,5.6012,5.6012,5.6012,5.6012]},{"header":{"parameterUnit":"m.s-1","parameterCategory":1,"la1":30.6,"la2":29.2853,"lo1":-89.7004,"lo2":-87.6739,"dy":0.0162,"dx":0.0183,"nx":112,"ny":82,"refTime":"2023-04-14T00:00:00:Z","depth":0,"parameterNumber":3,"parameterNumberName":"V-component_of_WINDS"},"data":[0.0,0.0,0.0,0.0,0.0,0.0,0.0,0.0,0.0,0.0,0.0,0.0,0.0,0.0,0.0,0.0,0.0,0.0,0.0,0.0,0.0,0.0,0.0,0.0,0.0,0.0,0.0,0.0,0.0,0.0,0.0,0.0,0.0,0.0,0.0,0.0,0.0,0.0,0.0,0.0,0.0,0.0,0.0,0.0,0.0,0.0,0.0,0.0,0.0,0.0,0.0,0.0,0.0,0.0,0.0,0.0,0.0,0.0,0.0,0.0,0.0,0.0,0.0,0.0,0.0,0.0,0.0,0.0,0.0,0.0,0.0,0.0,0.0,0.0,0.0,0.0,0.0,0.0,0.0,0.0,0.0,0.0,0.0,0.0,0.0,0.0,0.0,0.0,0.0,0.0,-1.0629,-1.0629,-1.0629,-1.0748,-1.105,-1.0804,-1.0629,-1.0629,0.0,0.0,0.0,0.0,0.0,0.0,0.0,0.0,0.0,0.0,0.0,0.0,0.0,0.0,0.0,0.0,0.0,0.0,0.0,0.0,0.0,0.0,0.0,0.0,0.0,0.0,0.0,0.0,0.0,0.0,0.0,0.0,0.0,0.0,0.0,0.0,0.0,0.0,0.0,0.0,0.0,0.0,0.0,0.0,0.0,0.0,0.0,0.0,0.0,0.0,0.0,0.0,0.0,0.0,0.0,0.0,0.0,0.0,0.0,0.0,0.0,0.0,0.0,0.0,0.0,0.0,0.0,0.0,0.0,0.0,0.0,0.0,0.0,0.0,0.0,0.0,0.0,0.0,0.0,0.0,0.0,0.0,0.0,0.0,0.0,0.0,0.0,0.0,0.0,0.0,0.0,0.0,0.0,0.0,0.0,0.0,0.0,0.0,0.0,0.0,0.0,0.0,0.0,0.0,-1.1336,-1.1336,-1.1336,-1.136,-1.1408,-1.1368,-1.1336,-1.1336,0.0,0.0,0.0,0.0,0.0,0.0,0.0,0.0,0.0,0.0,0.0,0.0,0.0,0.0,0.0,0.0,0.0,0.0,0.0,0.0,0.0,0.0,0.0,0.0,0.0,0.0,0.0,0.0,0.0,0.0,0.0,0.0,0.0,0.0,0.0,0.0,0.0,0.0,0.0,0.0,0.0,0.0,0.0,0.0,0.0,0.0,0.0,0.0,0.0,0.0,0.0,0.0,0.0,0.0,0.0,0.0,0.0,0.0,0.0,0.0,0.0,0.0,0.0,0.0,0.0,0.0,0.0,0.0,0.0,0.0,0.0,0.0,0.0,0.0,0.0,0.0,0.0,0.0,0.0,0.0,0.0,0.0,0.0,0.0,0.0,0.0,0.0,0.0,0.0,0.0,0.0,0.0,0.0,0.0,0.0,0.0,0.0,0.0,0.0,0.0,0.0,0.0,0.0,-1.14,-1.1567,-1.1757,-1.1606,-1.1567,-1.1757,-1.1598,-1.1487,-1.1487,-1.1193,0.0,0.0,0.0,0.0,0.0,0.0,0.0,0.0,0.0,0.0,0.0,0.0,0.0,0.0,0.0,0.0,0.0,0.0,0.0,0.0,0.0,0.0,0.0,0.0,0.0,0.0,0.0,0.0,0.0,0.0,0.0,0.0,0.0,0.0,0.0,0.0,0.0,0.0,0.0,0.0,0.0,0.0,0.0,0.0,0.0,0.0,0.0,0.0,0.0,0.0,0.0,0.0,0.0,0.0,0.0,0.0,0.0,0.0,0.0,0.0,0.0,0.0,0.0,0.0,0.0,0.0,0.0,0.0,0.0,0.0,0.0,0.0,0.0,0.0,0.0,0.0,0.0,0.0,0.0,0.0,0.0,0.0,0.0,0.0,0.0,0.0,0.0,0.0,0.0,0.0,0.0,0.0,0.0,0.0,0.0,0.0,0.0,0.0,0.0,0.0,0.0,0.0,-1.1741,-1.1845,-1.2115,-1.19,-1.1853,-1.2123,-1.19,-1.1741,-1.1741,-1.1662,0.0,0.0,0.0,0.0,0.0,0.0,0.0,0.0,0.0,0.0,0.0,0.0,0.0,0.0,0.0,0.0,0.0,0.0,0.0,0.0,0.0,0.0,0.0,0.0,0.0,0.0,0.0,0.0,0.0,0.0,0.0,0.0,0.0,0.0,0.0,0.0,0.0,0.0,0.0,0.0,0.0,0.0,0.0,0.0,0.0,0.0,0.0,0.0,0.0,0.0,0.0,0.0,0.0,0.0,0.0,0.0,0.0,0.0,0.0,0.0,0.0,0.0,0.0,0.0,0.0,0.0,0.0,0.0,0.0,0.0,0.0,0.0,0.0,0.0,0.0,0.0,0.0,0.0,0.0,0.0,0.0,0.0,0.0,0.0,0.0,0.0,0.0,0.0,0.0,0.0,0.0,0.0,0.0,0.0,0.0,0.0,0.0,0.0,0.0,0.0,0.0,0.0,-1.2549,-1.2557,-1.2581,-1.2565,-1.2557,-1.2581,-1.2565,-1.2549,-1.2549,-1.217,0.0,0.0,0.0,0.0,0.0,0.0,0.0,0.0,0.0,0.0,0.0,0.0,0.0,0.0,0.0,0.0,0.0,0.0,0.0,0.0,0.0,0.0,0.0,0.0,0.0,0.0,0.0,0.0,0.0,0.0,0.0,0.0,0.0,0.0,0.0,0.0,0.0,0.0,0.0,0.0,0.0,0.0,0.0,0.0,0.0,0.0,0.0,0.0,0.0,0.0,0.0,0.0,0.0,0.0,0.0,0.0,0.0,0.0,0.0,0.0,0.0,0.0,0.0,0.0,0.0,0.0,0.0,0.0,0.0,0.0,0.0,0.0,0.0,0.0,0.0,0.0,0.0,0.0,0.0,0.0,0.0,0.0,0.0,0.0,0.0,0.0,0.0,0.0,0.0,0.0,0.0,0.0,0.0,0.0,0.0,0.0,0.0,0.0,0.0,0.0,0.0,0.0,-1.2621,-1.2709,0.0,-1.2695,-1.2647,-1.2877,-1.2687,-1.2621,-1.2621,0.0,0.0,0.0,0.0,0.0,0.0,0.0,0.0,0.0,0.0,0.0,0.0,0.0,0.0,0.0,0.0,0.0,0.0,0.0,0.0,0.0,0.0,0.0,0.0,0.0,0.0,0.0,0.0,0.0,0.0,0.0,0.0,0.0,0.0,0.0,0.0,0.0,0.0,0.0,0.0,0.0,0.0,0.0,0.0,0.0,0.0,0.0,0.0,0.0,0.0,0.0,0.0,0.0,0.0,0.0,0.0,0.0,0.0,0.0,0.0,0.0,0.0,0.0,0.0,0.0,0.0,0.0,0.0,0.0,0.0,0.0,0.0,0.0,0.0,0.0,0.0,0.0,0.0,0.0,0.0,0.0,0.0,0.0,0.0,0.0,0.0,0.0,0.0,0.0,0.0,0.0,0.0,0.0,0.0,0.0,0.0,0.0,0.0,0.0,0.0,0.0,0.0,-1.2621,-1.2663,-1.2822,0.0,-1.2973,-1.2981,-1.3227,-1.2862,-1.2664,-1.2726,0.0,0.0,0.0,0.0,0.0,0.0,0.0,0.0,0.0,0.0,0.0,0.0,0.0,0.0,0.0,0.0,0.0,0.0,0.0,0.0,0.0,0.0,0.0,0.0,0.0,0.0,0.0,0.0,0.0,0.0,0.0,0.0,0.0,0.0,0.0,0.0,0.0,0.0,0.0,0.0,0.0,0.0,0.0,0.0,0.0,0.0,0.0,0.0,0.0,0.0,0.0,0.0,0.0,0.0,0.0,0.0,0.0,0.0,0.0,0.0,0.0,0.0,0.0,0.0,0.0,0.0,0.0,0.0,0.0,0.0,0.0,0.0,0.0,0.0,0.0,0.0,0.0,0.0,0.0,0.0,0.0,0.0,0.0,0.0,0.0,0.0,0.0,0.0,0.0,0.0,0.0,0.0,0.0,0.0,0.0,0.0,0.0,0.0,0.0,0.0,0.0,0.0,-1.2629,-1.2877,-1.31,-1.31,-1.3394,-1.3584,-1.3592,-1.3087,-1.2899,0.0,0.0,0.0,0.0,0.0,0.0,0.0,0.0,0.0,0.0,0.0,0.0,0.0,0.0,0.0,0.0,0.0,0.0,0.0,0.0,0.0,0.0,0.0,0.0,0.0,0.0,0.0,0.0,0.0,0.0,0.0,0.0,0.0,0.0,0.0,0.0,0.0,0.0,0.0,0.0,0.0,0.0,0.0,0.0,0.0,0.0,0.0,0.0,0.0,0.0,0.0,0.0,0.0,0.0,0.0,0.0,0.0,0.0,0.0,0.0,0.0,0.0,0.0,0.0,0.0,0.0,0.0,0.0,0.0,0.0,0.0,0.0,0.0,0.0,0.0,0.0,0.0,0.0,0.0,0.0,0.0,0.0,0.0,0.0,0.0,0.0,0.0,0.0,0.0,0.0,0.0,0.0,0.0,0.0,0.0,0.0,0.0,0.0,0.0,0.0,0.0,0.0,0.0,-1.2933,-1.3235,-1.3529,-1.3783,-1.3672,-1.3403,-1.2942,-1.3028,-1.292,-1.2439,0.0,0.0,0.0,0.0,0.0,0.0,0.0,0.0,0.0,0.0,0.0,0.0,0.0,0.0,0.0,0.0,0.0,0.0,0.0,0.0,0.0,0.0,0.0,0.0,0.0,0.0,0.0,0.0,0.0,0.0,0.0,0.0,0.0,0.0,0.0,0.0,0.0,0.0,0.0,0.0,0.0,0.0,0.0,0.0,0.0,0.0,0.0,0.0,0.0,0.0,0.0,0.0,0.0,0.0,0.0,0.0,0.0,0.0,0.0,0.0,0.0,0.0,0.0,0.0,0.0,0.0,0.0,0.0,0.0,0.0,0.0,0.0,0.0,0.0,0.0,0.0,0.0,0.0,0.0,0.0,0.0,0.0,0.0,0.0,0.0,0.0,0.0,0.0,0.0,0.0,0.0,0.0,0.0,0.0,0.0,0.0,0.0,0.0,0.0,0.0,0.0,0.0,-1.3267,-1.3584,-1.3878,-1.4093,-1.4045,-1.3731,-1.314,-1.317,-1.2846,-1.2006,0.0,0.0,0.0,0.0,0.0,0.0,0.0,0.0,0.0,0.0,0.0,0.0,0.0,0.0,0.0,0.0,0.0,0.0,0.0,0.0,0.0,0.0,0.0,0.0,0.0,0.0,0.0,0.0,0.0,0.0,0.0,0.0,0.0,0.0,0.0,0.0,0.0,0.0,0.0,0.0,0.0,0.0,0.0,0.0,0.0,0.0,0.0,0.0,0.0,0.0,0.0,0.0,0.0,0.0,0.0,0.0,0.0,0.0,0.0,0.0,0.0,0.0,0.0,0.0,0.0,0.0,0.0,0.0,0.0,0.0,0.0,0.0,0.0,0.0,0.0,0.0,0.0,0.0,0.0,0.0,0.0,0.0,0.0,0.0,0.0,0.0,0.0,0.0,0.0,0.0,0.0,0.0,0.0,0.0,0.0,0.0,0.0,0.0,0.0,0.0,0.0,0.0,-1.3592,-1.3942,-1.4164,-1.4164,-1.445,-1.4346,-1.376,-1.3285,-1.2622,-1.1826,0.0,0.0,0.0,0.0,0.0,0.0,0.0,0.0,0.0,0.0,0.0,0.0,0.0,0.0,0.0,0.0,0.0,0.0,0.0,0.0,0.0,0.0,0.0,0.0,0.0,0.0,0.0,0.0,0.0,0.0,0.0,0.0,0.0,0.0,0.0,0.0,0.0,0.0,0.0,0.0,0.0,0.0,0.0,0.0,0.0,0.0,0.0,0.0,0.0,0.0,0.0,0.0,0.0,0.0,0.0,0.0,0.0,0.0,0.0,0.0,-0.407,0.0,0.0,0.0,0.0,0.0,0.0,0.0,0.0,0.0,0.0,0.0,0.0,0.0,0.0,0.0,0.0,0.0,0.0,0.0,0.0,0.0,0.0,0.0,0.0,0.0,0.0,0.0,0.0,0.0,0.0,0.0,0.0,0.0,0.0,0.0,0.0,0.0,0.0,0.0,0.0,0.0,-1.3989,-1.4307,-1.4522,-1.4522,-1.4522,-1.4266,-1.3382,-1.31,-1.2549,-1.1739,-1.1416,0.0,0.0,0.0,0.0,0.0,0.0,0.0,0.0,0.0,0.0,0.0,0.0,0.0,0.0,0.0,0.0,0.0,0.0,0.0,0.0,0.0,0.0,0.0,0.0,0.0,0.0,0.0,0.0,0.0,0.0,0.0,0.0,0.0,0.0,0.0,0.0,0.0,0.0,0.0,0.0,0.0,0.0,0.0,0.0,0.0,0.0,0.0,0.0,0.0,0.0,0.0,0.0,0.0,0.0,0.0,0.0,0.0,0.0,0.0,0.0,-0.4091,0.0,0.0,0.0,0.0,0.0,0.0,0.0,0.0,0.0,0.0,0.0,0.0,0.0,0.0,0.0,0.0,0.0,0.0,0.0,0.0,0.0,0.0,0.0,0.0,0.0,0.0,0.0,0.0,0.0,0.0,0.0,0.0,0.0,0.0,0.0,0.0,0.0,0.0,0.0,0.0,-1.4426,-1.4558,-1.4657,-1.4746,-1.4918,-1.462,-1.3787,-1.3244,-1.2563,-1.145,-1.116,0.0,0.0,0.0,0.0,0.0,0.0,0.0,0.0,0.0,0.0,0.0,0.0,0.0,0.0,0.0,0.0,0.0,0.0,0.0,0.0,0.0,0.0,0.0,0.0,0.0,0.0,0.0,0.0,0.0,0.0,0.0,0.0,0.0,0.0,0.0,0.0,0.0,0.0,0.0,0.0,0.0,0.0,0.0,0.0,0.0,0.0,0.0,0.0,0.0,0.0,0.0,0.0,0.0,-0.3516,-0.3507,-0.3526,-0.3544,-0.3268,-0.2925,-0.3372,-0.3272,-0.3038,-0.4145,0.0,0.0,0.0,0.0,0.0,0.0,0.0,0.0,0.0,0.0,0.0,0.0,0.0,0.0,0.0,0.0,0.0,0.0,0.0,0.0,0.0,0.0,0.0,0.0,-0.9335,-0.9023,-0.9525,0.0,0.0,0.0,0.0,0.0,0.0,0.0,0.0,0.0,0.0,0.0,-1.4643,-1.4494,-1.4448,-1.4717,-1.4987,-1.4839,-1.4145,-1.341,-1.2438,-1.1282,-1.1025,-1.0767,0.0,0.0,0.0,0.0,0.0,0.0,0.0,0.0,0.0,0.0,0.0,0.0,0.0,0.0,0.0,0.0,0.0,0.0,0.0,0.0,0.0,0.0,0.0,0.0,0.0,0.0,0.0,0.0,0.0,0.0,0.0,0.0,-0.1407,-0.1459,0.0,0.0,0.0,0.0,0.0,0.0,0.0,0.0,0.0,0.0,0.0,0.0,0.0,-0.3015,-0.3034,-0.2541,-0.2328,-0.2395,-0.2387,-0.242,-0.243,-0.2487,-0.2448,-0.2383,-0.2437,0.0,-0.3007,-0.3198,0.0,0.0,0.0,0.0,0.0,0.0,0.0,0.0,0.0,0.0,0.0,0.0,0.0,0.0,0.0,0.0,0.0,0.0,0.0,0.0,0.0,0.0,-0.8258,-0.8353,-0.8287,-0.8312,0.0,-0.9509,-1.0128,-1.051,-1.0585,0.0,0.0,0.0,0.0,0.0,0.0,0.0,-1.434,-1.374,-1.3355,-1.3796,-1.3881,-1.3888,-1.3803,-1.285,-1.2276,-1.208,-1.0884,-1.0466,-1.1306,-1.0366,0.0,0.0,0.0,0.0,0.0,0.0,0.0,0.0,0.0,0.0,0.0,0.0,0.0,0.0,0.0,0.0,0.0,0.0,0.0,0.0,0.0,0.0,0.0,0.0,0.0,0.0,0.0,0.0,0.0,-0.1439,-0.146,-0.1568,-0.1575,-0.1599,0.0,0.0,0.0,0.0,0.0,0.0,0.0,0.0,0.0,-0.2785,-0.2614,-0.2496,-0.2568,-0.23,-0.2211,-0.2304,-0.233,-0.2379,-0.2446,-0.2473,-0.2503,-0.2537,-0.2537,-0.2624,-0.2798,-0.3096,-0.3562,-0.4126,0.0,0.0,0.0,0.0,-0.6676,-0.6743,-0.668,-0.6798,0.0,-0.7072,0.0,0.0,0.0,0.0,0.0,0.0,0.0,0.0,0.0,0.0,-0.8637,-0.8751,-0.8779,-0.8826,-0.9011,-0.9369,-0.984,0.0,-1.0511,-1.1151,-1.2722,0.0,0.0,0.0,0.0,-1.2831,-1.3287,-1.2849,-1.2826,-1.3477,-1.3661,-1.3749,-1.3933,-1.3099,-1.2529,-1.2288,-1.098,-1.0352,-1.0616,-1.0429,-1.0301,0.0,0.0,0.0,0.0,0.0,0.0,0.0,0.0,0.0,0.0,0.0,0.0,0.0,0.0,0.0,0.0,0.0,0.0,0.0,0.0,0.0,0.0,0.0,0.0,0.0,0.0,0.0,0.0,-0.1548,-0.1571,-0.1631,-0.1653,-0.1685,0.0,0.0,0.0,0.0,0.0,0.0,-0.2078,-0.2528,-0.2568,-0.2109,-0.2183,-0.2251,-0.2312,-0.2327,-0.2387,-0.2489,-0.2489,-0.2537,-0.2624,-0.2624,-0.265,-0.2692,-0.2692,-0.2666,-0.2695,-0.3074,-0.3282,-0.3556,-0.47,-0.5438,-0.5832,-0.6234,-0.6603,-0.6856,-0.6496,-0.6668,-0.7,-0.6996,-0.7323,-0.7734,-0.8107,0.0,0.0,0.0,0.0,-0.867,-0.8822,-0.8978,-0.9138,-0.9289,-0.9322,-0.9337,-0.9393,-0.9408,-0.9553,0.0,-1.0282,-1.0922,-1.2362,0.0,0.0,0.0,0.0,-1.1915,-1.2349,-1.2058,-1.2056,-1.2747,-1.3021,-1.3203,-1.3392,-1.2875,-1.2445,-1.2159,-1.1063,-1.0322,-1.0151,-1.0408,-1.0295,-0.9823,0.0,0.0,0.0,0.0,0.0,0.0,0.0,0.0,0.0,0.0,0.0,0.0,0.0,0.0,0.0,0.0,0.0,0.0,0.0,0.0,0.0,0.0,0.0,0.0,0.0,0.0,0.0,0.0,0.0,-0.1695,-0.1753,0.0,0.0,0.0,0.0,-0.2113,-0.2117,-0.221,-0.2209,-0.2202,-0.2236,-0.2166,-0.2346,-0.2436,-0.2496,-0.2555,-0.2616,-0.2679,-0.2679,-0.2681,-0.2687,-0.2687,-0.2689,-0.2692,-0.2692,-0.2691,-0.2683,-0.2616,-0.3031,-0.3583,-0.3577,-0.4654,-0.5966,-0.5075,-0.5333,-0.5983,-0.5054,-0.5448,-0.6351,-0.6586,-0.7652,-0.8941,-0.918,-0.9261,0.0,0.0,-0.9271,-0.928,-0.9289,-0.9299,-0.9313,-0.9322,-0.9322,-0.9379,-0.9503,-0.9545,-0.9568,0.0,-0.9404,-0.9644,-1.0519,0.0,-1.1168,-1.2158,-1.1615,-1.1366,-1.1958,-1.1219,-1.088,-1.1322,-1.1408,-1.1408,-1.1413,-1.1413,-1.1408,-1.1391,-1.088,-1.0616,-1.0605,-0.9984,-0.963,-0.963,-0.9833,0.0,0.0,0.0,0.0,0.0,0.0,0.0,0.0,0.0,0.0,0.0,0.0,0.0,0.0,0.0,0.0,0.0,0.0,0.0,0.0,0.0,0.0,0.0,0.0,0.0,0.0,0.0,0.0,-0.1812,-0.1907,0.0,-0.1996,-0.2117,-0.2114,-0.2176,-0.218,-0.2222,-0.2319,-0.2383,-0.2433,-0.2473,-0.2553,-0.2605,-0.2627,-0.2649,-0.2691,-0.2751,-0.2751,-0.2771,-0.2809,-0.2809,-0.2809,-0.2809,-0.2809,-0.2809,-0.2808,-0.2786,-0.2888,-0.3033,-0.3572,-0.4142,-0.4735,-0.4934,-0.5189,-0.5468,-0.5143,-0.5662,-0.6603,-0.726,-0.7959,-0.86,-0.8841,-0.8923,-0.8919,-0.9241,-0.9261,-0.9368,-0.9447,-0.963,-0.9729,-0.9729,-0.9729,-0.9748,-0.9828,-0.9842,-0.9819,-0.9743,-0.9729,-0.9979,-1.09,-1.0647,-1.0593,-1.1527,-1.0947,-1.0464,-1.0717,-1.0381,-1.0381,-1.0809,-1.0809,-1.0977,-1.1241,-1.1327,-1.1327,-1.1327,-1.0895,-1.0636,-1.0636,-1.0134,-0.9842,-0.9842,-0.9723,-0.9702,0.0,0.0,0.0,0.0,0.0,0.0,0.0,0.0,0.0,0.0,0.0,0.0,0.0,0.0,0.0,0.0,0.0,0.0,0.0,0.0,0.0,0.0,0.0,0.0,0.0,0.0,-0.1877,-0.1936,-0.205,-0.2124,-0.2124,-0.2196,-0.2268,-0.233,-0.2353,-0.2407,-0.2506,-0.2549,-0.259,-0.2631,-0.2691,-0.2723,-0.2723,-0.2744,-0.2774,-0.2813,-0.2813,-0.2835,-0.2875,-0.2875,-0.2875,-0.2875,-0.2875,-0.2875,-0.2875,-0.2875,-0.2827,-0.2837,-0.3323,-0.3751,-0.4028,-0.4335,-0.4596,-0.4881,-0.4881,-0.5477,-0.6496,-0.7513,-0.8115,-0.8543,-0.8791,-0.8959,-0.9038,-0.9285,-0.947,-0.9582,-0.9667,-0.9852,-1.0038,-1.0038,-1.0038,-1.0038,-1.0038,-1.0038,-1.0038,-1.0038,-1.0038,-1.0207,-1.0722,-1.0381,-1.0294,-1.1154,-1.0554,-1.0125,-1.0381,-1.0207,-1.0125,-1.0381,-1.0381,-1.0549,-1.0809,-1.0982,-1.0982,-1.0895,-1.0722,-1.0549,-1.0381,-1.012,-1.0038,-1.0038,-0.9819,-0.9748,-0.9748,0.0,0.0,0.0,0.0,0.0,0.0,0.0,0.0,0.0,0.0,0.0,0.0,0.0,0.0,0.0,0.0,0.0,0.0,0.0,0.0,0.0,0.0,0.0,-0.1884,-0.1937,-0.2,-0.2126,-0.2177,-0.2183,-0.2183,-0.236,-0.2452,-0.2512,-0.2571,-0.2631,-0.2692,-0.2695,-0.2696,-0.2698,-0.2755,-0.2786,-0.2786,-0.2845,-0.2875,-0.2875,-0.2875,-0.2875,-0.2875,-0.2875,-0.2875,-0.2875,-0.2875,-0.2875,-0.2875,-0.2875,-0.2875,-0.2868,-0.2809,-0.3436,-0.4111,-0.3155,-0.3436,-0.43,-0.43,-0.4921,-0.5897,-0.7136,-0.8109,-0.8911,-0.9174,-0.9432,-0.9602,-0.9602,-0.9777,-0.9951,-0.9951,-0.9951,-1.0038,-1.0038,-1.0038,-1.0043,-1.0047,-1.0047,-1.0052,-1.0057,-1.0057,-1.0052,-1.0043,-1.0038,-1.0294,-1.1154,-1.0554,0.0,-1.1154,-1.0554,-1.0038,-1.0038,-1.0038,-1.0038,-1.0038,-1.0381,-1.0376,-1.0038,-1.0381,-1.0376,-1.0038,-1.0038,-1.0038,-1.0038,-1.0038,-1.0038,-1.0038,0.0,0.0,0.0,0.0,0.0,0.0,0.0,0.0,0.0,0.0,0.0,0.0,0.0,0.0,0.0,0.0,0.0,0.0,0.0,0.0,0.0,0.0,-0.1997,-0.1954,-0.2102,-0.2127,-0.2187,-0.2338,-0.2437,-0.2437,-0.2546,-0.2624,-0.2642,-0.2658,-0.2694,-0.2755,-0.2758,-0.2778,-0.2823,-0.2841,-0.2849,-0.2849,-0.2865,-0.2875,-0.2875,-0.2875,-0.2875,-0.2875,-0.2875,-0.2875,-0.2875,-0.2875,-0.2875,-0.2875,-0.2875,-0.2875,-0.2873,-0.2856,-0.3037,-0.3229,-0.2945,-0.3037,-0.3409,-0.4032,-0.4921,-0.5897,-0.6871,-0.7848,-0.874,-0.8911,-0.8911,-0.8915,-0.9257,-0.9432,-0.9519,-0.9694,-0.9864,-1.0038,-1.0038,-1.0038,-1.0081,-1.0154,-1.0182,-1.023,-1.0376,-1.04,-1.0305,-1.009,-1.0038,-1.0125,-1.0294,-1.012,0.0,-1.0294,-1.012,-1.0038,-1.0038,-1.0038,-1.0038,-1.0038,-1.0125,-1.0125,-1.0038,-1.0125,-1.0125,-1.0038,-1.0038,-1.0038,-1.0038,-1.0038,-1.012,0.0,0.0,0.0,0.0,0.0,0.0,0.0,0.0,0.0,0.0,0.0,0.0,0.0,0.0,0.0,0.0,0.0,0.0,0.0,0.0,0.0,0.0,-0.2102,-0.218,-0.2154,-0.2221,-0.2288,-0.2349,-0.2492,-0.2587,-0.2587,-0.2674,-0.273,-0.273,-0.2753,-0.2783,-0.2819,-0.2822,-0.2838,-0.2873,-0.2875,-0.2875,-0.2875,-0.2875,-0.2875,-0.2875,-0.2875,-0.2875,-0.2875,-0.2875,-0.2875,-0.2875,-0.2875,-0.2875,-0.2875,-0.2875,-0.2875,0.0,0.0,0.0,0.0,0.0,-0.2875,-0.2963,-0.3497,-0.43,-0.5275,-0.6163,-0.7139,-0.8032,-0.8648,-0.879,-0.8937,-0.9203,-0.9348,-0.9589,-0.9763,-0.9943,-1.0121,-1.0211,-1.0211,-1.0249,-1.0371,-1.04,-1.0433,-1.0551,-1.0575,0.0,-1.0253,-1.0211,-1.0389,-1.0741,-1.0479,-1.0389,-1.0741,-1.0479,-1.0211,-1.0211,-1.0211,-1.0211,-1.0211,-1.0389,0.0,0.0,0.0,-1.0309,-1.0043,-1.0038,0.0,0.0,0.0,-1.0125,-1.0381,0.0,0.0,0.0,-1.0055,-1.0325,0.0,0.0,0.0,0.0,0.0,0.0,0.0,0.0,0.0,0.0,0.0,0.0,0.0,0.0,0.0,0.0,-0.2203,-0.2241,-0.2406,-0.2441,-0.247,-0.2525,-0.2632,-0.2703,-0.2703,-0.2758,-0.2793,-0.2793,-0.2843,-0.2875,-0.2875,0.0,0.0,0.0,0.0,-0.2875,-0.2875,-0.2875,-0.2875,-0.2875,-0.2875,-0.2875,-0.2875,-0.288,-0.2884,-0.2884,-0.2891,-0.2894,-0.2894,-0.2894,-0.2894,-0.2892,-0.2886,-0.2888,-0.2894,-0.2894,-0.2894,-0.2894,-0.2894,0.0,0.0,-0.5402,-0.6385,-0.7368,-0.8355,-0.891,-0.9211,-0.9211,-0.9426,-0.9833,-1.0019,-1.0111,-1.0297,-1.0482,-1.0575,-1.0579,-1.0608,-1.0612,-1.0617,-1.0636,-1.0641,-1.0641,-1.0641,-1.0608,-1.0847,-1.1666,-1.1124,-1.0847,-1.1671,-1.1119,-1.0575,-1.0575,0.0,0.0,-1.0575,-1.0939,-1.1032,-1.0667,-1.0859,-1.0662,-1.0119,-1.0109,-1.0109,-1.0109,-1.0109,-1.0109,-1.0109,-1.0109,-1.0109,-1.0105,-1.0405,-1.0381,0.0,0.0,0.0,0.0,0.0,0.0,0.0,0.0,0.0,0.0,0.0,0.0,0.0,0.0,0.0,-0.2134,-0.2267,-0.2397,-0.2481,-0.2578,-0.2644,-0.2655,-0.2722,-0.2766,-0.2766,-0.2822,-0.2857,-0.2857,-0.2867,-0.2875,-0.2875,-0.2875,-0.2875,-0.2875,-0.2875,-0.2875,-0.2875,-0.2875,-0.2875,-0.2875,0.0,0.0,-0.2876,-0.2921,-0.2941,-0.2944,-0.2993,-0.3015,-0.3015,-0.3015,-0.3015,-0.3011,-0.2961,-0.2971,-0.3015,-0.3015,-0.3015,-0.3015,-0.3015,-0.367,-0.4603,-0.5725,-0.6656,-0.7588,-0.8714,-0.9019,0.0,-0.9136,-0.925,-0.9465,-0.9554,-0.9833,-1.0204,-1.0297,-1.0482,-1.0622,-1.0797,-1.0834,-1.0882,-1.1042,-1.1075,-1.1075,-1.1075,-1.0797,-1.0662,-1.0847,-1.0667,-1.0662,-1.0847,-1.0662,-1.0575,-1.0575,-1.0575,-1.0575,-1.0575,-1.0667,-1.0662,-1.0575,-1.0629,-1.0591,-1.0452,-1.0452,-1.0452,-1.0452,-1.0452,-1.0452,-1.0452,-1.0452,-1.0452,-1.0442,-1.0195,-1.0038,0.0,0.0,0.0,0.0,0.0,0.0,0.0,0.0,0.0,0.0,0.0,0.0061,0.0,0.0,-0.1637,-0.22,-0.2387,-0.2497,-0.2589,-0.268,-0.2737,-0.2737,-0.2792,-0.2828,-0.2828,-0.2856,-0.2875,-0.2875,-0.2875,-0.2875,-0.2875,-0.2875,-0.2875,-0.2875,-0.2875,-0.2887,-0.2916,-0.2916,-0.2932,-0.2962,-0.2962,-0.2962,-0.2962,-0.2991,-0.3004,-0.3099,-0.313,-0.3144,-0.3144,-0.3144,-0.3067,-0.3091,-0.3061,-0.3049,-0.3144,-0.3144,-0.3144,-0.3144,-0.3144,-0.3428,-0.3994,-0.4939,-0.5976,-0.7017,-0.7959,-0.8773,-0.9226,-0.9226,-0.9386,-0.9552,-0.9648,-0.9931,-1.0218,-1.041,-1.06,-1.0724,-1.1023,-1.1047,-1.1075,-1.1175,-1.1194,-1.1194,-1.1194,-1.1023,-1.0886,-1.0886,-1.0886,-1.0886,-1.0886,-1.0886,-1.0886,-1.0886,-1.0886,-1.0886,-1.0886,-1.0886,-1.0844,-1.074,-1.0735,-1.0683,-1.0579,-1.0575,-1.0575,-1.0575,-1.0575,-1.0575,-1.0575,-1.0575,-1.0575,-1.057,-1.0357,-1.0263,0.0,0.0,0.0,0.0,0.0,0.0,0.0,0.0,0.124,0.0951,0.0919,0.0573,-0.0533,-0.0818,-0.1198,-0.2261,-0.2488,-0.2571,-0.2694,-0.2752,-0.2788,-0.28,-0.2843,-0.2875,-0.2875,-0.2875,-0.2875,-0.2875,-0.2875,-0.2875,-0.2875,-0.2875,-0.2879,-0.289,-0.289,-0.2918,-0.2976,-0.2976,-0.3001,-0.3144,-0.3049,-0.3049,-0.3049,-0.3061,-0.3065,-0.3067,-0.3079,-0.3085,-0.3085,-0.3085,-0.3113,-0.3157,-0.3157,-0.3127,-0.3085,-0.3085,-0.3085,-0.3085,-0.3085,-0.3085,-0.3276,-0.4233,-0.5281,-0.6331,-0.7285,-0.8424,-0.9409,-0.9409,-0.9514,-0.9628,-0.9821,-0.992,-1.013,-1.056,-1.0766,-1.0874,-1.1208,-1.1217,-1.1217,-1.1316,-1.1316,-1.1316,-1.1316,-1.1316,-1.1288,-1.1208,-1.1194,-1.1194,-1.1194,-1.1194,-1.1194,-1.1194,-1.1194,-1.1194,-1.1194,-1.1194,-1.1127,-1.0962,-1.0953,-1.0877,-1.0702,-1.0697,-1.0697,-1.0697,-1.0697,-1.0697,-1.0697,-1.0697,-1.0697,-1.0697,-1.0697,-1.065,0.2801,0.2605,0.0,0.2633,0.224,0.1804,0.0,0.0,0.0951,0.0977,0.0642,0.0133,-0.0537,-0.107,-0.1661,-0.2333,-0.2552,-0.2634,-0.2756,-0.2779,-0.2804,-0.2857,-0.2869,-0.2875,-0.2875,-0.2875,-0.2875,-0.2875,-0.2875,-0.2875,-0.2875,-0.2875,-0.2898,-0.2947,-0.295,-0.2978,-0.3133,-0.3133,-0.3137,-0.3049,-0.2762,-0.2666,-0.2668,-0.2716,-0.2738,-0.274,-0.3086,-0.321,-0.321,-0.321,-0.3214,-0.3219,-0.3219,-0.3215,-0.321,-0.321,-0.321,-0.321,-0.321,-0.321,-0.341,-0.4405,-0.5497,-0.6583,-0.7575,-0.8682,-0.9596,-0.9596,-0.9612,-0.9628,-0.9628,-0.9821,-1.0061,-1.0335,-1.058,-1.0826,-1.1298,-1.1335,-1.1438,-1.1644,-1.1746,-1.1746,-1.1746,-1.1746,-1.1624,-1.125,-1.1194,-1.1194,-1.1194,-1.1194,-1.1194,-1.1194,-1.1194,-1.1194,-1.1194,-1.1194,-1.1184,-1.1161,-1.1161,-1.1151,-1.1127,-1.1127,-1.1127,-1.1127,-1.1127,-1.1127,-1.1127,-1.1127,-1.1127,-1.1127,-1.1127,-1.0924,0.2798,0.2662,0.0,0.0,0.2596,0.2325,0.1981,0.1926,0.179,0.1166,0.1087,0.0921,0.0072,-0.0593,-0.1227,0.0,-0.2368,-0.2516,-0.2164,-0.2549,-0.2667,-0.2332,-0.2604,-0.2875,-0.2875,-0.2875,-0.2875,-0.2875,-0.2875,-0.2875,-0.2875,-0.2817,-0.2844,-0.2958,-0.2805,-0.285,-0.3101,-0.2907,-0.2924,-0.2956,-0.2661,-0.2463,-0.2464,-0.2484,-0.2593,-0.2794,-0.3118,-0.323,-0.323,-0.323,-0.323,-0.323,-0.323,-0.3252,-0.3279,-0.3244,-0.323,-0.323,-0.323,-0.323,-0.323,-0.3732,-0.4632,-0.5541,-0.6002,-0.6934,-0.7766,-0.7849,-0.8392,-0.8911,-0.8911,-0.9524,-1.0161,-1.0446,-1.0566,-1.0793,-1.1282,-1.1403,-1.1507,-1.1714,-1.1817,-1.1817,-1.1817,-1.1817,-1.1756,-1.1581,-1.1557,-1.1557,-1.1557,-1.1557,-1.1557,-1.1557,-1.1557,-1.1557,-1.1557,-1.1557,-1.1557,-1.1557,-1.1449,-1.1383,-1.1383,-1.126,-1.1194,-1.1194,-1.1194,-1.1194,-1.1194,-1.1194,-1.1194,-1.1198,-1.1326,-1.1288,0.2802,0.0,0.0,0.2811,0.2667,0.247,0.2129,0.2219,0.2159,0.1303,0.1499,0.1482,0.0453,-0.0076,-0.0622,-0.1302,-0.1829,-0.1953,-0.1484,-0.2133,-0.2424,-0.1884,-0.2424,-0.2875,-0.2875,-0.2875,-0.2784,-0.2604,-0.2784,-0.2882,-0.2897,-0.2755,-0.279,-0.3007,-0.286,-0.2812,-0.2966,-0.2867,-0.2688,-0.2724,-0.2423,-0.2322,-0.2322,-0.2321,-0.2623,-0.2927,-0.313,-0.323,-0.3232,-0.3248,-0.3256,-0.3258,-0.3274,-0.3308,-0.3341,-0.3297,-0.3281,-0.3281,-0.3281,-0.3281,-0.3281,-0.3281,-0.3992,-0.4816,-0.4876,-0.5721,-0.6567,-0.655,-0.7419,-0.8374,-0.8374,-0.9321,-1.0281,-1.054,-1.0552,-1.067,-1.1348,-1.1467,-1.1567,-1.1882,-1.1987,-1.1987,-1.1987,-1.1987,-1.1987,-1.1987,-1.1987,-1.1945,-1.1831,-1.1817,-1.1817,-1.1817,-1.1817,-1.1817,-1.1817,-1.1817,-1.1817,-1.1817,-1.168,-1.16,-1.16,-1.1449,-1.1368,-1.1368,-1.1368,-1.1368,-1.1368,-1.1368,-1.1368,-1.1368,-1.1529,-1.16,0.0,0.0,0.2823,0.2826,0.2409,0.2064,0.2055,0.1882,0.164,0.1295,0.1487,0.1514,0.0454,0.0309,0.008,-0.0583,-0.0756,-0.0768,-0.0712,-0.1345,-0.1794,-0.1794,-0.2424,-0.2875,0.0,-0.2875,-0.2604,-0.1885,-0.2513,-0.2898,-0.2952,-0.2958,-0.3012,-0.3131,-0.3136,-0.2967,-0.2822,-0.2823,-0.2622,-0.2422,-0.2122,-0.2022,-0.2021,-0.2322,-0.2724,-0.323,-0.323,-0.323,-0.3236,-0.3294,-0.3319,-0.3324,-0.3384,-0.3409,-0.341,-0.3407,-0.3407,-0.3407,-0.3407,-0.3407,-0.3407,-0.3407,-0.4145,-0.4984,-0.4986,-0.5725,-0.6569,-0.6571,-0.7419,-0.8374,-0.8374,-0.9321,-1.0205,-1.0383,-1.0428,-1.058,-1.1402,-1.1551,-1.1769,-1.2313,-1.2417,-1.2417,-1.2417,-1.2417,-1.2417,-1.2417,-1.2417,-1.2276,-1.1869,-1.1817,-1.1817,-1.1817,-1.1817,-1.1817,-1.1817,-1.1817,-1.1817,-1.1817,-1.1813,-1.1808,-1.1808,-1.1803,-1.1798,-1.1798,-1.1798,-1.1798,-1.1798,-1.1798,-1.1798,-1.1798,-1.1803,-1.1808,0.2764,0.0,0.2856,0.2973,0.2877,0.2772,0.2604,0.2769,0.2706,0.1788,0.1983,0.2016,0.1086,0.0625,0.0239,0.0,-0.042,-0.0512,-0.0,-0.0628,-0.0897,-0.0359,-0.1436,0.0,0.0,0.0,0.0,-0.2513,-0.2784,-0.2899,-0.2955,-0.2809,-0.2864,-0.3136,-0.2781,-0.2707,-0.2826,-0.2424,-0.2223,-0.2122,-0.1819,-0.1819,-0.2022,-0.2322,-0.2642,-0.2981,-0.3188,-0.3313,-0.3353,-0.3373,-0.3382,-0.3384,-0.3405,-0.3436,-0.3469,-0.3469,-0.3493,-0.3518,-0.344,-0.3413,-0.3413,-0.3413,-0.3623,-0.3948,-0.3991,-0.4219,-0.4554,-0.4605,-0.5496,-0.659,-0.7351,-0.8442,-0.9548,-1.0373,-1.0607,-1.0732,-1.1118,-1.124,-1.1459,-1.2001,-1.2114,-1.2219,-1.2332,-1.2441,-1.2441,-1.2441,-1.2441,-1.2389,-1.2247,-1.2228,-1.2228,-1.2228,-1.2228,-1.2228,-1.2228,-1.2228,-1.2228,-1.2228,-1.2106,-1.203,-1.203,-1.1893,-1.1817,-1.1817,-1.1817,-1.1817,-1.1817,-1.1817,-1.1817,-1.1817,-1.1964,-1.203,0.2811,0.2872,0.2956,0.3103,0.3074,0.3031,0.2929,0.3176,0.3107,0.2067,0.2174,0.2276,0.1414,0.0943,0.0638,0.0668,0.0336,0.0171,0.0713,0.0179,-0.009,0.0359,-0.0897,-0.1615,0.0,0.0,0.0,-0.2513,-0.2802,-0.2929,-0.2988,-0.2858,-0.2914,-0.317,-0.2708,-0.2623,-0.2623,-0.2223,-0.1921,-0.1819,-0.1718,-0.1819,-0.2122,-0.2337,-0.2565,-0.2907,-0.3135,-0.3164,-0.3306,-0.3329,-0.3335,-0.3444,-0.3466,-0.3497,-0.3529,-0.3529,-0.3553,-0.3576,-0.3501,-0.3474,-0.3474,-0.3474,-0.3474,-0.3481,-0.3518,-0.3529,-0.3537,-0.3576,-0.4479,-0.5592,-0.6255,-0.7365,-0.8585,-0.9805,-1.0029,-1.0249,-1.0907,-1.1126,-1.1236,-1.1896,-1.2005,-1.2114,-1.2327,-1.2441,-1.2441,-1.2441,-1.2441,-1.2441,-1.2441,-1.2441,-1.2441,-1.2441,-1.2441,-1.2441,-1.2441,-1.2441,-1.2441,-1.2441,-1.2318,-1.2247,-1.2247,-1.2115,-1.2039,-1.2039,-1.2039,-1.2039,-1.2039,-1.2039,-1.2039,-1.2044,-1.2181,-1.2247,0.2838,0.2966,0.312,0.3211,0.3029,0.2848,0.2989,0.31,0.2893,0.21,0.2188,0.2268,0.0,0.0,0.1275,0.1336,0.1263,0.1283,0.1425,0.0896,0.0448,0.0,0.0,0.0,0.0,0.0,0.0,-0.1887,0.0,-0.2985,-0.314,-0.3106,-0.3168,-0.3229,-0.2927,-0.2623,-0.2422,-0.2122,-0.1819,-0.1617,-0.1617,-0.192,-0.2426,-0.247,-0.2596,-0.2916,-0.2967,-0.299,-0.2996,-0.3048,-0.3285,-0.3507,-0.3565,-0.3587,-0.3587,-0.3587,-0.3587,-0.3587,-0.3587,-0.3587,-0.3587,-0.3587,-0.3587,-0.3587,-0.3587,-0.3587,-0.3587,-0.3587,-0.448,-0.5371,-0.5371,-0.6255,-0.7362,-0.8585,-0.892,-0.9254,-1.0798,-1.1131,-1.124,-1.1896,-1.2005,-1.211,-1.2332,-1.2441,-1.2441,-1.2441,-1.2441,-1.2441,-1.2441,-1.2441,-1.2441,-1.2441,-1.2441,-1.2441,-1.2441,-1.2441,-1.2441,-1.2441,-1.2441,-1.2441,-1.2441,-1.2441,-1.2441,-1.2441,-1.2441,-1.2441,-1.2441,-1.2441,-1.2441,-1.2441,-1.2441,-1.2441,0.3049,0.3105,0.3213,0.3305,0.3373,0.3405,0.3391,0.3434,0.3238,0.238,0.2301,0.209,0.0,0.0,0.0,0.1304,0.1333,0.0,0.1397,0.1243,0.0,0.0448,0.0,-0.1166,-0.1705,-0.2424,0.0,0.0,-0.2858,-0.2985,-0.314,-0.3106,-0.3168,-0.3229,-0.2725,-0.2422,-0.2422,-0.1919,-0.1718,-0.1617,-0.1617,-0.1831,-0.2163,-0.2381,-0.2527,-0.27,-0.3144,-0.328,-0.31,-0.3337,-0.3564,-0.3565,-0.358,-0.3587,-0.3587,-0.3587,-0.3587,-0.3587,-0.3587,-0.3587,-0.3587,-0.3587,-0.3587,-0.3587,-0.3587,-0.3587,-0.3587,-0.3587,-0.3811,-0.4257,-0.5148,-0.5592,-0.6369,-0.8367,-0.892,-0.9254,-1.0578,-1.0802,-1.1021,-1.1568,-1.2001,-1.2332,-1.2436,-1.2441,-1.2441,-1.2441,-1.2441,-1.2441,-1.2441,-1.2441,-1.2441,-1.2441,-1.2441,-1.2441,-1.2441,-1.2441,-1.2441,-1.2441,-1.2441,-1.2441,-1.2441,-1.2441,-1.2441,-1.2441,-1.2441,-1.2441,-1.2441,-1.2441,-1.2441,-1.2441,-1.2441,-1.2441,0.3166,0.3218,0.3318,0.3446,0.3526,0.3495,0.3339,0.3341,0.311,0.2265,0.2112,0.0,0.0,0.0,0.0,0.0,0.0,0.0,0.1386,0.1416,0.1166,0.0,0.0,0.0,-0.1256,-0.1705,-0.1991,0.0,-0.233,-0.2456,-0.2602,-0.226,-0.2294,-0.2622,-0.212,-0.1918,-0.2019,-0.1717,-0.1617,-0.1617,-0.163,-0.185,-0.2283,-0.2426,-0.2577,-0.2627,0.0,-0.3222,-0.2915,-0.325,-0.3475,-0.3587,-0.3587,-0.3587,-0.3587,-0.3587,-0.3587,-0.3587,-0.3587,-0.3587,-0.3587,-0.3587,-0.3587,-0.3587,-0.3587,-0.3587,-0.3587,-0.3587,-0.3587,-0.3811,-0.448,-0.4592,-0.5037,-0.6924,-0.7368,-0.7811,-0.9585,-1.0029,-1.0464,-1.1568,-1.2114,-1.2441,-1.2441,-1.2441,-1.2441,-1.2441,-1.2441,-1.2441,-1.2441,-1.2441,-1.2441,-1.2441,-1.2441,-1.2441,-1.2441,-1.2441,-1.2441,-1.2441,-1.2441,-1.2441,-1.2441,-1.2441,-1.2441,-1.2441,-1.2441,-1.2441,-1.2441,-1.2441,-1.2441,-1.2441,-1.2441,-1.2441,0.3193,0.3311,0.3422,0.3585,0.3571,0.3461,0.3151,0.3027,0.2751,0.195,0.0,0.1673,0.1269,0.1203,0.1224,0.1281,0.0,0.1356,0.1381,0.1414,0.1166,0.0448,0.0359,0.009,-0.0628,-0.0719,-0.0727,-0.0742,-0.1229,-0.154,-0.1763,-0.1098,-0.1109,-0.1613,-0.1211,-0.1111,-0.1414,-0.1414,-0.1414,-0.1617,-0.1647,-0.1976,-0.2501,-0.2587,-0.2629,-0.2526,-0.3008,-0.3027,-0.2693,-0.3027,-0.3362,-0.3587,-0.3587,-0.3587,-0.3587,-0.3587,-0.3587,-0.3587,-0.3587,-0.3587,-0.3587,-0.3587,-0.3587,-0.3587,-0.3587,-0.3587,-0.3587,-0.3587,-0.3587,-0.3587,-0.3587,-0.3587,-0.3923,-0.5148,-0.5371,-0.6038,-0.8143,-0.903,-0.9911,-1.1673,-1.2219,-1.2441,-1.2441,-1.2441,-1.2441,-1.2441,-1.2441,-1.2441,-1.2441,-1.2441,-1.2441,-1.2441,-1.2441,-1.2441,-1.2441,-1.2441,-1.2441,-1.2441,-1.2441,-1.2441,-1.2441,-1.2441,-1.2441,-1.2441,-1.2441,-1.2441,-1.2441,-1.2441,-1.2441,-1.2441,-1.2441,-1.2441,0.3404,0.3407,0.3499,0.3601,0.3616,0.3515,0.3092,0.2947,0.0,0.0,0.0,0.1514,0.1201,0.1157,0.1186,0.1221,0.0,0.0,0.0,0.0,0.1166,0.0,0.0,0.0,0.0,0.0,0.0,0.0,-0.0193,-0.0195,-0.0882,-0.0798,-0.0605,-0.0,0.0101,-0.0,-0.0303,-0.0303,-0.0706,-0.1617,-0.1647,-0.1883,-0.2229,-0.2492,-0.2425,-0.2346,-0.3135,0.0,-0.2693,-0.3251,-0.3587,-0.3587,-0.3587,-0.3587,-0.3587,-0.3587,-0.3587,-0.3587,-0.3587,-0.3587,-0.3587,-0.3587,-0.3587,-0.3587,-0.3587,-0.3587,-0.3587,-0.3587,-0.3587,-0.3587,-0.3587,-0.3587,-0.3923,-0.5148,-0.5371,-0.5815,-0.7141,-0.8579,-1.0127,-1.1455,-1.211,-1.2441,-1.2441,-1.2441,-1.2441,-1.2441,-1.2441,-1.2441,-1.2441,-1.2441,-1.2441,-1.2441,-1.2441,-1.2441,-1.2441,-1.2441,-1.2441,-1.2441,-1.2441,-1.2441,-1.2441,-1.2441,-1.2441,-1.2441,-1.2441,-1.2441,-1.2441,-1.2441,-1.2441,-1.2441,-1.2441,-1.2441,0.3357,0.3397,0.345,0.3538,0.3524,0.3334,0.2793,0.0,0.0,0.0,0.0,0.1289,0.1115,0.0,0.0,0.0,0.0,0.0,0.0,0.0,0.0,0.0,0.0,0.0,0.0,0.0,0.0,0.0381,0.0777,0.069,-0.0099,0.01,0.0504,0.1008,0.0907,0.0806,0.0806,0.0806,0.0303,-0.0808,-0.0935,-0.148,-0.2239,-0.2628,-0.2671,-0.2469,-0.3139,-0.3139,-0.2915,-0.325,-0.3474,-0.3587,-0.3587,-0.3587,-0.3587,-0.3587,-0.3587,-0.3587,-0.3587,-0.3587,-0.3587,-0.3587,-0.3587,-0.3587,-0.3587,-0.3587,-0.3587,-0.3587,-0.3587,-0.3587,-0.3587,-0.3587,-0.3699,-0.4369,-0.4925,-0.5592,-0.6253,-0.7802,-0.9464,-1.0676,-1.1341,-1.1891,-1.2332,-1.2441,-1.2441,-1.2441,-1.2441,-1.2441,-1.2441,-1.2441,-1.2441,-1.2441,-1.2441,-1.2441,-1.2441,-1.2441,-1.2441,-1.2441,-1.2441,-1.2441,-1.2441,-1.2441,-1.2441,-1.2441,-1.2441,-1.2441,-1.2441,-1.2441,-1.2441,-1.2441,-1.2441,-1.2441,0.3264,0.3348,0.3385,0.3405,0.343,0.3155,0.2384,0.2198,0.0,0.0,0.1076,0.1083,0.1107,0.0,0.0,0.0,0.0,0.0,0.0,0.0,0.0,0.0,0.0,0.0,0.0,0.0,0.0,0.1524,0.156,0.1293,0.0707,0.1211,0.1613,0.1917,0.1813,0.1813,0.1916,0.1916,0.1411,0.0303,0.0105,-0.0745,-0.1919,-0.2427,-0.269,-0.2806,-0.3138,-0.3138,-0.3137,-0.3138,-0.3362,-0.3587,-0.3587,-0.3587,-0.3587,-0.3587,-0.3587,-0.3587,-0.3587,-0.3587,-0.3587,-0.3587,-0.3587,-0.3587,-0.3587,-0.3587,-0.3587,-0.3587,-0.3587,-0.3587,-0.3587,-0.3587,-0.3587,-0.3587,-0.4369,-0.5148,-0.5813,-0.703,-0.8468,-0.9794,-1.046,-1.1122,-1.2001,-1.211,-1.2219,-1.2332,-1.2441,-1.2441,-1.2441,-1.2441,-1.2441,-1.2441,-1.2441,-1.2441,-1.2441,-1.2441,-1.2441,-1.2441,-1.2441,-1.2441,-1.2441,-1.2441,-1.2441,-1.2441,-1.2441,-1.2441,-1.2441,-1.2441,-1.2441,-1.2441,-1.2441,-1.2441,0.3187,0.3301,0.3315,0.3112,0.3214,0.3083,0.2033,0.0,0.0,0.1277,0.1076,0.1076,0.1079,0.0,0.0,0.0,0.0,0.1316,0.0,0.0,0.0,0.0,0.0,0.0,0.0,0.0,0.0,0.1525,0.158,0.1614,0.1516,0.2019,0.2522,0.3029,0.353,0.3527,0.3022,0.3022,0.2519,0.1412,0.1464,0.0531,-0.1064,-0.1102,-0.1791,-0.3026,-0.3362,-0.3362,0.0,-0.3474,-0.3587,-0.3587,-0.3587,-0.3587,-0.3587,-0.3587,-0.3587,-0.3587,-0.3587,-0.3587,-0.3587,-0.3587,-0.3587,-0.3587,-0.3587,-0.3587,-0.3587,-0.3587,-0.3587,-0.3587,-0.3587,-0.3587,-0.3587,-0.3587,-0.3699,-0.4257,-0.5929,-0.6591,-0.7365,-0.9137,-0.9688,-1.0241,-1.1017,-1.1236,-1.1455,-1.2332,-1.2441,-1.2441,-1.2441,-1.2441,-1.2441,-1.2441,-1.2441,-1.2441,-1.2441,-1.2441,-1.2441,-1.2441,-1.2441,-1.2441,-1.2441,-1.2441,-1.2441,-1.2441,-1.2441,-1.2441,-1.2441,-1.2441,-1.2441,-1.2441,-1.2441,-1.2441,0.3031,0.3041,0.2887,0.2828,0.2756,0.2463,0.1778,0.0,0.1681,0.121,0.1076,0.1076,0.1076,0.1125,0.0,0.0,0.0,0.0,0.0,0.0,0.0,0.0,0.0,0.0,0.0,0.0,0.1541,0.1578,0.1603,0.1617,0.1617,0.212,0.2623,0.323,0.3732,0.4031,0.413,0.413,0.3626,0.252,0.2507,0.1805,0.0638,-0.011,-0.0895,-0.1791,-0.2353,-0.2803,0.0,-0.3362,-0.3362,-0.3587,-0.3587,-0.3587,-0.3587,-0.3587,-0.3587,-0.3587,-0.3587,-0.3587,-0.3587,-0.3587,-0.3587,-0.3587,-0.3587,-0.3587,-0.3587,-0.3587,-0.3587,-0.3587,-0.3587,-0.3587,-0.3587,-0.3587,-0.3587,-0.3811,-0.448,-0.5371,-0.6258,-0.7587,-0.8475,-0.9254,-1.0131,-1.0351,-1.0574,-1.1455,-1.1673,-1.1782,-1.2332,-1.2441,-1.2441,-1.2441,-1.2441,-1.2441,-1.2441,-1.2441,-1.2441,-1.2441,-1.2441,-1.2441,-1.2441,-1.2441,-1.2441,-1.2441,-1.2441,-1.2441,-1.2441,-1.2441,-1.2441,-1.2441,-1.2441,-1.2441,0.2666,0.2672,0.2593,0.2443,0.2272,0.2087,0.0,0.0,0.148,0.1143,0.1076,0.1076,0.1076,0.1125,0.1166,0.1166,0.0,0.1303,0.1258,0.0,0.0,0.0,0.0,0.1436,0.0,0.149,0.1551,0.1612,0.1617,0.1617,0.1617,0.1919,0.2523,0.313,0.3732,0.4234,0.4834,0.4834,0.4431,0.3627,0.3552,0.2974,0.2021,0.1102,0.0224,-0.0672,-0.1569,-0.2353,0.0,-0.325,-0.3362,-0.3587,-0.3587,-0.3587,-0.3587,-0.3587,-0.3587,-0.3587,-0.3587,-0.3587,-0.3587,-0.3587,-0.3587,-0.3587,-0.3587,-0.3587,-0.3587,-0.3587,-0.3587,-0.3587,-0.3587,-0.3587,-0.3587,-0.3587,-0.3587,-0.3699,-0.4033,-0.4814,-0.5704,-0.6705,-0.7482,-0.8371,-0.9251,-0.9471,-0.9691,-1.0574,-1.0684,-1.1013,-1.1891,-1.2001,-1.2114,-1.2332,-1.2441,-1.2441,-1.2441,-1.2441,-1.2441,-1.2441,-1.2441,-1.2441,-1.2441,-1.2441,-1.2441,-1.2441,-1.2441,-1.2474,-1.2535,-1.2535,-1.2569,-1.2625,-1.2625,-1.2625,0.2,0.2219,0.2452,0.1805,0.191,0.2018,0.0,0.0,0.148,0.1143,0.1076,0.1076,0.1076,0.1125,0.1166,0.1166,0.1294,0.0,0.1339,0.0,0.0,0.0,0.0,0.1436,0.1436,0.149,0.1551,0.1612,0.1617,0.0,0.1617,0.1617,0.2121,0.313,0.3732,0.4234,0.4834,0.4834,0.4834,0.4736,0.502,0.4358,0.287,0.2424,0.1344,-0.0112,-0.1567,-0.224,0.0,-0.325,-0.3587,-0.3587,-0.3587,-0.3587,-0.3587,-0.3587,-0.3587,-0.3587,-0.3587,-0.3587,-0.3587,-0.3587,-0.3587,-0.3587,-0.3587,-0.3587,-0.3587,-0.3587,-0.3587,-0.3587,-0.3587,-0.3587,-0.3587,-0.3587,-0.3587,-0.3921,-0.5148,-0.5371,-0.5706,-0.6932,-0.7154,-0.7487,-0.8374,-0.8484,-0.8813,-0.9688,-0.9798,-1.0131,-1.1017,-1.1126,-1.1455,-1.2327,-1.2441,-1.2441,-1.2441,-1.2441,-1.2441,-1.2441,-1.2441,-1.2441,-1.2441,-1.2441,-1.2441,-1.2441,-1.2441,-1.2545,-1.2767,-1.2767,-1.2866,-1.306,-1.306,-1.306,0.1921,0.1848,0.1767,0.1643,0.1537,0.1412,0.1143,0.0,0.121,0.1143,0.1076,0.1076,0.1076,0.1125,0.1166,0.1166,0.1293,0.0,0.0,0.0,0.0,0.0,0.1436,0.1452,0.0,0.0,0.1551,0.1612,0.1617,0.1617,0.1617,0.1617,0.1919,0.2623,0.3128,0.3732,0.4234,0.4634,0.4834,0.4836,0.502,0.4894,0.4363,0.3529,0.2576,0.1456,0.0112,-0.112,-0.224,-0.2576,-0.3025,-0.3587,-0.3587,-0.3587,-0.3587,-0.3587,-0.3587,-0.3587,-0.3587,-0.3587,-0.3587,-0.3587,-0.3587,-0.3587,-0.3587,-0.3587,-0.3587,-0.3587,-0.3587,-0.3587,-0.3587,-0.3587,-0.3587,-0.3587,-0.3587,-0.3699,-0.4033,-0.4814,-0.5483,-0.5929,-0.6596,-0.7265,-0.7598,-0.7598,-0.7928,-0.8813,-0.8923,-0.9251,-1.0131,-1.0241,-1.057,-1.1455,-1.1455,-1.1782,-1.2327,-1.2441,-1.2441,-1.2441,-1.2441,-1.2441,-1.2441,-1.2583,-1.2663,-1.2663,-1.28,-1.2899,-1.297,-1.297,-1.3003,-1.3065,-1.3065,-1.3145,0.0,0.1513,0.1367,0.1356,0.1258,0.0,0.0,0.0,0.1076,0.1076,0.1076,0.1076,0.1076,0.1125,0.1166,0.1166,0.1227,0.1292,0.0,0.0,0.0,0.0,0.0,0.0,0.0,0.1526,0.1551,0.1612,0.1617,0.1617,0.1617,0.1617,0.1717,0.212,0.2624,0.3229,0.4033,0.4334,0.4634,0.4836,0.502,0.5108,0.5114,0.4082,0.325,0.2688,0.1121,-0.0224,0.0,-0.1904,-0.2576,-0.3137,-0.3475,-0.3587,-0.3587,-0.3587,-0.3587,-0.3587,-0.3587,-0.3587,-0.3587,-0.3587,-0.3587,-0.3587,-0.3587,-0.3587,-0.3587,-0.3587,-0.3587,-0.3587,-0.3587,-0.3587,-0.3587,-0.3587,-0.3587,-0.3699,-0.3923,-0.4702,-0.5483,-0.5706,-0.6485,-0.7154,-0.7154,-0.7154,-0.7376,-0.7931,-0.8042,-0.8371,-0.9251,-0.9361,-0.9691,-1.0574,-1.0574,-1.1013,-1.1891,-1.2219,-1.2441,-1.2441,-1.2441,-1.2479,-1.2559,-1.2696,-1.2805,-1.288,-1.3003,-1.3107,-1.3188,-1.3268,-1.3301,-1.3301,-1.3301,-1.3372,0.0,0.0,0.0,0.0,0.0,0.0,0.0,0.0,0.0,0.0,0.1076,0.1076,0.1078,0.1127,0.1167,0.1169,0.1244,0.1313,0.0,0.1374,0.0,0.0,0.1436,0.0,0.1517,0.1525,0.1551,0.1609,0.1615,0.1617,0.1617,0.1617,0.1617,0.1617,0.212,0.2823,0.3831,0.3932,0.4234,0.4736,0.502,0.5108,0.5114,0.4082,0.3587,0.0,0.1457,0.0449,0.0,-0.1344,-0.2128,-0.224,-0.3138,-0.3587,-0.3587,-0.3587,-0.3587,-0.3587,-0.3587,-0.3587,-0.3587,-0.3587,-0.3587,-0.3587,-0.3587,-0.3587,-0.3587,-0.3587,-0.3587,-0.3587,-0.3587,-0.3587,-0.3587,-0.3587,-0.3587,-0.3699,-0.4369,-0.4925,-0.5483,-0.6151,-0.6707,-0.7154,-0.7154,-0.7154,-0.7154,-0.7154,-0.7154,-0.7487,-0.8263,-0.8374,-0.8702,-0.9578,-0.9688,-1.0021,-1.0907,-1.1782,-1.2332,-1.2441,-1.2455,-1.2554,-1.2762,-1.2795,-1.2899,-1.3088,-1.3102,-1.3211,-1.341,-1.3599,-1.3688,-1.3688,-1.3688,-1.3688,0.0898,0.0,0.1055,0.1017,0.1049,0.0,0.0,0.0,0.0,0.0,0.0,0.1082,0.1106,0.1141,0.1174,0.1198,0.1258,0.1313,0.126,0.0,0.0,0.1435,0.1436,0.145,0.1487,0.1513,0.1542,0.1579,0.1604,0.1617,0.1617,0.1617,0.1617,0.1617,0.1717,0.212,0.2724,0.363,0.4033,0.4236,0.4812,0.5108,0.5114,0.4082,0.3587,0.3475,0.213,0.1009,0.0336,-0.0,-0.1009,-0.224,-0.2464,-0.2913,-0.3587,-0.3587,-0.3587,-0.3587,-0.3587,-0.3587,-0.3587,-0.3587,-0.3587,-0.3587,-0.3587,-0.3587,-0.3587,-0.3587,-0.3587,-0.3587,-0.3587,-0.3587,-0.3587,-0.3587,-0.3587,-0.3587,-0.3811,-0.4257,-0.4925,-0.5483,-0.6151,-0.6707,-0.7154,-0.7154,-0.7154,-0.7154,-0.7154,-0.7265,-0.7487,-0.7487,-0.782,-0.8702,-0.8813,-0.914,-1.0021,-1.0903,-1.1673,-1.2332,-1.2597,-1.2715,-1.2767,-1.3074,-1.3263,-1.331,-1.3466,-1.3566,-1.3618,-1.3665,-1.3688,-1.3688,-1.3688,-1.3688,0.0561,0.0765,0.0992,0.1009,0.1044,0.1076,0.0,0.0,0.0,0.0,0.0,0.0,0.1115,0.1146,0.1181,0.1226,0.1284,0.0,0.0,0.0,0.0,0.1436,0.1436,0.1453,0.0,0.1516,0.1545,0.1589,0.1607,0.1617,0.1617,0.1617,0.1617,0.1617,0.1617,0.202,0.2725,0.3127,0.3629,0.4336,0.4605,0.4896,0.5114,0.4302,0.381,0.3587,0.258,0.1795,0.1009,0.0561,-0.0112,-0.112,-0.1904,-0.2464,-0.3025,-0.3474,-0.3587,-0.3587,-0.3587,-0.3587,-0.3587,-0.3587,-0.3587,-0.3587,-0.3587,-0.3587,-0.3587,-0.3587,-0.3587,-0.3587,-0.3587,-0.3587,-0.3587,-0.3587,-0.3587,-0.3587,-0.3587,-0.4033,-0.459,-0.4925,-0.5706,-0.6374,-0.6707,-0.7043,-0.7154,-0.7154,-0.7154,-0.7154,-0.7154,-0.7154,-0.7376,-0.782,-0.7931,-0.826,-0.914,-1.0021,-1.0903,-1.1782,-1.2423,-1.281,-1.2904,-1.3216,-1.3433,-1.3523,-1.3632,-1.3688,-1.3688,-1.3688,-1.3688,-1.3688,-1.3688,-1.3688,0.0112,0.0528,0.0982,0.0925,0.0965,0.107,0.0,0.0,0.0,0.0,0.0,0.0,0.0,0.0,0.0,0.0,0.0,0.0,0.1427,0.1436,0.1436,0.1436,0.1436,0.0,0.1507,0.1521,0.1547,0.1599,0.1611,0.1617,0.1617,0.1617,0.1617,0.1617,0.1617,0.2121,0.3029,0.2724,0.3126,0.4435,0.4395,0.4579,0.5008,0.4632,0.4145,0.3587,0.0,0.0,0.1683,0.0897,0.0561,0.0224,-0.1345,-0.2128,-0.2352,-0.325,-0.3587,-0.3587,-0.3587,-0.3587,-0.3587,-0.3587,-0.3587,-0.3587,-0.3587,-0.3587,-0.3587,-0.3587,-0.3587,-0.3587,-0.3587,-0.3587,-0.3587,-0.3587,-0.3587,-0.3587,-0.3587,-0.4033,-0.4369,-0.4479,-0.5371,-0.6151,-0.6262,-0.6707,-0.7043,-0.7154,-0.7154,-0.7043,-0.7154,-0.7154,-0.7154,-0.7154,-0.7154,-0.7487,-0.8263,-0.9161,-1.0059,-1.0839,-1.2135,-1.2918,-1.315,-1.3339,-1.3514,-1.3688,-1.3688,-1.3688,-1.3688,-1.3688,-1.3688,-1.3688,-1.3688,-1.3688,-0.0224,0.0288,0.0837,0.0491,0.0697,0.1046,0.0,0.0,0.0,0.0,0.0,0.0,0.0,0.0,0.0,0.0,0.0,0.1395,0.0,0.0,0.1436,0.1436,0.0,0.1439,0.1448,0.1495,0.153,0.1539,0.1588,0.1617,0.1617,0.1617,0.1617,0.1617,0.1617,0.1919,0.2522,0.2927,0.2927,0.2825,0.429,0.479,0.4479,0.4522,0.4145,0.3587,0.0,0.2356,0.1795,0.1683,0.1121,0.0336,-0.0673,-0.1569,-0.2352,-0.325,-0.3587,-0.3587,-0.3587,-0.3587,-0.3587,-0.3587,-0.3587,-0.3587,-0.3587,-0.3587,-0.3587,-0.3587,-0.3587,-0.3587,-0.3587,-0.3587,-0.3587,-0.3587,-0.3587,-0.3587,-0.3587,-0.3699,-0.3923,-0.4369,-0.5037,-0.5706,-0.6262,-0.6374,-0.6599,-0.7154,-0.6821,-0.6596,-0.7154,-0.7154,-0.7154,-0.7154,-0.7154,-0.7265,-0.7376,-0.8258,-0.9229,-1.0238,-1.1994,-1.3192,-1.3575,-1.3622,-1.3655,-1.3688,-1.3688,-1.3688,-1.3688,-1.3688,-1.3688,-1.3688,-1.3688,-1.3688,-0.0673,0.0057,0.0755,0.0061,0.0442,0.1041,0.0,0.0,0.0,0.0,0.0,0.0,0.0,0.0,0.0,0.0,0.0,0.1419,0.1433,0.1436,0.1436,0.0,0.0,0.1442,0.1458,0.1485,0.1508,0.1525,0.1567,0.1592,0.1592,0.1608,0.1617,0.1617,0.1617,0.1718,0.1918,0.2523,0.2826,0.2826,0.3421,0.3904,0.4264,0.437,0.4109,0.3587,0.0,0.2692,0.1795,0.1795,0.157,0.1121,0.0112,-0.0785,-0.1681,-0.3026,-0.3587,-0.3587,-0.3587,-0.3587,-0.3587,-0.3587,-0.3587,-0.3587,-0.3587,-0.3587,-0.3587,-0.3587,-0.3587,-0.3587,-0.3587,-0.3587,-0.3587,-0.3587,-0.3587,-0.3587,-0.3587,-0.3587,-0.3699,-0.3921,-0.448,-0.5148,-0.5706,-0.604,-0.6485,-0.7154,-0.6932,-0.693,-0.7154,-0.7154,-0.7154,-0.7154,-0.7154,-0.7154,-0.7154,-0.8167,-0.9332,-1.0993,-1.2481,-1.3377,-1.3674,-1.3688,-1.3688,-1.3688,-1.3688,-1.3688,-1.3688,-1.3688,-1.3688,-1.3688,-1.3688,-1.3688,-0.1233,-0.0392,0.0455,-0.0241,0.0,0.0,0.0,0.0,0.0,0.0,0.0,0.0,0.0,0.0,0.0,0.1345,0.1401,0.1436,0.1436,0.1436,0.1436,0.1436,0.1436,0.1444,0.1468,0.1476,0.1491,0.1514,0.1543,0.1564,0.1571,0.1594,0.1609,0.1616,0.1617,0.1617,0.1617,0.2019,0.2423,0.2827,0.2777,0.314,0.3943,0.4118,0.3859,0.3363,0.3363,0.2803,0.1795,0.1795,0.1795,0.1683,0.0785,-0.0224,-0.1345,-0.3026,-0.3587,-0.3587,-0.3587,-0.3587,-0.3587,-0.3587,-0.3587,-0.3587,-0.3587,-0.3587,-0.3587,-0.3587,-0.3587,-0.3587,-0.3587,-0.3587,-0.3587,-0.3587,-0.3587,-0.3587,-0.3587,-0.3587,-0.3587,-0.3587,-0.4033,-0.4702,-0.526,-0.5706,-0.6151,-0.7043,-0.6932,-0.6932,-0.7154,-0.7154,-0.7154,-0.7154,-0.7154,-0.7179,-0.7233,-0.8375,-0.9827,-1.152,-1.274,-1.3528,-1.3679,-1.3688,-1.3688,-1.3688,-1.3688,-1.3688,-1.3688,-1.3688,-1.3688,-1.3688,-1.3688,-1.3688,-0.2015,-0.1232,-0.0339,-0.041,0.0,0.0,0.0,0.0,0.0,0.0,0.0,0.0,0.0,0.0,0.1349,0.1382,0.1414,0.1436,0.1436,0.0,0.1436,0.1436,0.1436,0.1436,0.1438,0.1464,0.1482,0.1484,0.1512,0.1542,0.157,0.1574,0.1588,0.1615,0.1617,0.1617,0.1617,0.1617,0.1718,0.1718,0.2775,0.3139,0.2773,0.3254,0.331,0.2806,0.2806,0.2357,0.1795,0.1795,0.1795,0.1683,0.0785,-0.0672,-0.2241,-0.325,-0.3587,-0.3587,-0.3587,-0.3587,-0.3587,-0.3587,-0.3587,-0.3587,-0.3587,-0.3587,-0.3587,-0.3587,-0.3587,-0.3587,-0.3587,-0.3587,-0.3587,-0.3587,-0.3587,-0.3587,-0.3587,-0.3587,-0.3587,-0.3587,-0.4033,-0.4702,-0.526,-0.4925,-0.526,-0.6932,-0.6262,-0.5929,-0.7043,-0.7154,-0.7154,-0.7154,-0.7154,-0.7247,-0.7472,-0.9359,-1.058,-1.088,-1.2582,-1.3674,-1.3688,-1.3688,-1.3688,-1.3688,-1.3688,-1.3688,-1.3688,-1.3688,-1.3688,-1.3688,-1.3688,-1.3688,-0.2071,-0.112,-0.0113,0.0,0.0,0.0,0.0,0.0,0.0,0.0,0.0,0.0,0.0,0.0,0.1378,0.1388,0.1415,0.1436,0.1436,0.1436,0.1436,0.1436,0.1436,0.1436,0.1436,0.1446,0.1453,0.1453,0.148,0.1503,0.1515,0.1551,0.1577,0.1588,0.1607,0.1617,0.1617,0.1617,0.1617,0.1617,0.2034,0.2369,0.2621,0.2881,0.2825,0.2653,0.2681,0.2356,0.1795,0.1795,0.1795,0.1683,0.0224,-0.0785,-0.1569,-0.3026,-0.3587,-0.3587,-0.3587,-0.3587,-0.3587,-0.3587,-0.3587,-0.3587,-0.3587,-0.3587,-0.3587,-0.3587,-0.3587,-0.3587,-0.3587,-0.3587,-0.3587,-0.3587,-0.3587,-0.3587,-0.3587,-0.3587,-0.3587,-0.3587,-0.3811,-0.4145,-0.4702,-0.4925,-0.5371,-0.6485,-0.6262,-0.6262,-0.7043,-0.6821,-0.6821,-0.7154,-0.7222,-0.7334,-0.7505,-0.8803,-1.0014,-1.0778,-1.2599,-1.3688,-1.3688,-1.3688,-1.3688,-1.3688,-1.3688,-1.3688,-1.3688,-1.3688,-1.3688,-1.3688,-1.3688,-1.3688,-0.1959,-0.1008,-0.0,0.0,0.0,0.0,0.0,0.0,0.0,0.0,0.0,0.0,0.0,0.0,0.0,0.0,0.1422,0.1436,0.1436,0.1436,0.1436,0.1436,0.1436,0.1436,0.1436,0.1436,0.1436,0.1436,0.1455,0.147,0.148,0.152,0.1551,0.157,0.1592,0.1607,0.1617,0.1617,0.1617,0.1617,0.1617,0.1836,0.2285,0.2325,0.2367,0.2299,0.245,0.2132,0.1795,0.1795,0.1795,0.157,-0.0224,-0.0897,-0.1121,-0.2914,-0.3587,-0.3587,-0.3587,-0.3587,-0.3587,-0.3587,-0.3587,-0.3587,-0.3587,-0.3587,-0.3587,-0.3587,-0.3587,-0.3587,-0.3587,-0.3587,-0.3587,-0.3587,-0.3587,-0.3587,-0.3587,-0.3587,-0.3587,-0.3587,-0.3587,-0.3811,-0.4369,-0.4702,-0.5148,-0.6151,-0.6151,-0.6262,-0.6821,-0.6707,-0.6723,-0.7209,-0.732,-0.7442,-0.7568,-0.8515,-0.959,-1.0781,-1.2359,-1.3329,-1.3688,-1.3688,-1.3688,-1.3688,-1.3688,-1.3688,-1.3688,-1.3688,-1.3688,-1.3688,-1.3688,-1.3688,-0.1679,-0.1008,0.0,0.0,0.0,0.0,0.0,0.0,0.0,0.0,0.0,0.0,0.0,0.0,0.0,0.143,0.1436,0.1436,0.1436,0.1436,0.1436,0.1436,0.1436,0.1436,0.1436,0.1436,0.1436,0.1436,0.1436,0.1448,0.1478,0.148,0.1508,0.1568,0.1571,0.1585,0.1616,0.1617,0.1617,0.1617,0.1617,0.1633,0.1662,0.1691,0.172,0.1751,0.1781,0.1795,0.1795,0.1795,0.1795,0.157,-0.0224,-0.0897,-0.1121,-0.2914,-0.3587,-0.3587,-0.3587,-0.3587,-0.3587,-0.3587,-0.3587,-0.3587,-0.3587,-0.3587,-0.3587,-0.3587,-0.3587,-0.3587,-0.3587,-0.3587,-0.3587,-0.3587,-0.3587,-0.3587,-0.3587,-0.3587,-0.3587,-0.3587,-0.3587,-0.3811,-0.4369,-0.4033,-0.4257,-0.604,-0.5817,-0.5594,-0.6262,-0.6818,-0.7201,-0.7323,-0.7445,-0.7568,-0.7693,-0.8654,-0.97,-1.0789,-1.1631,-1.2599,-1.3688,-1.3688,-1.3688,-1.3688,-1.3688,-1.3688,-1.3688,-1.3688,-1.3688,-1.3688,-1.3688,-1.3688,-0.179,-0.1008,0.0,0.0,0.0,0.0,0.0,0.0,0.0,0.0,0.0,0.0,0.0,0.0,0.0,0.1433,0.1436,0.1436,0.1436,0.1436,0.1436,0.1436,0.1436,0.1436,0.1436,0.1436,0.1436,0.1436,0.1436,0.1439,0.1448,0.1469,0.1489,0.1507,0.1549,0.1576,0.1585,0.1606,0.1617,0.1617,0.1617,0.1622,0.1631,0.1661,0.169,0.1719,0.175,0.1775,0.1795,0.1795,0.1795,0.1683,0.0449,-0.0336,-0.1009,-0.2241,-0.3025,-0.3587,-0.3587,-0.3587,-0.3587,-0.3587,-0.3587,-0.3587,-0.3587,-0.3587,-0.3587,-0.3587,-0.3587,-0.3587,-0.3587,-0.3587,-0.3587,-0.3587,-0.3587,-0.3587,-0.3587,-0.3587,-0.3587,-0.3587,-0.3587,-0.3699,-0.381,-0.4033,-0.4369,-0.4925,-0.526,-0.5483,-0.5594,-0.6596,-0.7089,-0.6752,-0.7214,-0.7568,-0.7693,-0.8049,-0.8967,-1.0668,-1.1027,-1.1997,-1.3688,-1.3688,-1.3688,-1.3688,-1.3688,-1.3688,-1.3688,-1.3688,-1.3688,-1.3688,-1.3688,-1.3688,-0.1287,0.0,0.0,0.0,0.0,0.0,0.0,0.0,0.0,0.0,0.0,0.0,0.0,0.0,0.0,0.1436,0.1436,0.1436,0.1436,0.1436,0.1436,0.1436,0.1436,0.1436,0.1436,0.1436,0.1436,0.1436,0.1436,0.1436,0.1436,0.1453,0.1468,0.148,0.1517,0.1547,0.1571,0.159,0.1605,0.1617,0.1617,0.1617,0.1618,0.1648,0.1671,0.169,0.1731,0.1767,0.1795,0.1795,0.1795,0.1683,0.0785,0.0112,-0.0561,-0.1792,-0.2576,-0.3137,-0.3475,-0.3587,-0.3587,-0.3587,-0.3587,-0.3587,-0.3587,-0.3587,-0.3587,-0.3587,-0.3587,-0.3587,-0.3587,-0.3587,-0.3587,-0.3587,-0.3587,-0.3587,-0.3587,-0.3587,-0.3587,-0.3587,-0.3587,-0.3587,-0.3587,-0.3923,-0.4257,-0.4479,-0.5037,-0.5371,-0.5371,-0.6262,-0.6768,-0.647,-0.7124,-0.7587,-0.7755,-0.7831,-0.8723,-1.0668,-1.0789,-1.1635,-1.3569,-1.3688,-1.3688,-1.3688,-1.3688,-1.3688,-1.3688,-1.3688,-1.3688,-1.3688,-1.3688,-1.3688,-0.056,0.0,0.0,0.0,0.0,0.0,0.0,0.0,0.0,0.0,0.0,0.0,0.0,0.1397,0.1436,0.1436,0.1436,0.1436,0.1436,0.1436,0.1436,0.1436,0.1436,0.1436,0.1436,0.1436,0.1436,0.1436,0.1436,0.1436,0.1436,0.1436,0.1448,0.1476,0.1479,0.1508,0.1567,0.157,0.1587,0.1617,0.1617,0.1617,0.1618,0.1645,0.1661,0.1669,0.1725,0.1767,0.1795,0.1795,0.1795,0.1683,0.0897,0.0449,0.0224,-0.1456,-0.2128,-0.2352,-0.325,-0.3587,-0.3587,-0.3587,-0.3587,-0.3587,-0.3587,-0.3587,-0.3587,-0.3587,-0.3587,-0.3587,-0.3587,-0.3587,-0.3587,-0.3587,-0.3587,-0.3587,-0.3587,-0.3587,-0.3587,-0.3587,-0.3587,-0.3587,-0.3587,-0.3587,-0.3811,-0.4369,-0.4925,-0.5371,-0.5371,-0.5929,-0.6346,-0.6441,-0.7049,-0.7496,-0.7728,-0.7869,-0.872,-1.0547,-1.0789,-1.1635,-1.3444,-1.3688,-1.3688,-1.3688,-1.3688,-1.3688,-1.3688,-1.3688,-1.3688,-1.3688,-1.3688,-1.3688,0.0,0.0,0.0,0.0,0.0,0.0,0.0,0.0,0.0,0.0,0.0,0.0,0.1377,0.1411,0.1436,0.1436,0.1436,0.1436,0.1436,0.1436,0.1436,0.1436,0.1436,0.1436,0.1436,0.1436,0.1436,0.1436,0.1436,0.1436,0.1436,0.1436,0.1438,0.1444,0.1468,0.1498,0.1536,0.156,0.1587,0.1617,0.1617,0.1617,0.1617,0.1624,0.1652,0.1697,0.1734,0.1767,0.1795,0.1795,0.1795,0.1795,0.157,0.1009,0.0224,-0.0785,-0.1569,-0.2352,-0.325,-0.3587,-0.3587,-0.3587,-0.3587,-0.3587,-0.3587,-0.3587,-0.3587,-0.3587,-0.3587,-0.3587,-0.3587,-0.3587,-0.3587,-0.3587,-0.3587,-0.3587,-0.3587,-0.3587,-0.3587,-0.3587,-0.3587,-0.3587,-0.3587,-0.3587,-0.3811,-0.4369,-0.4592,-0.4814,-0.5371,-0.5483,-0.5667,-0.5741,-0.6347,-0.6901,-0.7116,-0.7625,-0.8358,-0.9579,-1.0304,-1.1273,-1.2479,-1.3324,-1.3688,-1.3688,-1.3688,-1.3688,-1.3688,-1.3688,-1.3688,-1.3688,-1.3688,-1.3688,0.0,0.0,0.0,0.0,0.0,0.0,0.0,0.0,0.0,0.0,0.0,0.1335,0.1365,0.1394,0.1418,0.1433,0.1436,0.1436,0.1436,0.1436,0.1436,0.1436,0.1436,0.1436,0.1436,0.1436,0.1436,0.1436,0.1436,0.1436,0.1436,0.1436,0.1436,0.1436,0.1451,0.1474,0.1504,0.1534,0.1565,0.1595,0.161,0.1617,0.1617,0.1617,0.1641,0.1686,0.1715,0.1745,0.1774,0.1789,0.1795,0.1795,0.1795,0.1458,0.1009,0.0,-0.0785,-0.1681,-0.2576,-0.325,-0.3587,-0.3587,-0.3587,-0.3587,-0.3587,-0.3587,-0.3587,-0.3587,-0.3587,-0.3587,-0.3587,-0.3587,-0.3587,-0.3587,-0.3587,-0.3587,-0.3587,-0.3587,-0.3587,-0.3587,-0.3587,-0.3587,-0.3587,-0.3587,-0.3699,-0.4033,-0.4369,-0.448,-0.448,-0.526,-0.5779,-0.5625,-0.6464,-0.7138,-0.736,-0.7747,-0.8358,-0.9214,-0.9822,-1.0668,-1.2113,-1.2719,-1.3204,-1.3688,-1.3688,-1.3688,-1.3688,-1.3688,-1.3688,-1.3688,-1.3688,-1.3688,0.0,0.0,0.0,0.0,0.0,0.0,0.0,0.0,0.0,0.0,0.1278,0.131,0.1335,0.1367,0.1398,0.1423,0.1431,0.1436,0.1436,0.1436,0.1436,0.1436,0.1436,0.1436,0.1436,0.1436,0.1436,0.1436,0.1436,0.1436,0.1436,0.1436,0.1436,0.1436,0.1436,0.145,0.148,0.1506,0.1536,0.1572,0.1602,0.1617,0.1617,0.1617,0.1634,0.1664,0.1686,0.1717,0.1752,0.1777,0.179,0.1795,0.1795,0.1795,0.1683,0.0785,-0.0112,-0.1009,-0.1904,-0.2801,-0.3587,-0.3587,-0.3587,-0.3587,-0.3587,-0.3587,-0.3587,-0.3587,-0.3587,-0.3587,-0.3587,-0.3587,-0.3587,-0.3587,-0.3587,-0.3587,-0.3587,-0.3587,-0.3587,-0.3587,-0.3587,-0.3587,-0.3587,-0.3587,-0.3587,-0.3587,-0.4033,-0.4257,-0.3811,-0.505,-0.5912,-0.5743,-0.6715,-0.7517,-0.7731,-0.7872,-0.8236,-0.897,-0.9214,-1.0061,-1.1631,-1.1872,-1.2479,-1.3449,-1.3569,-1.3688,-1.3688,-1.3688,-1.3688,-1.3688,-1.3688,-1.3688,0.0,0.0,0.0,0.0,0.0,0.0,0.0,0.0,0.0,0.0,0.1263,0.1304,0.1308,0.1353,0.1391,0.1395,0.1418,0.1436,0.1436,0.1436,0.1436,0.1436,0.1436,0.1436,0.1436,0.1436,0.1436,0.1436,0.1436,0.1436,0.1436,0.1436,0.1436,0.1436,0.1436,0.145,0.148,0.1485,0.1515,0.1572,0.1602,0.1617,0.1617,0.1617,0.1634,0.1662,0.1666,0.1699,0.175,0.1754,0.1771,0.1795,0.1795,0.1795,0.1683,0.0785,-0.0112,-0.1009,-0.1904,-0.2801,-0.3587,-0.3587,-0.3587,-0.3587,-0.3587,-0.3587,-0.3587,-0.3587,-0.3587,-0.3587,-0.3587,-0.3587,-0.3587,-0.3587,-0.3587,-0.3587,-0.3587,-0.3587,-0.3587,-0.3587,-0.3587,-0.3587,-0.3587,-0.3587,-0.3587,-0.3587,-0.3699,-0.3923,-0.4369,-0.4651,-0.5071,-0.5516,-0.6428,-0.6887,-0.7001,-0.7625,-0.7991,-0.8113,-0.8848,-0.9457,-0.97,-1.0547,-1.1394,-1.2354,-1.3204,-1.3688,-1.3688,-1.3688,-1.3688,-1.3688,-1.3688,-1.3688,0.0,0.0,0.0,0.0,0.0,0.0,0.0,0.0,0.0,0.1202,0.1233,0.1262,0.1296,0.1324,0.1352,0.1384,0.1401,0.1416,0.1433,0.1436,0.1436,0.1436,0.1436,0.1436,0.1436,0.1436,0.1436,0.1436,0.1436,0.1436,0.1436,0.1436,0.1436,0.1436,0.1436,0.1442,0.1455,0.1472,0.1511,0.1572,0.1602,0.1617,0.1617,0.1617,0.1624,0.1638,0.1655,0.1677,0.1703,0.1736,0.1758,0.1771,0.1789,0.1795,0.1795,0.1346,0.0336,-0.1009,-0.1345,-0.2353,-0.3587,-0.3587,-0.3587,-0.3587,-0.3587,-0.3587,-0.3587,-0.3587,-0.3587,-0.3587,-0.3587,-0.3587,-0.3587,-0.3587,-0.3587,-0.3587,-0.3587,-0.3587,-0.3587,-0.3587,-0.3587,-0.3587,-0.3587,-0.3587,-0.3587,-0.3587,-0.3587,-0.3712,-0.3974,-0.4346,-0.487,-0.5588,-0.6354,-0.6902,-0.737,-0.7747,-0.7872,-0.7872,-0.8236,-0.8726,-0.9335,-0.97,-1.0425,-1.139,-1.2359,-1.3084,-1.3688,-1.3688,-1.3688,-1.3688,-1.3688,-1.3688,0.0,0.0,0.0,0.0,0.0,0.0,0.0,0.0,0.1134,0.0,0.1201,0.1226,0.1271,0.1292,0.1317,0.1361,0.1374,0.1389,0.142,0.1424,0.1427,0.1434,0.1436,0.1436,0.1436,0.1436,0.1436,0.1436,0.1436,0.1436,0.1436,0.1436,0.1436,0.1436,0.1436,0.1436,0.1436,0.1466,0.1507,0.156,0.1591,0.1609,0.1617,0.1617,0.1617,0.1618,0.1641,0.1655,0.1666,0.171,0.1736,0.1752,0.1775,0.1788,0.1795,0.1795,0.0673,-0.0897,-0.0897,-0.213,-0.3587,-0.3587,-0.3587,-0.3587,-0.3587,-0.3587,-0.3587,-0.3587,-0.3587,-0.3587,-0.3587,-0.3587,-0.3587,-0.3587,-0.3587,-0.3587,-0.3587,-0.3587,-0.3587,-0.3587,-0.3587,-0.3587,-0.3587,-0.3587,-0.3587,-0.3587,-0.3601,-0.3627,-0.3673,-0.4282,-0.4929,-0.5767,-0.6402,-0.7049,-0.7864,-0.7872,-0.7872,-0.7872,-0.7872,-0.8238,-0.897,-0.897,-0.9454,-1.0425,-1.1148,-1.2118,-1.3324,-1.3569,-1.3688,-1.3688,-1.3688,-1.3688,0.0,0.0,0.0,0.0,0.0,0.0,0.0,0.0,0.0,0.1125,0.1172,0.1213,0.1216,0.1264,0.1303,0.1307,0.1331,0.136,0.1388,0.1393,0.1403,0.1431,0.1436,0.1436,0.1436,0.1436,0.1436,0.1436,0.1436,0.1436,0.1436,0.1436,0.1436,0.1436,0.1436,0.1436,0.1436,0.1466,0.1497,0.1529,0.1559,0.1589,0.1617,0.1617,0.1617,0.1617,0.1619,0.1636,0.1662,0.1665,0.17,0.175,0.1751,0.177,0.1795,0.1795,0.0673,-0.0897,-0.0897,-0.213,-0.3587,-0.3587,-0.3587,-0.3587,-0.3587,-0.3587,-0.3587,-0.3587,-0.3587,-0.3587,-0.3587,-0.3587,-0.3587,-0.3587,-0.3587,-0.3587,-0.3587,-0.3587,-0.3587,-0.3587,-0.3587,-0.3587,-0.3587,-0.3587,-0.3587,-0.3587,-0.3636,-0.3674,-0.3677,-0.4367,-0.505,-0.578,-0.646,-0.7128,-0.7869,-0.7872,-0.7872,-0.7872,-0.7872,-0.7872,-0.7994,-0.7994,-0.8358,-0.9335,-0.9457,-1.0425,-1.2234,-1.3204,-1.3688,-1.3688,-1.3688,-1.3688,0.0,0.0,0.0,0.0,0.0,0.0,0.0,0.105,0.1097,0.1117,0.1138,0.1166,0.1204,0.1245,0.128,0.1299,0.1311,0.1329,0.1358,0.1363,0.1373,0.1403,0.1406,0.1414,0.1433,0.1436,0.1436,0.1436,0.1436,0.1436,0.1436,0.1436,0.1436,0.1436,0.1436,0.1436,0.1436,0.1466,0.1486,0.1498,0.1548,0.1577,0.1588,0.1608,0.1617,0.1617,0.1617,0.1623,0.1635,0.1654,0.1685,0.1722,0.1742,0.1768,0.1795,0.1795,0.1009,-0.0112,-0.0673,-0.1681,-0.28,-0.3362,-0.3587,-0.3587,-0.3587,-0.3587,-0.3587,-0.3587,-0.3587,-0.3587,-0.3587,-0.3587,-0.3587,-0.3587,-0.3587,-0.3587,-0.3587,-0.3587,-0.3587,-0.3587,-0.3587,-0.3587,-0.3587,-0.3587,-0.3587,-0.3587,-0.3639,-0.3692,-0.3732,-0.4046,-0.4596,-0.5736,-0.6134,-0.6644,-0.7747,-0.7872,-0.7872,-0.7872,-0.7872,-0.7872,-0.7872,-0.7872,-0.8116,-0.836,-0.897,-1.0304,-1.2234,-1.2599,-1.3084,-1.3688,-1.3688,-1.3688,-0.0336,0.0,0.0,0.0,0.0,0.0,0.0986,0.0,0.107,0.1099,0.1114,0.1133,0.1174,0.1215,0.1252,0.1282,0.1287,0.1298,0.1328,0.1333,0.1343,0.1372,0.1376,0.1387,0.1417,0.142,0.1424,0.1435,0.1436,0.0,0.1436,0.1436,0.1436,0.1436,0.1436,0.1436,0.1436,0.1455,0.147,0.1481,0.1532,0.1562,0.1573,0.1603,0.1617,0.1617,0.1617,0.1617,0.1618,0.1639,0.1664,0.1693,0.1722,0.1753,0.1781,0.1791,0.1234,0.0224,-0.0561,-0.1233,-0.2017,-0.325,-0.3362,-0.3138,-0.3475,-0.3587,-0.3587,-0.3587,-0.3587,-0.3587,-0.3587,-0.3587,-0.3587,-0.3587,-0.3587,-0.3587,-0.3587,-0.3587,-0.3587,-0.3587,-0.3587,-0.3587,-0.3587,-0.3604,-0.3619,-0.3619,-0.3687,-0.3753,-0.3794,-0.3853,-0.4269,-0.541,-0.5784,-0.6396,-0.7503,-0.7747,-0.7872,-0.7872,-0.7872,-0.7872,-0.7872,-0.7872,-0.7872,-0.7872,-0.8482,-0.9576,-1.1269,-1.1872,-1.2599,-1.3204,-1.3569,-1.3688,0.0,0.0,0.0,0.0,0.0,0.0,0.0982,0.0,0.1042,0.1069,0.1099,0.112,0.1121,0.1169,0.1219,0.1249,0.1335,0.1268,0.1297,0.1301,0.1313,0.1259,0.1262,0.1358,0.1386,0.139,0.1402,0.1431,0.1435,0.1436,0.1436,0.1436,0.1436,0.1436,0.1436,0.1436,0.1436,0.1436,0.145,0.148,0.151,0.154,0.1571,0.1601,0.1616,0.1617,0.1617,0.1617,0.1617,0.1617,0.1635,0.1665,0.1693,0.1722,0.1753,0.1784,0.1234,0.0336,-0.0561,-0.0897,-0.1121,-0.2914,-0.2913,-0.2352,-0.325,-0.3587,-0.3587,-0.3587,-0.3587,-0.3587,-0.3587,-0.3587,-0.3587,-0.3587,-0.3587,-0.3587,-0.3587,-0.3587,-0.3587,-0.3587,-0.3587,-0.3587,-0.3587,-0.3638,-0.3679,-0.3679,-0.3782,-0.386,-0.398,-0.3913,-0.4195,-0.4803,-0.5538,-0.6151,-0.6888,-0.7503,-0.7872,-0.7872,-0.7872,-0.7872,-0.7872,-0.7872,-0.7872,-0.7872,-0.7872,-0.836,-0.9217,-1.1148,-1.2113,-1.2234,-1.3204,-1.3688,0.0112,0.0,0.0,0.0,0.0,0.0,0.0,0.0,0.1042,0.1069,0.1082,0.1095,0.1117,0.1134,0.1156,0.1187,0.1305,0.1338,0.1269,0.127,0.1281,0.1311,0.1315,0.1326,0.1356,0.1378,0.1393,0.0,0.1423,0.1436,0.1436,0.1436,0.1436,0.1436,0.1436,0.1436,0.1436,0.1436,0.144,0.1448,0.1478,0.1509,0.154,0.157,0.1596,0.1617,0.1617,0.1617,0.1617,0.1617,0.1635,0.1665,0.1693,0.1722,0.1753,0.1784,0.1683,0.1234,0.0336,0.0,-0.0112,-0.1233,-0.1457,-0.1457,-0.2353,-0.2576,-0.2688,-0.3362,-0.3587,-0.3587,-0.3587,-0.3587,-0.3587,-0.3587,-0.3587,-0.3587,-0.3587,-0.3587,-0.3587,-0.3587,-0.3587,-0.3587,-0.3587,-0.3638,-0.3679,-0.3679,-0.3782,-0.4101,-0.446,-0.4157,-0.4318,-0.554,-0.5784,-0.6151,-0.6888,-0.7503,-0.7872,-0.7872,-0.7872,-0.7872,-0.7872,-0.7872,-0.7872,-0.7872,-0.7872,-0.7991,-0.8236,-0.9454,-1.0425,-1.1148,-1.2118,-1.2964,0.0,0.0,0.0,0.0,0.0,0.0,0.0979,0.1002,0.1027,0.1067,0.1076,0.1081,0.1099,0.1112,0.1127,0.1144,0.1188,0.1224,0.1236,0.1249,0.1264,0.1281,0.1284,0.1296,0.1326,0.1343,0.1358,0.1371,0.1399,0.1422,0.1435,0.1436,0.1436,0.1436,0.1436,0.1436,0.1436,0.1436,0.1436,0.1436,0.1466,0.149,0.1508,0.1552,0.1581,0.1598,0.1611,0.1617,0.1617,0.1617,0.1627,0.1646,0.1675,0.1705,0.1734,0.1765,0.1784,0.1683,0.0673,0.0673,0.0785,-0.0449,-0.0673,-0.0561,-0.1792,-0.224,-0.2352,-0.3362,-0.3587,-0.3587,-0.3587,-0.3587,-0.3587,-0.3587,-0.3587,-0.3587,-0.3587,-0.3587,-0.3587,-0.3587,-0.3587,-0.3595,-0.3621,-0.3676,-0.3725,-0.3751,-0.3837,-0.402,-0.4383,-0.4416,-0.4561,-0.5416,-0.6029,-0.6519,-0.6888,-0.7503,-0.7872,-0.7872,-0.7872,-0.7872,-0.7872,-0.7872,-0.7872,-0.7872,-0.7872,-0.7872,-0.7872,-0.8848,-0.9822,-1.0789,-1.1752,-1.2479,0.0,0.0,0.0,0.0,0.0,0.0,0.0975,0.099,0.1009,0.1064,0.1076,0.1076,0.1076,0.1097,0.1116,0.1116,0.1142,0.1172,0.1202,0.1233,0.1252,0.1252,0.1333,0.1268,0.1295,0.1301,0.1313,0.1341,0.1372,0.1401,0.1429,0.1433,0.1436,0.1436,0.1436,0.1436,0.1436,0.1436,0.1436,0.1436,0.1463,0.1478,0.1483,0.154,0.1568,0.1573,0.1604,0.1617,0.1617,0.1617,0.1617,0.162,0.165,0.168,0.1708,0.1738,0.1769,0.1683,0.0897,0.1121,0.157,-0.0112,-0.0112,0.0224,-0.1456,-0.2016,-0.2241,-0.3362,-0.3587,-0.3587,-0.3587,-0.3587,-0.3587,-0.3587,-0.3587,-0.3587,-0.3587,-0.3587,-0.3587,-0.3587,-0.3587,-0.3606,-0.3668,-0.3729,-0.379,-0.3852,-0.3912,-0.395,-0.395,-0.4559,-0.4926,-0.5047,-0.6154,-0.6888,-0.6888,-0.7503,-0.7872,-0.7872,-0.7872,-0.7872,-0.7872,-0.7872,-0.7872,-0.7872,-0.7872,-0.7872,-0.7872,-0.8726,-0.9697,-1.0668,-1.1511,-1.1993,0.0,0.0,0.0,0.0,0.0,0.0,0.098,0.1007,0.1034,0.1069,0.1076,0.1076,0.1076,0.108,0.1084,0.1084,0.111,0.114,0.1171,0.1201,0.1221,0.1221,0.1242,0.1338,0.1266,0.1288,0.1305,0.1311,0.136,0.1393,0.1398,0.1422,0.1436,0.1436,0.1436,0.1436,0.1436,0.1436,0.1436,0.1436,0.1441,0.1457,0.1482,0.1519,0.1549,0.1573,0.1604,0.1617,0.1617,0.1617,0.1617,0.162,0.165,0.168,0.1708,0.1738,0.1769,0.1795,0.157,0.1683,0.1795,0.1346,0.1346,0.1346,0.0224,-0.0561,-0.1457,-0.3138,-0.3587,-0.3587,-0.3587,-0.3587,-0.3587,-0.3587,-0.3587,-0.3587,-0.3587,-0.3587,-0.3587,-0.3587,-0.3587,-0.3606,-0.3668,-0.3729,-0.379,-0.3852,-0.3912,-0.4071,-0.4682,-0.4803,-0.5047,-0.5661,-0.6399,-0.6888,-0.6888,-0.7503,-0.7872,-0.7872,-0.7872,-0.7872,-0.7872,-0.7872,-0.7872,-0.7872,-0.7872,-0.7872,-0.7872,-0.8113,-0.8604,-0.9579,-0.9819,-1.0304,0.0,0.0,0.0,0.0916,0.0,0.0,0.0,0.1023,0.1042,0.1069,0.1076,0.1076,0.1076,0.1076,0.1076,0.1076,0.1089,0.1104,0.1119,0.116,0.1189,0.1189,0.1216,0.1234,0.1234,0.1262,0.1286,0.1301,0.133,0.1359,0.1388,0.1404,0.142,0.1435,0.1436,0.1256,0.1076,0.0807,0.0897,0.1436,0.1436,0.1443,0.1459,0.1489,0.152,0.1551,0.1581,0.1603,0.1617,0.1314,0.1314,0.1618,0.1634,0.1666,0.1706,0.1721,0.1756,0.1795,0.1795,0.1795,0.1795,0.1795,0.1795,0.157,0.0673,-0.0561,-0.1793,-0.2689,-0.325,-0.3587,-0.3587,-0.3587,-0.3587,-0.3587,-0.3587,-0.3587,-0.3587,-0.3587,-0.3587,-0.3587,-0.3587,-0.3616,-0.3707,-0.3749,-0.38,-0.3891,-0.3931,-0.4195,-0.4803,-0.517,-0.5661,-0.6276,-0.7011,-0.738,-0.738,-0.7747,-0.7872,-0.7872,-0.7872,-0.7872,-0.7872,-0.7872,-0.7872,-0.7872,-0.7872,-0.7872,-0.7872,-0.7872,-0.8116,-0.8604,-0.9092,-0.9579,0.0,0.0,0.0,0.0,0.0,0.0913,0.0,0.0,0.0,0.1071,0.1076,0.1076,0.1076,0.1076,0.1074,0.1068,0.0,0.0,0.0,0.1114,0.0,0.1157,0.1185,0.1203,0.1203,0.123,0.1261,0.1292,0.1299,0.1323,0.1371,0.1384,0.1401,0.1426,0.1343,0.1076,0.0718,0.0269,0.0359,0.1166,0.1256,0.1345,0.1436,0.1375,0.131,0.1241,0.1363,0.1489,0.1516,0.101,0.1111,0.1617,0.1617,0.1653,0.1705,0.1705,0.1743,0.1795,0.1795,0.1795,0.1795,0.1795,0.1795,0.157,0.0673,-0.056,-0.1792,-0.2128,-0.28,-0.3362,-0.3587,-0.3587,-0.3587,-0.3587,-0.3587,-0.3587,-0.3587,-0.3587,-0.3587,-0.3587,-0.3587,-0.3623,-0.3733,-0.3879,-0.3925,-0.3917,-0.4064,-0.4312,-0.4785,-0.5531,-0.6145,-0.674,-0.749,-0.7872,-0.7872,-0.7872,-0.7872,-0.7872,-0.7872,-0.7872,-0.7872,-0.7872,-0.7872,-0.7872,-0.7872,-0.7872,-0.7872,-0.7872,-0.7872,-0.7872,-0.8726,-0.897,0.0,0.0,0.0,0.0,0.0922,0.0,0.0,0.0,0.1072,0.1075,0.0,0.1076,0.1076,0.0,0.0,0.0,0.0,0.0,0.1042,0.1066,0.1096,0.1123,0.1153,0.1172,0.1172,0.1199,0.123,0.126,0.1287,0.1305,0.1312,0.1364,0.1394,0.1395,0.0977,0.0718,0.0718,0.0269,0.009,0.0179,0.0538,0.0987,0.1346,0.1008,0.0561,0.0191,0.0682,0.1191,0.1516,0.101,0.1111,0.1617,0.1617,0.1654,0.1707,0.1707,0.1744,0.1795,0.1795,0.1795,0.1795,0.1795,0.1795,0.157,0.0673,0.0224,-0.0224,-0.1792,-0.224,-0.2576,-0.3362,-0.3587,-0.3587,-0.3587,-0.3587,-0.3587,-0.3587,-0.3587,-0.3587,-0.3587,-0.3587,-0.3609,-0.3677,-0.4199,-0.4501,-0.398,-0.44,-0.4782,-0.4841,-0.5496,-0.6122,-0.6647,-0.7446,-0.7872,-0.7872,-0.7872,-0.7872,-0.7872,-0.7872,-0.7872,-0.7872,-0.7872,-0.7872,-0.7872,-0.7872,-0.7872,-0.7872,-0.7872,-0.7872,-0.7872,-0.7991,-0.8116,0.0,0.0,0.0,0.0,0.0,0.0,0.1054,0.0,0.1076,0.0,0.0,0.0,0.0,0.0,0.0,0.0,0.1068,0.0,0.0,0.0,0.108,0.0,0.0,0.0,0.1165,0.1194,0.1217,0.123,0.1259,0.1284,0.1301,0.1343,0.1374,0.1391,0.1242,0.0807,0.0269,0.009,0.0,0.0,0.0179,0.0359,0.0629,0.0905,0.0735,0.0,0.0191,0.0488,0.0696,0.0804,0.0707,0.0707,0.1314,0.1447,0.1174,0.1174,0.1199,0.1346,0.1683,0.1795,0.1795,0.1795,0.1795,0.157,0.0673,0.0,-0.0561,-0.1904,-0.2576,-0.3137,-0.3475,-0.3587,-0.3587,-0.3587,-0.3587,-0.3587,-0.3587,-0.3587,-0.3587,-0.3587,-0.3587,-0.3708,-0.4072,-0.4476,-0.4784,-0.4861,-0.5136,-0.5383,-0.5706,-0.609,-0.6478,-0.7217,-0.7624,-0.7799,-0.7867,-0.7872,-0.7872,-0.7872,-0.7872,-0.7872,-0.7872,-0.7872,-0.7872,-0.7872,-0.7872,-0.7872,-0.7872,-0.7872,-0.7872,-0.7872,-0.7872,-0.7872,0.0943,0.0,0.0,0.0,0.0,0.0,0.0,0.0,0.0,0.0,0.0,0.0,0.0,0.0,0.1073,0.0,0.0,0.1073,0.0,0.1071,0.0,0.0,0.0,0.0,0.0,0.1174,0.1194,0.1211,0.1309,0.1179,0.0966,0.0906,0.1093,0.1368,0.1404,0.0979,0.0178,0.009,0.0,0.0,0.0,0.0,0.0,0.0718,0.0635,0.0,0.0,0.0,0.0,0.0401,0.0303,0.0101,0.0808,0.1133,0.0954,0.0639,0.0654,0.0785,0.1346,0.1683,0.1795,0.1795,0.1795,0.1683,0.1009,0.0112,-0.0785,-0.1569,-0.2353,-0.3026,-0.3475,-0.3587,-0.3587,-0.3587,-0.3587,-0.3587,-0.3587,-0.3587,-0.3587,-0.3587,-0.3587,-0.381,-0.4592,-0.477,-0.5071,-0.548,-0.5743,-0.5985,-0.6425,-0.6446,-0.6845,-0.7522,-0.7682,-0.7747,-0.7861,-0.7872,-0.7872,-0.7872,-0.7872,-0.7872,-0.7872,-0.7872,-0.7872,-0.7872,-0.7872,-0.7872,-0.7872,-0.7872,-0.7872,-0.7872,-0.7872,-0.7872,0.0,0.0,0.0,0.1162,0.0,0.0,0.0,0.0,0.1076,0.0,0.0,0.0,0.1076,0.1076,0.0,0.0,0.0,0.0,0.0,0.0,0.0,0.0,0.0,0.0,0.0,0.1123,0.1148,0.1283,0.1288,0.092,0.0079,0.008,0.0407,0.1305,0.1364,0.1133,0.0697,0.0266,0.0,0.0,0.0,0.0,0.0,0.0,0.0,0.0,0.0,0.0,0.0,0.0,0.0,0.0,0.0,0.0716,0.1458,0.0424,0.0,0.0112,0.0673,0.1346,0.1795,0.1795,0.1795,0.1795,0.1795,0.0897,-0.0112,-0.0785,-0.1009,-0.1346,-0.3139,-0.3587,-0.3587,-0.3587,-0.3587,-0.3587,-0.3587,-0.3587,-0.3587,-0.3587,-0.3587,-0.3921,-0.5148,-0.5447,-0.5508,-0.5512,-0.6049,-0.6427,-0.6439,-0.6517,-0.6701,-0.7407,-0.763,-0.7747,-0.7861,-0.7872,-0.7872,-0.7872,-0.7872,-0.7872,-0.7872,-0.7872,-0.7872,-0.7872,-0.7872,-0.7872,-0.7872,-0.7872,-0.7872,-0.7872,-0.7872,-0.7872,0.0,0.0,0.1918,0.1259,0.0,0.0,0.0,0.0,0.0,0.0,0.0,0.0,0.0,0.0,0.0,0.0,0.0,0.0,0.0,0.0,0.0,0.0,0.0,0.0,0.0,0.0,0.0782,0.1179,0.0975,0.0766,0.0549,0.0161,0.0407,0.1303,0.1362,0.1306,0.1132,0.0355,0.0,0.0,0.0,0.0,0.0,0.0,0.0,0.0,0.0,0.0,0.0,0.0,0.0,0.0,0.0,0.0204,0.052,0.0106,0.0,0.0,0.0223,0.0449,0.0673,0.1121,0.1234,0.1234,0.1234,0.0673,-0.0224,-0.1234,-0.2018,-0.2802,-0.3475,-0.3587,-0.3587,-0.3587,-0.3587,-0.3587,-0.3587,-0.3587,-0.3587,-0.3587,-0.3587,-0.381,-0.4702,-0.5172,-0.5756,-0.6542,-0.6799,-0.6922,-0.6883,-0.6912,-0.708,-0.7388,-0.7508,-0.7627,-0.7747,-0.7828,-0.7872,-0.7872,-0.7872,-0.7872,-0.7872,-0.7872,-0.7872,-0.7872,-0.7872,-0.7872,-0.7872,-0.7872,-0.7872,-0.7872,-0.7872,-0.7872,0.2697,0.2689,0.0,0.1678,0.1478,0.0,0.1143,0.0,0.1076,0.0,0.0,0.0,0.0,0.0,0.0,0.0,0.0,0.0,0.0,0.0538,0.0,0.0,0.0,0.0,0.0,0.041,0.0349,0.0359,0.0368,0.0151,0.0,-0.0555,-0.0401,0.0161,0.025,0.0597,0.1377,0.0791,0.0356,0.0,0.0,0.0,0.0,0.0,0.0,0.0,0.0,0.0,0.0,0.0,0.0,0.0,0.0,0.0,0.0,0.0,0.0,0.0,0.0,0.0,0.0112,0.0449,0.0561,0.0561,0.0561,0.0,-0.0786,-0.1582,-0.2478,-0.3142,-0.35,-0.3604,-0.3587,-0.3587,-0.3587,-0.3587,-0.3587,-0.3587,-0.3587,-0.3587,-0.3587,-0.3811,-0.4369,-0.4814,-0.5483,-0.671,-0.7043,-0.7154,-0.7154,-0.7154,-0.7201,-0.7323,-0.7445,-0.7584,-0.7747,-0.7828,-0.7872,-0.7872,-0.7872,-0.7872,-0.7872,-0.7872,-0.7872,-0.7872,-0.7872,-0.7872,-0.7872,-0.7872,-0.7872,-0.7872,-0.7872,-0.7872]}]]